| time (UTC) | temp F | wind direction | speed knots | gust knots | rain 1hr in | rain 24hr in | rain mn in | humidity % | barometer mb |
| 20260906075004 | 65 | 245 | 2.6 | 8.7 | 0.00 | 0.03 | 0.00 | 59 | 1016.8 |
| 20260906074905 | 65 | 200 | 1.7 | 8.7 | 0.00 | 0.03 | 0.00 | 60 | 1016.9 |
| 20260906074804 | 64 | 200 | 1.7 | 8.7 | 0.00 | 0.03 | 0.00 | 60 | 1016.8 |
| 20260906074704 | 64 | 148 | 1.7 | 7.8 | 0.00 | 0.03 | 0.00 | 60 | 1016.6 |
| 20260906074625 | 64 | 152 | 1.7 | 7.8 | 0.00 | 0.03 | 0.00 | 61 | 1016.6 |
| 20260906074525 | 64 | 185 | 1.7 | 7.8 | 0.00 | 0.03 | 0.00 | 61 | 1016.7 |
| 20260906074404 | 64 | 172 | 1.7 | 7.8 | 0.00 | 0.03 | 0.00 | 61 | 1016.6 |
| 20260906074325 | 64 | 175 | 1.7 | 7.8 | 0.00 | 0.03 | 0.00 | 61 | 1016.6 |
| 20260906074204 | 64 | 192 | 1.7 | 7.8 | 0.00 | 0.03 | 0.00 | 60 | 1016.7 |
| 20260906074104 | 64 | 176 | 1.7 | 7.8 | 0.00 | 0.03 | 0.00 | 60 | 1016.8 |
| 20260906074004 | 64 | 178 | 1.7 | 7.8 | 0.00 | 0.03 | 0.00 | 62 | 1016.7 |
| 20260906073904 | 64 | 183 | 0.9 | 7.8 | 0.00 | 0.03 | 0.00 | 62 | 1016.6 |
| 20260906073804 | 64 | 178 | 0.9 | 7.8 | 0.00 | 0.03 | 0.00 | 62 | 1016.8 |
| 20260906073704 | 64 | 179 | 0.9 | 7.8 | 0.00 | 0.03 | 0.00 | 62 | 1016.7 |
| 20260906073604 | 64 | 184 | 0.9 | 7.8 | 0.00 | 0.03 | 0.00 | 62 | 1016.8 |
| 20260906073504 | 64 | 187 | 0.9 | 7.8 | 0.00 | 0.03 | 0.00 | 62 | 1016.6 |
| 20260906073404 | 64 | 189 | 0.9 | 6.1 | 0.00 | 0.03 | 0.00 | 63 | 1017.0 |
| 20260906073304 | 64 | 184 | 0.9 | 6.1 | 0.00 | 0.03 | 0.00 | 63 | 1016.7 |
| 20260906073204 | 63 | 177 | 0.9 | 6.1 | 0.00 | 0.03 | 0.00 | 64 | 1016.7 |
| 20260906073104 | 63 | 194 | 0.9 | 6.1 | 0.00 | 0.03 | 0.00 | 64 | 1016.6 |
| 20260906073004 | 63 | 192 | 0.9 | 6.1 | 0.00 | 0.03 | 0.00 | 64 | 1016.7 |
| 20260906072904 | 63 | 197 | 0.9 | 6.1 | 0.00 | 0.03 | 0.00 | 64 | 1016.6 |
| 20260906072804 | 63 | 200 | 0.9 | 6.1 | 0.00 | 0.03 | 0.00 | 64 | 1016.9 |
| 20260906072704 | 63 | 204 | 0.9 | 6.1 | 0.00 | 0.03 | 0.00 | 64 | 1016.9 |
| 20260906072604 | 62 | 196 | 0.9 | 6.1 | 0.00 | 0.03 | 0.00 | 65 | 1016.8 |
| 20260906072525 | 62 | 191 | 0.9 | 6.1 | 0.00 | 0.03 | 0.00 | 66 | 1016.8 |
| 20260906072404 | 62 | 190 | 0.9 | 6.1 | 0.00 | 0.03 | 0.00 | 66 | 1016.8 |
| 20260906072306 | 62 | 191 | 0.9 | 6.1 | 0.00 | 0.03 | 0.00 | 66 | 1016.9 |
| 20260906072204 | 62 | 188 | 0.9 | 6.1 | 0.00 | 0.03 | 0.00 | 65 | 1016.8 |
| 20260906072104 | 62 | 183 | 0.9 | 6.1 | 0.00 | 0.03 | 0.00 | 65 | 1016.8 |
| 20260906072025 | 62 | 180 | 0.9 | 6.1 | 0.00 | 0.03 | 0.00 | 65 | 1016.8 |
| 20260906071904 | 62 | 177 | 0.9 | 6.1 | 0.00 | 0.03 | 0.00 | 66 | 1016.5 |
| 20260906071804 | 62 | 178 | 0.9 | 6.1 | 0.00 | 0.03 | 0.00 | 66 | 1016.5 |
| 20260906071704 | 62 | 174 | 0.9 | 6.1 | 0.00 | 0.03 | 0.00 | 66 | 1016.7 |
| 20260906071625 | 62 | 180 | 0.9 | 6.1 | 0.00 | 0.03 | 0.00 | 66 | 1016.7 |
| 20260906071525 | 62 | 199 | 0.0 | 6.1 | 0.00 | 0.03 | 0.00 | 65 | 1016.7 |
| 20260906071404 | 62 | 188 | 0.0 | 3.5 | 0.00 | 0.03 | 0.00 | 66 | 1016.8 |
| 20260906071304 | 62 | 187 | 0.0 | 3.5 | 0.00 | 0.03 | 0.00 | 66 | 1016.6 |
| 20260906071204 | 62 | 185 | 0.0 | 3.5 | 0.00 | 0.03 | 0.00 | 66 | 1016.9 |
| 20260906071125 | 62 | 188 | 0.0 | 3.5 | 0.00 | 0.03 | 0.00 | 65 | 1016.9 |
| 20260906071004 | 62 | 187 | 0.0 | 1.7 | 0.00 | 0.03 | 0.00 | 65 | 1016.5 |
| 20260906070904 | 62 | 174 | 0.0 | 1.7 | 0.00 | 0.03 | 0.00 | 66 | 1016.7 |
| 20260906070804 | 62 | 192 | 0.0 | 5.2 | 0.00 | 0.03 | 0.00 | 66 | 1016.5 |
| 20260906070704 | 61 | 191 | 0.0 | 5.2 | 0.00 | 0.03 | 0.00 | 65 | 1016.7 |
| 20260906070604 | 61 | 181 | 0.0 | 5.2 | 0.00 | 0.03 | 0.00 | 66 | 1016.3 |
| 20260906070504 | 61 | 190 | 0.0 | 5.2 | 0.00 | 0.03 | 0.00 | 66 | 1016.7 |
| 20260906070404 | 61 | 176 | 0.0 | 5.2 | 0.00 | 0.03 | 0.00 | 66 | 1016.4 |
| 20260906070325 | 61 | 195 | 0.0 | 5.2 | 0.00 | 0.03 | 0.00 | 66 | 1016.4 |
| 20260906070204 | 61 | 204 | 0.9 | 5.2 | 0.00 | 0.03 | 0.00 | 66 | 1016.6 |
| 20260906070104 | 61 | 187 | 0.9 | 5.2 | 0.00 | 0.03 | 0.00 | 66 | 1016.6 |
| 20260906070004 | 61 | 211 | 0.9 | 5.2 | 0.00 | 0.03 | 0.00 | 66 | 1016.5 |
| 20260906065904 | 61 | 211 | 0.9 | 5.2 | 0.00 | 0.03 | 0.00 | 66 | 1016.8 |
| 20260906065804 | 61 | 189 | 0.0 | 5.2 | 0.00 | 0.03 | 0.00 | 66 | 1016.8 |
| 20260906065704 | 61 | 196 | 0.0 | 3.5 | 0.00 | 0.03 | 0.00 | 66 | 1016.6 |
| 20260906065604 | 61 | 195 | 0.0 | 3.5 | 0.00 | 0.03 | 0.00 | 66 | 1016.7 |
| 20260906065504 | 61 | 188 | 0.0 | 1.7 | 0.00 | 0.03 | 0.00 | 66 | 1016.6 |
| 20260906065404 | 61 | 207 | 0.0 | 1.7 | 0.00 | 0.03 | 0.00 | 66 | 1016.5 |
| 20260906065305 | 61 | 189 | 0.0 | 1.7 | 0.00 | 0.03 | 0.00 | 66 | 1016.7 |
| 20260906065204 | 61 | 195 | 0.0 | 1.7 | 0.00 | 0.03 | 0.00 | 66 | 1016.5 |
| 20260906065104 | 61 | 207 | 0.0 | 1.7 | 0.00 | 0.03 | 0.00 | 67 | 1016.6 |
| 20260906065004 | 61 | 188 | 0.0 | 2.6 | 0.00 | 0.03 | 0.00 | 68 | 1016.7 |
| 20260906064904 | 61 | 219 | 0.0 | 3.5 | 0.00 | 0.03 | 0.00 | 67 | 1016.5 |
| 20260906064804 | 61 | 207 | 0.0 | 3.5 | 0.00 | 0.03 | 0.00 | 67 | 1016.4 |
| 20260906064704 | 61 | 190 | 0.0 | 3.5 | 0.00 | 0.03 | 0.00 | 68 | 1016.4 |
| 20260906064625 | 61 | 190 | 0.0 | 3.5 | 0.00 | 0.03 | 0.00 | 67 | 1016.4 |
| 20260906064504 | 61 | 189 | 0.0 | 3.5 | 0.00 | 0.03 | 0.00 | 67 | 1016.3 |
| 20260906064404 | 61 | 186 | 0.0 | 3.5 | 0.00 | 0.03 | 0.00 | 68 | 1016.4 |
| 20260906064304 | 61 | 186 | 0.0 | 3.5 | 0.00 | 0.03 | 0.00 | 68 | 1016.5 |
| 20260906064205 | 61 | 183 | 0.0 | 3.5 | 0.00 | 0.03 | 0.00 | 68 | 1016.7 |
| 20260906064104 | 61 | 186 | 0.0 | 3.5 | 0.00 | 0.03 | 0.00 | 68 | 1016.5 |
| 20260906064004 | 61 | 188 | 0.0 | 3.5 | 0.00 | 0.03 | 0.00 | 68 | 1016.8 |
| 20260906063925 | 60 | 172 | 0.0 | 3.5 | 0.00 | 0.03 | 0.00 | 68 | 1016.8 |
| 20260906063804 | 60 | 172 | 0.0 | 2.6 | 0.00 | 0.03 | 0.00 | 69 | 1016.4 |
| 20260906063704 | 60 | 186 | 0.0 | 3.5 | 0.00 | 0.03 | 0.00 | 69 | 1016.7 |
| 20260906063604 | 60 | 196 | 0.0 | 5.2 | 0.00 | 0.03 | 0.00 | 69 | 1016.6 |
| 20260906063504 | 60 | 201 | 0.0 | 5.2 | 0.00 | 0.03 | 0.00 | 69 | 1016.6 |
| 20260906063404 | 60 | 199 | 0.0 | 5.2 | 0.00 | 0.03 | 0.00 | 70 | 1016.4 |
| 20260906063304 | 60 | 200 | 0.0 | 5.2 | 0.00 | 0.03 | 0.00 | 70 | 1016.6 |
| 20260906063204 | 60 | 201 | 0.0 | 5.2 | 0.00 | 0.03 | 0.00 | 69 | 1016.8 |
| 20260906063104 | 60 | 196 | 0.0 | 5.2 | 0.00 | 0.03 | 0.00 | 70 | 1016.7 |
| 20260906063004 | 60 | 197 | 0.0 | 5.2 | 0.00 | 0.03 | 0.00 | 70 | 1016.6 |
| 20260906062904 | 60 | 199 | 0.0 | 5.2 | 0.00 | 0.03 | 0.00 | 70 | 1016.4 |
| 20260906062804 | 60 | 205 | 0.0 | 5.2 | 0.00 | 0.03 | 0.00 | 70 | 1016.6 |
| 20260906062704 | 60 | 201 | 0.0 | 5.2 | 0.00 | 0.03 | 0.00 | 70 | 1016.5 |
| 20260906062604 | 60 | 183 | 0.0 | 1.7 | 0.00 | 0.03 | 0.00 | 70 | 1016.6 |
| 20260906062504 | 60 | 172 | 0.0 | 1.7 | 0.00 | 0.03 | 0.00 | 71 | 1016.4 |
| 20260906062404 | 60 | 174 | 0.0 | 1.7 | 0.00 | 0.03 | 0.00 | 70 | 1016.6 |
| 20260906062306 | 60 | 174 | 0.0 | 1.7 | 0.00 | 0.03 | 0.00 | 70 | 1016.7 |
| 20260906062204 | 60 | 175 | 0.0 | 3.5 | 0.00 | 0.03 | 0.00 | 70 | 1016.6 |
| 20260906062125 | 60 | 182 | 0.0 | 3.5 | 0.00 | 0.03 | 0.00 | 70 | 1016.6 |
| 20260906062025 | 60 | 186 | 0.0 | 3.5 | 0.00 | 0.03 | 0.00 | 70 | 1016.5 |
| 20260906061904 | 60 | 154 | 0.0 | 5.2 | 0.00 | 0.03 | 0.00 | 70 | 1016.6 |
| 20260906061804 | 60 | 154 | 0.0 | 5.2 | 0.00 | 0.03 | 0.00 | 70 | 1016.6 |
| 20260906061704 | 60 | 155 | 0.0 | 5.2 | 0.00 | 0.03 | 0.00 | 70 | 1016.4 |
| 20260906061604 | 60 | 160 | 0.0 | 5.2 | 0.00 | 0.03 | 0.00 | 70 | 1016.4 |
| 20260906061504 | 61 | 162 | 0.0 | 5.2 | 0.00 | 0.03 | 0.00 | 70 | 1016.5 |
| 20260906061404 | 61 | 164 | 0.0 | 5.2 | 0.00 | 0.03 | 0.00 | 69 | 1016.5 |
| 20260906061304 | 61 | 163 | 0.0 | 5.2 | 0.00 | 0.03 | 0.00 | 70 | 1016.3 |
| 20260906061207 | 61 | 127 | 0.0 | 5.2 | 0.00 | 0.03 | 0.00 | 68 | 1016.5 |
| 20260906061104 | 61 | 151 | 0.0 | 5.2 | 0.00 | 0.03 | 0.00 | 68 | 1016.6 |
| 20260906061025 | 61 | 153 | 0.0 | 5.2 | 0.00 | 0.03 | 0.00 | 68 | 1016.6 |
| 20260906060904 | 61 | 168 | 0.0 | 3.5 | 0.00 | 0.03 | 0.00 | 69 | 1016.4 |
| 20260906060804 | 61 | 165 | 0.0 | 3.5 | 0.00 | 0.03 | 0.00 | 69 | 1016.5 |
| 20260906060704 | 61 | 185 | 0.0 | 3.5 | 0.00 | 0.03 | 0.00 | 68 | 1016.5 |
| 20260906060625 | 61 | 180 | 0.0 | 3.5 | 0.00 | 0.03 | 0.00 | 69 | 1016.5 |
| 20260906060504 | 61 | 186 | 0.0 | 3.5 | 0.00 | 0.03 | 0.00 | 70 | 1016.5 |
| 20260906060404 | 60 | 176 | 0.0 | 3.5 | 0.00 | 0.03 | 0.00 | 70 | 1016.5 |
| 20260906060304 | 60 | 175 | 0.0 | 3.5 | 0.00 | 0.03 | 0.00 | 70 | 1016.4 |
| 20260906060204 | 60 | 191 | 0.0 | 3.5 | 0.00 | 0.03 | 0.00 | 70 | 1016.5 |
| 20260906060104 | 60 | 215 | 0.0 | 3.5 | 0.00 | 0.03 | 0.00 | 70 | 1016.4 |
| 20260906060025 | 60 | 223 | 0.0 | 3.5 | 0.00 | 0.03 | 0.00 | 70 | 1016.4 |
| 20260906055904 | 60 | 235 | 0.0 | 5.2 | 0.00 | 0.03 | 0.00 | 70 | 1016.5 |
| 20260906055825 | 60 | 229 | 0.0 | 5.2 | 0.00 | 0.03 | 0.00 | 70 | 1016.5 |
| 20260906055704 | 60 | 224 | 0.0 | 5.2 | 0.00 | 0.03 | 0.00 | 70 | 1016.2 |
| 20260906055604 | 60 | 227 | 0.0 | 5.2 | 0.00 | 0.03 | 0.00 | 71 | 1016.3 |
| 20260906055504 | 60 | 218 | 0.0 | 5.2 | 0.00 | 0.03 | 0.00 | 71 | 1016.5 |
| 20260906055425 | 60 | 228 | 0.0 | 5.2 | 0.00 | 0.03 | 0.00 | 71 | 1016.5 |
| 20260906055306 | 59 | 233 | 0.0 | 5.2 | 0.00 | 0.03 | 0.00 | 72 | 1016.3 |
| 20260906055225 | 59 | 236 | 0.0 | 5.2 | 0.00 | 0.03 | 0.00 | 71 | 1016.3 |
| 20260906055104 | 59 | 239 | 0.0 | 5.2 | 0.00 | 0.03 | 0.00 | 72 | 1016.3 |
| 20260906055004 | 58 | 222 | 0.0 | 5.2 | 0.00 | 0.03 | 0.00 | 73 | 1016.5 |
| 20260906054925 | 58 | 122 | 0.0 | 2.6 | 0.00 | 0.03 | 0.00 | 74 | 1016.5 |
| 20260906054825 | 58 | 130 | 0.0 | 2.6 | 0.00 | 0.03 | 0.00 | 74 | 1016.4 |
| 20260906054704 | 58 | 107 | 0.0 | 2.6 | 0.00 | 0.03 | 0.00 | 75 | 1016.3 |
| 20260906054604 | 58 | 131 | 0.0 | 2.6 | 0.00 | 0.03 | 0.00 | 75 | 1016.3 |
| 20260906054504 | 58 | 131 | 0.0 | 2.6 | 0.00 | 0.03 | 0.00 | 76 | 1016.3 |
| 20260906054404 | 58 | 162 | 0.0 | 0.9 | 0.00 | 0.03 | 0.00 | 76 | 1016.4 |
| 20260906054304 | 58 | 163 | 0.0 | 0.9 | 0.00 | 0.03 | 0.00 | 76 | 1016.3 |
| 20260906054204 | 58 | 163 | 0.0 | 0.9 | 0.00 | 0.03 | 0.00 | 76 | 1016.3 |
| 20260906054125 | 58 | 181 | 0.0 | 1.7 | 0.00 | 0.03 | 0.00 | 76 | 1016.3 |
| 20260906054004 | 58 | 186 | 0.0 | 1.7 | 0.00 | 0.03 | 0.00 | 76 | 1016.6 |
| 20260906053904 | 58 | 187 | 0.0 | 1.7 | 0.00 | 0.03 | 0.00 | 76 | 1016.2 |
| 20260906053804 | 58 | 195 | 0.0 | 1.7 | 0.00 | 0.03 | 0.00 | 76 | 1016.5 |
| 20260906053704 | 58 | 196 | 0.0 | 1.7 | 0.00 | 0.03 | 0.00 | 76 | 1016.4 |
| 20260906053604 | 58 | 196 | 0.0 | 1.7 | 0.00 | 0.03 | 0.00 | 76 | 1016.2 |
| 20260906053504 | 58 | 198 | 0.0 | 1.7 | 0.00 | 0.03 | 0.00 | 76 | 1016.3 |
| 20260906053404 | 58 | 228 | 0.0 | 1.7 | 0.00 | 0.03 | 0.00 | 76 | 1016.3 |
| 20260906053304 | 58 | 227 | 0.0 | 1.7 | 0.00 | 0.03 | 0.00 | 76 | 1016.3 |
| 20260906053204 | 58 | 227 | 0.0 | 1.7 | 0.00 | 0.03 | 0.00 | 76 | 1016.5 |
| 20260906053104 | 57 | 223 | 0.0 | 1.7 | 0.00 | 0.03 | 0.00 | 76 | 1016.3 |
| 20260906053025 | 57 | 221 | 0.0 | 1.7 | 0.00 | 0.03 | 0.00 | 76 | 1016.3 |
| 20260906052904 | 57 | 222 | 0.0 | 1.7 | 0.00 | 0.03 | 0.00 | 76 | 1016.3 |
| 20260906052804 | 57 | 222 | 0.0 | 1.7 | 0.00 | 0.03 | 0.00 | 76 | 1016.2 |
| 20260906052704 | 57 | 222 | 0.0 | 1.7 | 0.00 | 0.03 | 0.00 | 76 | 1016.1 |
| 20260906052604 | 57 | 212 | 0.0 | 1.7 | 0.00 | 0.03 | 0.00 | 76 | 1016.3 |
| 20260906052504 | 57 | 212 | 0.0 | 1.7 | 0.00 | 0.03 | 0.00 | 76 | 1016.3 |
| 20260906052404 | 57 | 206 | 0.0 | 1.7 | 0.00 | 0.03 | 0.00 | 76 | 1016.3 |
| 20260906052305 | 57 | 184 | 0.0 | 1.7 | 0.00 | 0.03 | 0.00 | 77 | 1016.4 |
| 20260906052204 | 57 | 184 | 0.0 | 1.7 | 0.00 | 0.03 | 0.00 | 76 | 1016.2 |
| 20260906052104 | 57 | 184 | 0.0 | 1.7 | 0.00 | 0.03 | 0.00 | 76 | 1016.2 |
| 20260906052004 | 57 | 168 | 0.0 | 1.7 | 0.00 | 0.03 | 0.00 | 77 | 1016.5 |
| 20260906051904 | 57 | 118 | 0.0 | 1.7 | 0.00 | 0.03 | 0.00 | 77 | 1016.3 |
| 20260906051804 | 57 | 118 | 0.0 | 1.7 | 0.00 | 0.03 | 0.00 | 77 | 1016.4 |
| 20260906051704 | 57 | 118 | 0.0 | 1.7 | 0.00 | 0.03 | 0.00 | 77 | 1016.5 |
| 20260906051604 | 57 | 0 | 0.0 | 0.0 | 0.00 | 0.03 | 0.00 | 77 | 1016.4 |
| 20260906051506 | 57 | 0 | 0.0 | 0.0 | 0.00 | 0.03 | 0.00 | 78 | 1016.5 |
| 20260906051404 | 57 | 0 | 0.0 | 0.0 | 0.00 | 0.03 | 0.00 | 78 | 1016.4 |
| 20260906051325 | 57 | 0 | 0.0 | 0.0 | 0.00 | 0.03 | 0.00 | 78 | 1016.4 |
| 20260906051204 | 56 | 0 | 0.0 | 0.0 | 0.00 | 0.03 | 0.00 | 78 | 1016.1 |
| 20260906051125 | 56 | 0 | 0.0 | 0.0 | 0.00 | 0.03 | 0.00 | 78 | 1016.1 |
| 20260906051004 | 56 | 0 | 0.0 | 0.0 | 0.00 | 0.03 | 0.00 | 78 | 1016.3 |
| 20260906050925 | 56 | 0 | 0.0 | 0.0 | 0.00 | 0.03 | 0.00 | 78 | 1016.3 |
| 20260906050804 | 56 | 0 | 0.0 | 0.0 | 0.00 | 0.03 | 0.00 | 78 | 1016.4 |
| 20260906050725 | 56 | 151 | 0.0 | 0.9 | 0.00 | 0.03 | 0.00 | 78 | 1016.4 |
| 20260906050604 | 56 | 170 | 0.0 | 0.9 | 0.00 | 0.03 | 0.00 | 79 | 1016.2 |
| 20260906050525 | 56 | 170 | 0.0 | 0.9 | 0.00 | 0.03 | 0.00 | 78 | 1016.2 |
| 20260906050425 | 56 | 170 | 0.0 | 0.9 | 0.00 | 0.03 | 0.00 | 78 | 1016.2 |
| 20260906050325 | 56 | 170 | 0.0 | 0.9 | 0.00 | 0.03 | 0.00 | 78 | 1016.3 |
| 20260906050204 | 56 | 170 | 0.0 | 0.9 | 0.00 | 0.03 | 0.00 | 78 | 1016.2 |
| 20260906050104 | 56 | 150 | 0.0 | 0.9 | 0.00 | 0.03 | 0.00 | 78 | 1016.3 |
| 20260906050004 | 56 | 150 | 0.0 | 0.9 | 0.00 | 0.03 | 0.00 | 78 | 1016.2 |
| 20260906045904 | 56 | 150 | 0.0 | 0.9 | 0.00 | 0.03 | 0.00 | 79 | 1016.1 |
| 20260906045804 | 56 | 150 | 0.0 | 0.9 | 0.00 | 0.03 | 0.00 | 79 | 1016.2 |
| 20260906045704 | 56 | 149 | 0.0 | 0.9 | 0.00 | 0.03 | 0.00 | 79 | 1016.3 |
| 20260906045604 | 56 | 123 | 0.0 | 0.9 | 0.00 | 0.03 | 0.00 | 79 | 1016.1 |
| 20260906045504 | 55 | 123 | 0.0 | 0.9 | 0.00 | 0.03 | 0.00 | 80 | 1016.4 |
| 20260906045404 | 55 | 123 | 0.0 | 0.9 | 0.00 | 0.03 | 0.00 | 80 | 1016.2 |
| 20260906045306 | 55 | 123 | 0.0 | 0.9 | 0.00 | 0.03 | 0.00 | 80 | 1016.3 |
| 20260906045204 | 55 | 123 | 0.0 | 0.9 | 0.00 | 0.03 | 0.00 | 80 | 1016.3 |
| 20260906045104 | 55 | 0 | 0.0 | 0.0 | 0.00 | 0.03 | 0.00 | 80 | 1016.1 |
| 20260906045025 | 55 | 0 | 0.0 | 0.0 | 0.00 | 0.03 | 0.00 | 80 | 1016.1 |
| 20260906044904 | 55 | 0 | 0.0 | 0.0 | 0.00 | 0.03 | 0.00 | 81 | 1016.2 |
| 20260906044804 | 54 | 0 | 0.0 | 0.0 | 0.00 | 0.03 | 0.00 | 81 | 1016.3 |
| 20260906044725 | 54 | 0 | 0.0 | 0.0 | 0.00 | 0.03 | 0.00 | 81 | 1016.3 |
| 20260906044604 | 54 | 0 | 0.0 | 0.0 | 0.00 | 0.03 | 0.00 | 82 | 1016.3 |
| 20260906044504 | 54 | 0 | 0.0 | 0.0 | 0.00 | 0.03 | 0.00 | 82 | 1016.2 |
| 20260906044404 | 54 | 0 | 0.0 | 0.0 | 0.00 | 0.03 | 0.00 | 82 | 1016.2 |
| 20260906044325 | 54 | 0 | 0.0 | 0.0 | 0.00 | 0.03 | 0.00 | 82 | 1016.2 |
| 20260906044204 | 54 | 0 | 0.0 | 0.0 | 0.00 | 0.03 | 0.00 | 82 | 1016.3 |
| 20260906044104 | 54 | 0 | 0.0 | 0.0 | 0.00 | 0.03 | 0.00 | 82 | 1016.2 |
| 20260906044004 | 54 | 0 | 0.0 | 0.0 | 0.00 | 0.03 | 0.00 | 83 | 1016.3 |
| 20260906043904 | 53 | 0 | 0.0 | 0.0 | 0.00 | 0.03 | 0.00 | 83 | 1016.3 |
| 20260906043804 | 53 | 0 | 0.0 | 0.0 | 0.00 | 0.03 | 0.00 | 83 | 1016.3 |
| 20260906043725 | 53 | 0 | 0.0 | 0.0 | 0.00 | 0.03 | 0.00 | 83 | 1016.3 |
| 20260906043604 | 53 | 0 | 0.0 | 0.0 | 0.00 | 0.03 | 0.00 | 83 | 1016.2 |
| 20260906043504 | 53 | 0 | 0.0 | 0.0 | 0.00 | 0.03 | 0.00 | 84 | 1016.1 |
| 20260906043404 | 53 | 0 | 0.0 | 0.0 | 0.00 | 0.03 | 0.00 | 84 | 1016.3 |
| 20260906043304 | 53 | 0 | 0.0 | 0.0 | 0.00 | 0.03 | 0.00 | 84 | 1016.3 |
| 20260906043204 | 53 | 0 | 0.0 | 0.0 | 0.00 | 0.03 | 0.00 | 84 | 1016.1 |
| 20260906043104 | 53 | 0 | 0.0 | 0.0 | 0.00 | 0.03 | 0.00 | 84 | 1016.5 |
| 20260906043004 | 52 | 0 | 0.0 | 0.0 | 0.00 | 0.03 | 0.00 | 85 | 1016.0 |
| 20260906042904 | 52 | 0 | 0.0 | 0.0 | 0.00 | 0.03 | 0.00 | 85 | 1016.0 |
| 20260906042804 | 52 | 0 | 0.0 | 0.0 | 0.00 | 0.03 | 0.00 | 85 | 1016.4 |
| 20260906042704 | 52 | 0 | 0.0 | 0.0 | 0.00 | 0.03 | 0.00 | 85 | 1016.3 |
| 20260906042604 | 52 | 0 | 0.0 | 0.0 | 0.00 | 0.03 | 0.00 | 86 | 1016.3 |
| 20260906042525 | 52 | 0 | 0.0 | 0.0 | 0.00 | 0.03 | 0.00 | 86 | 1016.3 |
| 20260906042425 | 52 | 0 | 0.0 | 0.0 | 0.00 | 0.03 | 0.00 | 86 | 1016.3 |
| 20260906042325 | 52 | 0 | 0.0 | 0.0 | 0.00 | 0.03 | 0.00 | 86 | 1016.0 |
| 20260906042204 | 52 | 0 | 0.0 | 0.0 | 0.00 | 0.03 | 0.00 | 86 | 1016.1 |
| 20260906042104 | 52 | 0 | 0.0 | 0.0 | 0.00 | 0.03 | 0.00 | 86 | 1016.1 |
| 20260906042025 | 52 | 0 | 0.0 | 0.0 | 0.00 | 0.03 | 0.00 | 86 | 1016.1 |
| 20260906041904 | 52 | 0 | 0.0 | 0.0 | 0.00 | 0.03 | 0.00 | 87 | 1016.0 |
| 20260906041804 | 52 | 0 | 0.0 | 0.0 | 0.00 | 0.03 | 0.00 | 87 | 1015.8 |
| 20260906041704 | 52 | 0 | 0.0 | 0.0 | 0.00 | 0.03 | 0.00 | 87 | 1015.9 |
| 20260906041625 | 52 | 0 | 0.0 | 0.0 | 0.00 | 0.03 | 0.00 | 87 | 1015.9 |
| 20260906041525 | 52 | 0 | 0.0 | 0.0 | 0.00 | 0.03 | 0.00 | 88 | 1015.8 |
| 20260906041404 | 51 | 0 | 0.0 | 0.0 | 0.00 | 0.03 | 0.00 | 88 | 1015.9 |
| 20260906041304 | 51 | 0 | 0.0 | 0.0 | 0.00 | 0.03 | 0.00 | 88 | 1016.1 |
| 20260906041204 | 51 | 0 | 0.0 | 0.0 | 0.00 | 0.03 | 0.00 | 88 | 1015.7 |
| 20260906041104 | 51 | 0 | 0.0 | 0.0 | 0.00 | 0.03 | 0.00 | 88 | 1015.8 |
| 20260906041004 | 51 | 0 | 0.0 | 0.0 | 0.00 | 0.03 | 0.00 | 88 | 1016.1 |
| 20260906040904 | 51 | 0 | 0.0 | 0.0 | 0.00 | 0.03 | 0.00 | 89 | 1015.8 |
| 20260906040804 | 50 | 0 | 0.0 | 0.0 | 0.00 | 0.03 | 0.00 | 89 | 1016.0 |
| 20260906040704 | 50 | 0 | 0.0 | 0.0 | 0.00 | 0.03 | 0.00 | 88 | 1015.8 |
| 20260906040604 | 50 | 0 | 0.0 | 0.0 | 0.00 | 0.03 | 0.00 | 88 | 1015.7 |
| 20260906040504 | 50 | 0 | 0.0 | 0.0 | 0.00 | 0.03 | 0.00 | 88 | 1015.4 |
| 20260906040404 | 50 | 0 | 0.0 | 0.0 | 0.00 | 0.03 | 0.00 | 88 | 1015.9 |
| 20260906040304 | 50 | 0 | 0.0 | 0.0 | 0.00 | 0.03 | 0.00 | 88 | 1015.7 |
| 20260906040204 | 50 | 0 | 0.0 | 0.0 | 0.00 | 0.03 | 0.00 | 88 | 1015.6 |
| 20260906040125 | 50 | 0 | 0.0 | 0.0 | 0.00 | 0.03 | 0.00 | 88 | 1015.6 |
| 20260906040004 | 50 | 0 | 0.0 | 0.0 | 0.00 | 0.03 | 0.00 | 88 | 1015.7 |
| 20260906035904 | 50 | 0 | 0.0 | 0.0 | 0.00 | 0.03 | 0.00 | 88 | 1015.7 |
| 20260906035804 | 50 | 0 | 0.0 | 0.0 | 0.00 | 0.03 | 0.00 | 88 | 1015.6 |
| 20260906035704 | 50 | 0 | 0.0 | 0.0 | 0.00 | 0.03 | 0.00 | 88 | 1015.8 |
| 20260906035625 | 50 | 0 | 0.0 | 0.0 | 0.00 | 0.03 | 0.00 | 88 | 1015.8 |
| 20260906035504 | 51 | 0 | 0.0 | 0.0 | 0.00 | 0.03 | 0.00 | 88 | 1015.7 |
| 20260906035405 | 51 | 0 | 0.0 | 0.0 | 0.00 | 0.03 | 0.00 | 88 | 1015.7 |
| 20260906035306 | 51 | 0 | 0.0 | 0.0 | 0.00 | 0.03 | 0.00 | 88 | 1015.9 |
| 20260906035204 | 51 | 0 | 0.0 | 0.0 | 0.00 | 0.03 | 0.00 | 88 | 1015.8 |
| 20260906035104 | 51 | 0 | 0.0 | 0.0 | 0.00 | 0.03 | 0.00 | 88 | 1015.8 |
| 20260906035004 | 51 | 0 | 0.0 | 0.0 | 0.00 | 0.03 | 0.00 | 88 | 1015.9 |
| 20260906034904 | 51 | 0 | 0.0 | 0.0 | 0.00 | 0.03 | 0.00 | 88 | 1015.9 |
| 20260906034804 | 51 | 0 | 0.0 | 0.0 | 0.00 | 0.03 | 0.00 | 88 | 1015.7 |
| 20260906034704 | 51 | 0 | 0.0 | 0.0 | 0.00 | 0.03 | 0.00 | 88 | 1015.7 |
| 20260906034604 | 51 | 0 | 0.0 | 0.0 | 0.00 | 0.03 | 0.00 | 88 | 1015.7 |
| 20260906034504 | 51 | 0 | 0.0 | 0.0 | 0.00 | 0.03 | 0.00 | 88 | 1015.9 |
| 20260906034404 | 51 | 0 | 0.0 | 0.0 | 0.00 | 0.03 | 0.00 | 88 | 1015.9 |
| 20260906034304 | 51 | 0 | 0.0 | 0.0 | 0.00 | 0.03 | 0.00 | 88 | 1015.8 |
| 20260906034204 | 51 | 0 | 0.0 | 0.0 | 0.00 | 0.03 | 0.00 | 88 | 1015.7 |
| 20260906034104 | 51 | 0 | 0.0 | 0.0 | 0.00 | 0.03 | 0.00 | 88 | 1016.0 |
| 20260906034004 | 51 | 0 | 0.0 | 0.0 | 0.00 | 0.03 | 0.00 | 88 | 1015.9 |
| 20260906033925 | 51 | 0 | 0.0 | 0.0 | 0.00 | 0.03 | 0.00 | 88 | 1015.9 |
| 20260906033804 | 51 | 0 | 0.0 | 0.0 | 0.00 | 0.03 | 0.00 | 88 | 1015.9 |
| 20260906033704 | 51 | 0 | 0.0 | 0.0 | 0.00 | 0.03 | 0.00 | 88 | 1015.9 |
| 20260906033604 | 51 | 0 | 0.0 | 0.0 | 0.00 | 0.03 | 0.00 | 88 | 1016.0 |
| 20260906033504 | 51 | 0 | 0.0 | 0.0 | 0.00 | 0.03 | 0.00 | 88 | 1016.0 |
| 20260906033404 | 51 | 0 | 0.0 | 0.0 | 0.00 | 0.03 | 0.00 | 88 | 1015.9 |
| 20260906033304 | 51 | 0 | 0.0 | 0.0 | 0.00 | 0.03 | 0.00 | 88 | 1016.0 |
| 20260906033204 | 51 | 0 | 0.0 | 0.0 | 0.00 | 0.03 | 0.00 | 88 | 1016.1 |
| 20260906033104 | 51 | 0 | 0.0 | 0.0 | 0.00 | 0.03 | 0.00 | 88 | 1016.0 |
| 20260906033004 | 51 | 0 | 0.0 | 0.0 | 0.00 | 0.03 | 0.00 | 88 | 1015.9 |
| 20260906032904 | 51 | 0 | 0.0 | 0.0 | 0.00 | 0.03 | 0.00 | 88 | 1015.9 |
| 20260906032804 | 51 | 0 | 0.0 | 0.0 | 0.00 | 0.03 | 0.00 | 88 | 1016.1 |
| 20260906032704 | 51 | 0 | 0.0 | 0.0 | 0.00 | 0.03 | 0.00 | 88 | 1015.8 |
| 20260906032604 | 51 | 0 | 0.0 | 0.0 | 0.00 | 0.03 | 0.00 | 88 | 1016.0 |
| 20260906032504 | 51 | 0 | 0.0 | 0.0 | 0.00 | 0.03 | 0.00 | 88 | 1016.0 |
| 20260906032404 | 51 | 0 | 0.0 | 0.0 | 0.00 | 0.03 | 0.00 | 88 | 1016.1 |
| 20260906032306 | 51 | 0 | 0.0 | 0.0 | 0.00 | 0.03 | 0.00 | 88 | 1016.2 |
| 20260906032204 | 51 | 0 | 0.0 | 0.0 | 0.00 | 0.03 | 0.00 | 88 | 1016.1 |
| 20260906032104 | 51 | 0 | 0.0 | 0.0 | 0.00 | 0.03 | 0.00 | 88 | 1015.8 |
| 20260906032004 | 51 | 0 | 0.0 | 0.0 | 0.00 | 0.03 | 0.00 | 88 | 1015.8 |
| 20260906031904 | 51 | 0 | 0.0 | 0.0 | 0.00 | 0.03 | 0.00 | 88 | 1015.9 |
| 20260906031804 | 51 | 0 | 0.0 | 0.0 | 0.00 | 0.03 | 0.00 | 88 | 1016.0 |
| 20260906031704 | 51 | 0 | 0.0 | 0.0 | 0.00 | 0.03 | 0.00 | 88 | 1015.9 |
| 20260906031604 | 51 | 0 | 0.0 | 0.0 | 0.00 | 0.03 | 0.00 | 88 | 1016.0 |
| 20260906031504 | 51 | 0 | 0.0 | 0.0 | 0.00 | 0.03 | 0.00 | 88 | 1015.9 |
| 20260906031425 | 51 | 0 | 0.0 | 0.0 | 0.00 | 0.03 | 0.00 | 88 | 1015.9 |
| 20260906031304 | 51 | 0 | 0.0 | 0.0 | 0.00 | 0.03 | 0.00 | 88 | 1015.8 |
| 20260906031204 | 51 | 0 | 0.0 | 0.0 | 0.00 | 0.03 | 0.00 | 88 | 1015.8 |
| 20260906031104 | 51 | 0 | 0.0 | 0.0 | 0.00 | 0.03 | 0.00 | 88 | 1016.1 |
| 20260906031004 | 51 | 0 | 0.0 | 0.0 | 0.00 | 0.03 | 0.00 | 88 | 1015.7 |
| 20260906030904 | 51 | 0 | 0.0 | 0.0 | 0.00 | 0.03 | 0.00 | 89 | 1015.8 |
| 20260906030825 | 51 | 0 | 0.0 | 0.0 | 0.00 | 0.03 | 0.00 | 88 | 1015.8 |
| 20260906030704 | 51 | 0 | 0.0 | 0.0 | 0.00 | 0.03 | 0.00 | 88 | 1015.8 |
| 20260906030604 | 51 | 0 | 0.0 | 0.0 | 0.00 | 0.03 | 0.00 | 89 | 1015.8 |
| 20260906030504 | 51 | 0 | 0.0 | 0.0 | 0.00 | 0.03 | 0.00 | 88 | 1015.7 |
| 20260906030404 | 50 | 0 | 0.0 | 0.0 | 0.00 | 0.03 | 0.00 | 89 | 1016.0 |
| 20260906030304 | 50 | 0 | 0.0 | 0.0 | 0.00 | 0.03 | 0.00 | 88 | 1015.9 |
| 20260906030225 | 50 | 0 | 0.0 | 0.0 | 0.00 | 0.03 | 0.00 | 88 | 1015.9 |
| 20260906030104 | 50 | 0 | 0.0 | 0.0 | 0.00 | 0.03 | 0.00 | 88 | 1015.9 |
| 20260906030004 | 50 | 0 | 0.0 | 0.0 | 0.00 | 0.03 | 0.00 | 88 | 1015.6 |
| 20260906025925 | 50 | 0 | 0.0 | 0.0 | 0.00 | 0.03 | 0.00 | 88 | 1015.6 |
| 20260906025804 | 50 | 0 | 0.0 | 0.0 | 0.00 | 0.03 | 0.00 | 88 | 1015.7 |
| 20260906025704 | 50 | 0 | 0.0 | 0.0 | 0.00 | 0.03 | 0.00 | 88 | 1015.9 |
| 20260906025604 | 50 | 0 | 0.0 | 0.0 | 0.00 | 0.03 | 0.00 | 88 | 1015.8 |
| 20260906025504 | 50 | 0 | 0.0 | 0.0 | 0.00 | 0.03 | 0.00 | 88 | 1015.8 |
| 20260906025404 | 50 | 0 | 0.0 | 0.0 | 0.00 | 0.03 | 0.00 | 88 | 1015.9 |
| 20260906025306 | 50 | 0 | 0.0 | 0.0 | 0.00 | 0.03 | 0.00 | 88 | 1015.9 |
| 20260906025205 | 50 | 0 | 0.0 | 0.0 | 0.00 | 0.03 | 0.00 | 88 | 1015.7 |
| 20260906025104 | 50 | 0 | 0.0 | 0.0 | 0.00 | 0.03 | 0.00 | 88 | 1015.9 |
| 20260906025004 | 50 | 0 | 0.0 | 0.0 | 0.00 | 0.03 | 0.00 | 88 | 1015.7 |
| 20260906024904 | 50 | 0 | 0.0 | 0.0 | 0.00 | 0.03 | 0.00 | 88 | 1015.9 |
| 20260906024804 | 50 | 0 | 0.0 | 0.0 | 0.00 | 0.03 | 0.00 | 88 | 1016.0 |
| 20260906024725 | 50 | 0 | 0.0 | 0.0 | 0.00 | 0.03 | 0.00 | 88 | 1016.0 |
| 20260906024604 | 50 | 0 | 0.0 | 0.0 | 0.00 | 0.03 | 0.00 | 88 | 1015.9 |
| 20260906024504 | 50 | 0 | 0.0 | 0.0 | 0.00 | 0.03 | 0.00 | 88 | 1015.9 |
| 20260906024404 | 50 | 0 | 0.0 | 0.0 | 0.00 | 0.03 | 0.00 | 88 | 1016.1 |
| 20260906024304 | 50 | 0 | 0.0 | 0.0 | 0.00 | 0.03 | 0.00 | 88 | 1015.8 |
| 20260906024225 | 50 | 0 | 0.0 | 0.0 | 0.00 | 0.03 | 0.00 | 88 | 1015.8 |
| 20260906024104 | 50 | 0 | 0.0 | 0.0 | 0.00 | 0.03 | 0.00 | 88 | 1016.0 |
| 20260906024004 | 50 | 0 | 0.0 | 0.0 | 0.00 | 0.03 | 0.00 | 88 | 1015.8 |
| 20260906023904 | 50 | 0 | 0.0 | 0.0 | 0.00 | 0.03 | 0.00 | 88 | 1015.9 |
| 20260906023805 | 50 | 0 | 0.0 | 0.0 | 0.00 | 0.03 | 0.00 | 88 | 1016.0 |
| 20260906023704 | 50 | 0 | 0.0 | 0.0 | 0.00 | 0.03 | 0.00 | 88 | 1015.8 |
| 20260906023604 | 50 | 0 | 0.0 | 0.0 | 0.00 | 0.03 | 0.00 | 88 | 1015.7 |
| 20260906023504 | 50 | 0 | 0.0 | 0.0 | 0.00 | 0.03 | 0.00 | 88 | 1015.8 |
| 20260906023404 | 50 | 0 | 0.0 | 0.0 | 0.00 | 0.03 | 0.00 | 88 | 1015.8 |
| 20260906023304 | 50 | 0 | 0.0 | 0.0 | 0.00 | 0.03 | 0.00 | 88 | 1015.9 |
| 20260906023204 | 50 | 0 | 0.0 | 0.0 | 0.00 | 0.03 | 0.00 | 88 | 1016.0 |
| 20260906023104 | 50 | 0 | 0.0 | 0.0 | 0.00 | 0.03 | 0.00 | 88 | 1015.8 |
| 20260906023004 | 50 | 0 | 0.0 | 0.0 | 0.00 | 0.03 | 0.00 | 88 | 1015.8 |
| 20260906022904 | 50 | 0 | 0.0 | 0.0 | 0.00 | 0.03 | 0.00 | 88 | 1015.8 |
| 20260906022804 | 50 | 0 | 0.0 | 0.0 | 0.00 | 0.03 | 0.00 | 88 | 1015.8 |
| 20260906022704 | 50 | 0 | 0.0 | 0.0 | 0.00 | 0.03 | 0.00 | 88 | 1015.9 |
| 20260906022604 | 50 | 0 | 0.0 | 0.0 | 0.00 | 0.03 | 0.00 | 88 | 1015.9 |
| 20260906022504 | 50 | 0 | 0.0 | 0.0 | 0.00 | 0.03 | 0.00 | 88 | 1016.0 |
| 20260906022404 | 50 | 0 | 0.0 | 0.0 | 0.00 | 0.03 | 0.00 | 88 | 1015.9 |
| 20260906022306 | 50 | 0 | 0.0 | 0.0 | 0.00 | 0.03 | 0.00 | 88 | 1015.7 |
| 20260906022204 | 50 | 0 | 0.0 | 0.0 | 0.00 | 0.03 | 0.00 | 88 | 1015.7 |
| 20260906022125 | 50 | 0 | 0.0 | 0.0 | 0.00 | 0.03 | 0.00 | 88 | 1015.7 |
| 20260906022004 | 50 | 0 | 0.0 | 0.0 | 0.00 | 0.03 | 0.00 | 88 | 1015.8 |
| 20260906021904 | 50 | 0 | 0.0 | 0.0 | 0.00 | 0.03 | 0.00 | 88 | 1015.6 |
| 20260906021825 | 50 | 0 | 0.0 | 0.0 | 0.00 | 0.03 | 0.00 | 88 | 1015.6 |
| 20260906021704 | 50 | 0 | 0.0 | 0.0 | 0.00 | 0.03 | 0.00 | 88 | 1015.7 |
| 20260906021604 | 50 | 0 | 0.0 | 0.0 | 0.00 | 0.03 | 0.00 | 88 | 1015.7 |
| 20260906021525 | 50 | 0 | 0.0 | 0.0 | 0.00 | 0.03 | 0.00 | 88 | 1015.7 |
| 20260906021425 | 50 | 0 | 0.0 | 0.0 | 0.00 | 0.03 | 0.00 | 88 | 1015.5 |
| 20260906021304 | 50 | 0 | 0.0 | 0.0 | 0.00 | 0.03 | 0.00 | 88 | 1015.8 |
| 20260906021204 | 51 | 0 | 0.0 | 0.0 | 0.00 | 0.03 | 0.00 | 88 | 1015.9 |
| 20260906021104 | 51 | 0 | 0.0 | 0.0 | 0.00 | 0.03 | 0.00 | 88 | 1015.5 |
| 20260906021004 | 51 | 0 | 0.0 | 0.0 | 0.00 | 0.03 | 0.00 | 88 | 1015.8 |
| 20260906020904 | 50 | 0 | 0.0 | 0.0 | 0.00 | 0.03 | 0.00 | 88 | 1015.6 |
| 20260906020804 | 50 | 0 | 0.0 | 0.0 | 0.00 | 0.03 | 0.00 | 88 | 1015.9 |
| 20260906020704 | 50 | 0 | 0.0 | 0.0 | 0.00 | 0.03 | 0.00 | 88 | 1015.9 |
| 20260906020604 | 50 | 0 | 0.0 | 0.0 | 0.00 | 0.03 | 0.00 | 88 | 1015.7 |
| 20260906020525 | 50 | 0 | 0.0 | 0.0 | 0.00 | 0.03 | 0.00 | 88 | 1015.7 |
| 20260906020425 | 50 | 0 | 0.0 | 0.0 | 0.00 | 0.03 | 0.00 | 88 | 1015.7 |
| 20260906020304 | 50 | 0 | 0.0 | 0.0 | 0.00 | 0.03 | 0.00 | 88 | 1015.9 |
| 20260906020204 | 50 | 0 | 0.0 | 0.0 | 0.00 | 0.03 | 0.00 | 88 | 1015.7 |
| 20260906020104 | 50 | 0 | 0.0 | 0.0 | 0.00 | 0.03 | 0.00 | 88 | 1015.7 |
| 20260906020005 | 50 | 0 | 0.0 | 0.0 | 0.00 | 0.03 | 0.00 | 88 | 1015.7 |
| 20260906015904 | 50 | 0 | 0.0 | 0.0 | 0.00 | 0.03 | 0.00 | 88 | 1015.6 |
| 20260906015804 | 51 | 0 | 0.0 | 0.0 | 0.00 | 0.03 | 0.00 | 88 | 1015.8 |
| 20260906015725 | 51 | 0 | 0.0 | 0.0 | 0.00 | 0.03 | 0.00 | 88 | 1015.8 |
| 20260906015625 | 51 | 0 | 0.0 | 0.0 | 0.00 | 0.03 | 0.00 | 88 | 1015.6 |
| 20260906015525 | 51 | 0 | 0.0 | 0.0 | 0.00 | 0.03 | 0.00 | 88 | 1015.6 |
| 20260906015404 | 51 | 0 | 0.0 | 0.0 | 0.00 | 0.03 | 0.00 | 88 | 1015.7 |
| 20260906015306 | 51 | 0 | 0.0 | 0.0 | 0.00 | 0.03 | 0.00 | 88 | 1015.6 |
| 20260906015204 | 51 | 0 | 0.0 | 0.0 | 0.00 | 0.03 | 0.00 | 88 | 1015.6 |
| 20260906015104 | 51 | 0 | 0.0 | 0.0 | 0.00 | 0.03 | 0.00 | 88 | 1015.6 |
| 20260906015004 | 51 | 0 | 0.0 | 0.0 | 0.00 | 0.03 | 0.00 | 88 | 1015.7 |
| 20260906014904 | 51 | 0 | 0.0 | 0.0 | 0.00 | 0.03 | 0.00 | 88 | 1015.6 |
| 20260906014804 | 51 | 0 | 0.0 | 0.0 | 0.00 | 0.03 | 0.00 | 88 | 1015.7 |
| 20260906014704 | 51 | 0 | 0.0 | 0.0 | 0.00 | 0.03 | 0.00 | 88 | 1015.4 |
| 20260906014604 | 51 | 0 | 0.0 | 0.0 | 0.00 | 0.03 | 0.00 | 88 | 1015.6 |
| 20260906014504 | 51 | 0 | 0.0 | 0.0 | 0.00 | 0.03 | 0.00 | 88 | 1015.5 |
| 20260906014404 | 51 | 0 | 0.0 | 0.0 | 0.00 | 0.03 | 0.00 | 88 | 1015.7 |
| 20260906014304 | 51 | 0 | 0.0 | 0.0 | 0.00 | 0.03 | 0.00 | 88 | 1015.6 |
| 20260906014204 | 51 | 0 | 0.0 | 0.0 | 0.00 | 0.03 | 0.00 | 88 | 1015.6 |
| 20260906014104 | 51 | 0 | 0.0 | 0.0 | 0.00 | 0.03 | 0.00 | 88 | 1015.7 |
| 20260906014004 | 51 | 0 | 0.0 | 0.0 | 0.00 | 0.03 | 0.00 | 88 | 1015.8 |
| 20260906013904 | 51 | 0 | 0.0 | 0.0 | 0.00 | 0.03 | 0.00 | 88 | 1015.7 |
| 20260906013804 | 51 | 0 | 0.0 | 0.0 | 0.00 | 0.03 | 0.00 | 88 | 1015.7 |
| 20260906013725 | 51 | 0 | 0.0 | 0.0 | 0.00 | 0.03 | 0.00 | 88 | 1015.7 |
| 20260906013604 | 51 | 0 | 0.0 | 0.0 | 0.00 | 0.03 | 0.00 | 88 | 1015.4 |
| 20260906013504 | 51 | 0 | 0.0 | 0.0 | 0.00 | 0.03 | 0.00 | 88 | 1015.7 |
| 20260906013404 | 51 | 0 | 0.0 | 0.0 | 0.00 | 0.03 | 0.00 | 88 | 1015.5 |
| 20260906013304 | 51 | 0 | 0.0 | 0.0 | 0.00 | 0.03 | 0.00 | 88 | 1015.8 |
| 20260906013204 | 51 | 0 | 0.0 | 0.0 | 0.00 | 0.03 | 0.00 | 88 | 1015.7 |
| 20260906013125 | 51 | 0 | 0.0 | 0.0 | 0.00 | 0.03 | 0.00 | 88 | 1015.7 |
| 20260906013004 | 51 | 0 | 0.0 | 0.0 | 0.00 | 0.03 | 0.00 | 88 | 1015.8 |
| 20260906012925 | 51 | 0 | 0.0 | 0.0 | 0.00 | 0.03 | 0.00 | 88 | 1015.8 |
| 20260906012804 | 51 | 0 | 0.0 | 0.0 | 0.00 | 0.03 | 0.00 | 88 | 1015.6 |
| 20260906012704 | 51 | 0 | 0.0 | 0.0 | 0.00 | 0.03 | 0.00 | 88 | 1015.7 |
| 20260906012604 | 51 | 0 | 0.0 | 0.0 | 0.00 | 0.03 | 0.00 | 88 | 1015.7 |
| 20260906012504 | 51 | 0 | 0.0 | 0.0 | 0.00 | 0.03 | 0.00 | 88 | 1015.6 |
| 20260906012404 | 51 | 0 | 0.0 | 0.0 | 0.00 | 0.03 | 0.00 | 88 | 1015.7 |
| 20260906012306 | 51 | 0 | 0.0 | 0.0 | 0.00 | 0.03 | 0.00 | 88 | 1015.5 |
| 20260906012204 | 51 | 0 | 0.0 | 0.0 | 0.00 | 0.03 | 0.00 | 88 | 1015.6 |
| 20260906012104 | 51 | 0 | 0.0 | 0.0 | 0.00 | 0.03 | 0.00 | 88 | 1015.6 |
| 20260906012004 | 51 | 0 | 0.0 | 0.0 | 0.00 | 0.03 | 0.00 | 88 | 1015.5 |
| 20260906011904 | 51 | 0 | 0.0 | 0.0 | 0.00 | 0.03 | 0.00 | 88 | 1015.9 |
| 20260906011804 | 51 | 0 | 0.0 | 0.0 | 0.00 | 0.03 | 0.00 | 88 | 1015.5 |
| 20260906011704 | 51 | 0 | 0.0 | 0.0 | 0.00 | 0.03 | 0.00 | 87 | 1015.8 |
| 20260906011604 | 51 | 0 | 0.0 | 0.0 | 0.00 | 0.03 | 0.00 | 87 | 1015.7 |
| 20260906011504 | 51 | 0 | 0.0 | 0.0 | 0.00 | 0.03 | 0.00 | 87 | 1015.6 |
| 20260906011404 | 51 | 0 | 0.0 | 0.0 | 0.00 | 0.03 | 0.00 | 87 | 1015.7 |
| 20260906011304 | 51 | 0 | 0.0 | 0.0 | 0.00 | 0.03 | 0.00 | 87 | 1015.6 |
| 20260906011225 | 51 | 0 | 0.0 | 0.0 | 0.00 | 0.03 | 0.00 | 87 | 1015.6 |
| 20260906011125 | 51 | 0 | 0.0 | 0.0 | 0.00 | 0.03 | 0.00 | 87 | 1015.8 |
| 20260906011025 | 51 | 0 | 0.0 | 0.0 | 0.00 | 0.03 | 0.00 | 87 | 1015.9 |
| 20260906010904 | 51 | 0 | 0.0 | 0.0 | 0.00 | 0.03 | 0.00 | 87 | 1015.6 |
| 20260906010804 | 51 | 0 | 0.0 | 0.0 | 0.00 | 0.03 | 0.00 | 87 | 1015.7 |
| 20260906010725 | 51 | 0 | 0.0 | 0.0 | 0.00 | 0.03 | 0.00 | 87 | 1015.7 |
| 20260906010625 | 51 | 0 | 0.0 | 0.0 | 0.00 | 0.03 | 0.00 | 87 | 1015.8 |
| 20260906010504 | 51 | 0 | 0.0 | 0.0 | 0.00 | 0.03 | 0.00 | 87 | 1015.6 |
| 20260906010404 | 51 | 0 | 0.0 | 0.0 | 0.00 | 0.03 | 0.00 | 87 | 1015.8 |
| 20260906010304 | 51 | 0 | 0.0 | 0.0 | 0.00 | 0.03 | 0.00 | 87 | 1015.8 |
| 20260906010225 | 51 | 0 | 0.0 | 0.0 | 0.00 | 0.03 | 0.00 | 87 | 1015.8 |
| 20260906010125 | 51 | 0 | 0.0 | 0.0 | 0.00 | 0.03 | 0.00 | 87 | 1015.8 |
| 20260906010004 | 51 | 0 | 0.0 | 0.0 | 0.00 | 0.03 | 0.00 | 87 | 1015.8 |
| 20260906005904 | 51 | 0 | 0.0 | 0.0 | 0.00 | 0.03 | 0.00 | 87 | 1015.9 |
| 20260906005804 | 51 | 0 | 0.0 | 0.0 | 0.00 | 0.03 | 0.00 | 87 | 1015.8 |
| 20260906005704 | 51 | 0 | 0.0 | 0.0 | 0.00 | 0.03 | 0.00 | 87 | 1015.8 |
| 20260906005605 | 51 | 0 | 0.0 | 0.0 | 0.00 | 0.03 | 0.00 | 87 | 1015.9 |
| 20260906005525 | 51 | 0 | 0.0 | 0.0 | 0.00 | 0.03 | 0.00 | 87 | 1015.9 |
| 20260906005404 | 51 | 0 | 0.0 | 0.0 | 0.00 | 0.03 | 0.00 | 88 | 1015.9 |
| 20260906005306 | 51 | 0 | 0.0 | 0.0 | 0.00 | 0.03 | 0.00 | 87 | 1015.7 |
| 20260906005204 | 51 | 0 | 0.0 | 0.0 | 0.00 | 0.03 | 0.00 | 87 | 1015.8 |
| 20260906005104 | 51 | 0 | 0.0 | 0.0 | 0.00 | 0.03 | 0.00 | 87 | 1015.7 |
| 20260906005004 | 51 | 0 | 0.0 | 0.0 | 0.00 | 0.03 | 0.00 | 87 | 1015.8 |
| 20260906004904 | 51 | 0 | 0.0 | 0.0 | 0.00 | 0.03 | 0.00 | 87 | 1015.8 |
| 20260906004804 | 51 | 0 | 0.0 | 0.0 | 0.00 | 0.03 | 0.00 | 87 | 1015.7 |
| 20260906004704 | 51 | 0 | 0.0 | 0.0 | 0.00 | 0.03 | 0.00 | 87 | 1015.6 |
| 20260906004604 | 51 | 0 | 0.0 | 0.0 | 0.00 | 0.03 | 0.00 | 87 | 1015.8 |
| 20260906004504 | 51 | 0 | 0.0 | 0.0 | 0.00 | 0.03 | 0.00 | 87 | 1015.7 |
| 20260906004404 | 51 | 0 | 0.0 | 0.0 | 0.00 | 0.03 | 0.00 | 87 | 1015.7 |
| 20260906004304 | 51 | 0 | 0.0 | 0.0 | 0.00 | 0.03 | 0.00 | 87 | 1015.6 |
| 20260906004204 | 51 | 0 | 0.0 | 0.0 | 0.00 | 0.03 | 0.00 | 87 | 1015.7 |
| 20260906004104 | 51 | 0 | 0.0 | 0.0 | 0.00 | 0.03 | 0.00 | 87 | 1015.7 |
| 20260906004004 | 51 | 0 | 0.0 | 0.0 | 0.00 | 0.03 | 0.00 | 87 | 1015.9 |
| 20260906003904 | 51 | 0 | 0.0 | 0.0 | 0.00 | 0.03 | 0.00 | 87 | 1015.8 |
| 20260906003804 | 51 | 0 | 0.0 | 0.0 | 0.00 | 0.03 | 0.00 | 87 | 1015.7 |
| 20260906003704 | 51 | 0 | 0.0 | 0.0 | 0.00 | 0.03 | 0.00 | 88 | 1015.8 |
| 20260906003604 | 51 | 0 | 0.0 | 0.0 | 0.00 | 0.03 | 0.00 | 87 | 1015.9 |
| 20260906003504 | 51 | 0 | 0.0 | 0.0 | 0.00 | 0.03 | 0.00 | 87 | 1015.8 |
| 20260906003425 | 51 | 0 | 0.0 | 0.0 | 0.00 | 0.03 | 0.00 | 87 | 1015.8 |
| 20260906003304 | 51 | 0 | 0.0 | 0.0 | 0.00 | 0.03 | 0.00 | 87 | 1015.7 |
| 20260906003204 | 52 | 0 | 0.0 | 0.0 | 0.00 | 0.03 | 0.00 | 87 | 1015.7 |
| 20260906003104 | 52 | 0 | 0.0 | 0.0 | 0.00 | 0.03 | 0.00 | 87 | 1015.5 |
| 20260906003004 | 52 | 0 | 0.0 | 0.0 | 0.00 | 0.03 | 0.00 | 87 | 1015.7 |
| 20260906002904 | 52 | 0 | 0.0 | 0.0 | 0.00 | 0.03 | 0.00 | 87 | 1015.8 |
| 20260906002804 | 52 | 0 | 0.0 | 0.0 | 0.00 | 0.03 | 0.00 | 87 | 1015.7 |
| 20260906002704 | 52 | 0 | 0.0 | 0.0 | 0.00 | 0.03 | 0.00 | 87 | 1016.0 |
| 20260906002625 | 52 | 0 | 0.0 | 0.0 | 0.00 | 0.03 | 0.00 | 87 | 1016.0 |
| 20260906002504 | 52 | 0 | 0.0 | 0.0 | 0.00 | 0.03 | 0.00 | 87 | 1015.4 |
| 20260906002425 | 52 | 0 | 0.0 | 0.0 | 0.00 | 0.03 | 0.00 | 87 | 1015.4 |
| 20260906002306 | 52 | 0 | 0.0 | 0.0 | 0.00 | 0.03 | 0.00 | 87 | 1015.6 |
| 20260906002204 | 51 | 0 | 0.0 | 0.0 | 0.00 | 0.03 | 0.00 | 87 | 1015.7 |
| 20260906002104 | 51 | 0 | 0.0 | 0.0 | 0.00 | 0.03 | 0.00 | 87 | 1015.8 |
| 20260906002004 | 51 | 0 | 0.0 | 0.0 | 0.00 | 0.03 | 0.00 | 87 | 1015.7 |
| 20260906001904 | 51 | 0 | 0.0 | 0.0 | 0.00 | 0.03 | 0.00 | 87 | 1015.5 |
| 20260906001825 | 51 | 0 | 0.0 | 0.0 | 0.00 | 0.03 | 0.00 | 87 | 1015.5 |
| 20260906001704 | 51 | 0 | 0.0 | 0.0 | 0.00 | 0.03 | 0.00 | 87 | 1015.6 |
| 20260906001604 | 51 | 0 | 0.0 | 0.0 | 0.00 | 0.03 | 0.00 | 87 | 1015.8 |
| 20260906001504 | 51 | 0 | 0.0 | 0.0 | 0.00 | 0.03 | 0.00 | 87 | 1015.6 |
| 20260906001404 | 51 | 0 | 0.0 | 0.0 | 0.00 | 0.03 | 0.00 | 87 | 1015.5 |
| 20260906001325 | 51 | 0 | 0.0 | 0.0 | 0.00 | 0.03 | 0.00 | 87 | 1015.5 |
| 20260906001204 | 51 | 0 | 0.0 | 0.0 | 0.00 | 0.03 | 0.00 | 87 | 1015.9 |
| 20260906001104 | 51 | 0 | 0.0 | 0.0 | 0.00 | 0.03 | 0.00 | 87 | 1015.8 |
| 20260906001004 | 51 | 0 | 0.0 | 0.0 | 0.00 | 0.03 | 0.00 | 87 | 1015.6 |
| 20260906000904 | 51 | 0 | 0.0 | 0.0 | 0.00 | 0.03 | 0.00 | 87 | 1015.9 |
| 20260906000804 | 51 | 0 | 0.0 | 0.0 | 0.00 | 0.03 | 0.00 | 86 | 1015.6 |
| 20260906000704 | 51 | 0 | 0.0 | 0.0 | 0.00 | 0.03 | 0.00 | 86 | 1015.8 |
| 20260906000604 | 51 | 0 | 0.0 | 0.0 | 0.00 | 0.03 | 0.00 | 86 | 1015.7 |
| 20260906000504 | 51 | 0 | 0.0 | 0.0 | 0.00 | 0.03 | 0.00 | 87 | 1015.8 |
| 20260906000405 | 51 | 0 | 0.0 | 0.0 | 0.00 | 0.03 | 0.00 | 86 | 1015.7 |
| 20260906000304 | 51 | 0 | 0.0 | 0.0 | 0.00 | 0.03 | 0.00 | 86 | 1015.6 |
| 20260906000226 | 51 | 0 | 0.0 | 0.0 | 0.00 | 0.03 | 0.00 | 86 | 1015.6 |
| 20260906000104 | 51 | 0 | 0.0 | 0.0 | 0.00 | 0.03 | 0.00 | 86 | 1015.5 |
| 20260906000004 | 51 | 0 | 0.0 | 0.0 | 0.00 | 0.03 | 0.00 | 86 | 1015.7 |
| 20260905235925 | 51 | 0 | 0.0 | 0.0 | 0.00 | 0.03 | 0.00 | 86 | 1015.7 |
| 20260905235804 | 51 | 0 | 0.0 | 0.0 | 0.00 | 0.03 | 0.00 | 86 | 1015.6 |
| 20260905235704 | 51 | 0 | 0.0 | 0.0 | 0.00 | 0.03 | 0.00 | 86 | 1015.8 |
| 20260905235604 | 51 | 0 | 0.0 | 0.0 | 0.00 | 0.03 | 0.00 | 86 | 1015.7 |
| 20260905235504 | 51 | 0 | 0.0 | 0.0 | 0.00 | 0.03 | 0.00 | 86 | 1015.7 |
| 20260905235404 | 51 | 0 | 0.0 | 0.0 | 0.00 | 0.03 | 0.00 | 86 | 1015.7 |
| 20260905235306 | 51 | 0 | 0.0 | 0.0 | 0.00 | 0.03 | 0.00 | 86 | 1015.7 |
| 20260905235204 | 51 | 0 | 0.0 | 0.0 | 0.00 | 0.03 | 0.00 | 86 | 1015.8 |
| 20260905235125 | 51 | 0 | 0.0 | 0.0 | 0.00 | 0.03 | 0.00 | 85 | 1015.8 |
| 20260905235004 | 51 | 0 | 0.0 | 0.0 | 0.00 | 0.03 | 0.00 | 85 | 1015.8 |
| 20260905234904 | 51 | 0 | 0.0 | 0.0 | 0.00 | 0.03 | 0.00 | 85 | 1015.7 |
| 20260905234804 | 52 | 0 | 0.0 | 0.0 | 0.00 | 0.03 | 0.00 | 85 | 1015.8 |
| 20260905234704 | 52 | 0 | 0.0 | 0.0 | 0.00 | 0.03 | 0.00 | 85 | 1015.8 |
| 20260905234604 | 52 | 0 | 0.0 | 0.0 | 0.00 | 0.03 | 0.00 | 85 | 1015.7 |
| 20260905234504 | 52 | 0 | 0.0 | 0.0 | 0.00 | 0.03 | 0.00 | 85 | 1015.7 |
| 20260905234404 | 52 | 0 | 0.0 | 0.0 | 0.00 | 0.03 | 0.00 | 85 | 1015.6 |
| 20260905234325 | 52 | 0 | 0.0 | 0.0 | 0.00 | 0.03 | 0.00 | 85 | 1015.6 |
| 20260905234204 | 52 | 0 | 0.0 | 0.0 | 0.00 | 0.03 | 0.00 | 85 | 1015.6 |
| 20260905234104 | 52 | 0 | 0.0 | 0.0 | 0.00 | 0.03 | 0.00 | 85 | 1015.9 |
| 20260905234004 | 52 | 0 | 0.0 | 0.0 | 0.00 | 0.03 | 0.00 | 85 | 1015.9 |
| 20260905233904 | 52 | 0 | 0.0 | 0.0 | 0.00 | 0.03 | 0.00 | 85 | 1015.8 |
| 20260905233804 | 52 | 0 | 0.0 | 0.0 | 0.00 | 0.03 | 0.00 | 85 | 1015.9 |
| 20260905233704 | 52 | 0 | 0.0 | 0.0 | 0.00 | 0.03 | 0.00 | 85 | 1015.6 |
| 20260905233604 | 51 | 0 | 0.0 | 0.0 | 0.00 | 0.03 | 0.00 | 85 | 1015.7 |
| 20260905233525 | 51 | 0 | 0.0 | 0.0 | 0.00 | 0.03 | 0.00 | 84 | 1015.7 |
| 20260905233404 | 51 | 0 | 0.0 | 0.0 | 0.00 | 0.03 | 0.00 | 84 | 1015.5 |
| 20260905233304 | 51 | 0 | 0.0 | 0.0 | 0.00 | 0.03 | 0.00 | 83 | 1015.7 |
| 20260905233204 | 51 | 0 | 0.0 | 0.0 | 0.00 | 0.03 | 0.00 | 83 | 1015.8 |
| 20260905233104 | 51 | 0 | 0.0 | 0.0 | 0.00 | 0.03 | 0.00 | 83 | 1015.5 |
| 20260905233004 | 51 | 0 | 0.0 | 0.0 | 0.00 | 0.03 | 0.00 | 83 | 1015.3 |
| 20260905232904 | 52 | 0 | 0.0 | 0.0 | 0.00 | 0.03 | 0.00 | 83 | 1015.7 |
| 20260905232804 | 52 | 0 | 0.0 | 0.0 | 0.00 | 0.03 | 0.00 | 83 | 1015.4 |
| 20260905232704 | 52 | 0 | 0.0 | 0.0 | 0.00 | 0.03 | 0.00 | 83 | 1015.5 |
| 20260905232604 | 52 | 0 | 0.0 | 0.0 | 0.00 | 0.03 | 0.00 | 83 | 1015.5 |
| 20260905232504 | 52 | 0 | 0.0 | 0.0 | 0.00 | 0.03 | 0.00 | 83 | 1015.7 |
| 20260905232404 | 52 | 0 | 0.0 | 0.0 | 0.00 | 0.03 | 0.00 | 83 | 1015.6 |
| 20260905232306 | 52 | 0 | 0.0 | 0.0 | 0.00 | 0.03 | 0.00 | 83 | 1015.6 |
| 20260905232204 | 52 | 0 | 0.0 | 0.0 | 0.00 | 0.03 | 0.00 | 82 | 1015.5 |
| 20260905232125 | 52 | 0 | 0.0 | 0.0 | 0.00 | 0.03 | 0.00 | 82 | 1015.5 |
| 20260905232004 | 52 | 0 | 0.0 | 0.0 | 0.00 | 0.03 | 0.00 | 82 | 1015.6 |
| 20260905231904 | 52 | 0 | 0.0 | 0.0 | 0.00 | 0.03 | 0.00 | 82 | 1015.5 |
| 20260905231804 | 52 | 0 | 0.0 | 0.0 | 0.00 | 0.03 | 0.00 | 82 | 1015.4 |
| 20260905231725 | 52 | 0 | 0.0 | 0.0 | 0.00 | 0.03 | 0.00 | 81 | 1015.4 |
| 20260905231604 | 53 | 0 | 0.0 | 0.0 | 0.00 | 0.03 | 0.00 | 81 | 1015.5 |
| 20260905231504 | 53 | 0 | 0.0 | 0.0 | 0.00 | 0.03 | 0.00 | 81 | 1015.6 |
| 20260905231404 | 53 | 0 | 0.0 | 0.0 | 0.00 | 0.03 | 0.00 | 81 | 1015.7 |
| 20260905231304 | 53 | 0 | 0.0 | 0.0 | 0.00 | 0.03 | 0.00 | 81 | 1015.6 |
| 20260905231204 | 53 | 0 | 0.0 | 0.0 | 0.00 | 0.03 | 0.00 | 81 | 1015.5 |
| 20260905231104 | 53 | 0 | 0.0 | 0.0 | 0.00 | 0.03 | 0.00 | 81 | 1015.5 |
| 20260905231004 | 53 | 0 | 0.0 | 0.0 | 0.00 | 0.03 | 0.00 | 81 | 1015.5 |
| 20260905230904 | 53 | 0 | 0.0 | 0.0 | 0.00 | 0.03 | 0.00 | 80 | 1015.6 |
| 20260905230804 | 53 | 0 | 0.0 | 0.0 | 0.00 | 0.03 | 0.00 | 80 | 1015.4 |
| 20260905230704 | 54 | 0 | 0.0 | 0.0 | 0.00 | 0.03 | 0.00 | 80 | 1015.5 |
| 20260905230604 | 54 | 0 | 0.0 | 0.0 | 0.00 | 0.03 | 0.00 | 80 | 1015.7 |
| 20260905230504 | 54 | 0 | 0.0 | 0.0 | 0.00 | 0.03 | 0.00 | 80 | 1015.7 |
| 20260905230404 | 54 | 0 | 0.0 | 0.0 | 0.00 | 0.03 | 0.00 | 80 | 1015.7 |
| 20260905230304 | 54 | 0 | 0.0 | 0.0 | 0.00 | 0.03 | 0.00 | 80 | 1015.7 |
| 20260905230225 | 54 | 0 | 0.0 | 0.0 | 0.00 | 0.03 | 0.00 | 80 | 1015.7 |
| 20260905230104 | 54 | 0 | 0.0 | 0.0 | 0.00 | 0.03 | 0.00 | 79 | 1015.6 |
| 20260905230004 | 54 | 0 | 0.0 | 0.0 | 0.00 | 0.03 | 0.00 | 79 | 1015.8 |
| 20260905225904 | 55 | 0 | 0.0 | 0.0 | 0.00 | 0.03 | 0.00 | 79 | 1015.7 |
| 20260905225804 | 55 | 0 | 0.0 | 0.0 | 0.00 | 0.03 | 0.00 | 79 | 1015.6 |
| 20260905225704 | 55 | 0 | 0.0 | 0.0 | 0.00 | 0.03 | 0.00 | 79 | 1015.6 |
| 20260905225604 | 55 | 0 | 0.0 | 0.0 | 0.00 | 0.03 | 0.00 | 79 | 1015.8 |
| 20260905225504 | 55 | 0 | 0.0 | 0.0 | 0.00 | 0.03 | 0.00 | 79 | 1015.7 |
| 20260905225404 | 55 | 0 | 0.0 | 0.0 | 0.00 | 0.03 | 0.00 | 79 | 1015.5 |
| 20260905225305 | 55 | 0 | 0.0 | 0.0 | 0.00 | 0.03 | 0.00 | 79 | 1015.7 |
| 20260905225204 | 55 | 0 | 0.0 | 0.0 | 0.00 | 0.03 | 0.00 | 79 | 1015.8 |
| 20260905225125 | 55 | 0 | 0.0 | 0.0 | 0.00 | 0.03 | 0.00 | 79 | 1015.8 |
| 20260905225004 | 55 | 0 | 0.0 | 0.0 | 0.00 | 0.03 | 0.00 | 79 | 1015.9 |
| 20260905224904 | 56 | 0 | 0.0 | 0.0 | 0.00 | 0.03 | 0.00 | 79 | 1015.8 |
| 20260905224804 | 56 | 0 | 0.0 | 0.0 | 0.00 | 0.03 | 0.00 | 79 | 1015.7 |
| 20260905224704 | 56 | 0 | 0.0 | 0.0 | 0.00 | 0.03 | 0.00 | 79 | 1015.8 |
| 20260905224604 | 56 | 0 | 0.0 | 0.0 | 0.00 | 0.03 | 0.00 | 79 | 1015.7 |
| 20260905224504 | 56 | 0 | 0.0 | 0.0 | 0.00 | 0.03 | 0.00 | 79 | 1015.7 |
| 20260905224404 | 56 | 0 | 0.0 | 0.0 | 0.00 | 0.03 | 0.00 | 79 | 1015.8 |
| 20260905224304 | 56 | 0 | 0.0 | 0.0 | 0.00 | 0.03 | 0.00 | 79 | 1015.8 |
| 20260905224225 | 56 | 0 | 0.0 | 0.0 | 0.00 | 0.03 | 0.00 | 79 | 1015.8 |
| 20260905224104 | 56 | 0 | 0.0 | 0.0 | 0.00 | 0.03 | 0.00 | 79 | 1015.6 |
| 20260905224004 | 56 | 0 | 0.0 | 0.0 | 0.00 | 0.03 | 0.00 | 79 | 1015.9 |
| 20260905223925 | 56 | 0 | 0.0 | 0.0 | 0.00 | 0.03 | 0.00 | 79 | 1015.9 |
| 20260905223825 | 56 | 0 | 0.0 | 0.0 | 0.00 | 0.03 | 0.00 | 79 | 1015.7 |
| 20260905223704 | 56 | 0 | 0.0 | 0.0 | 0.00 | 0.03 | 0.00 | 79 | 1015.9 |
| 20260905223625 | 56 | 0 | 0.0 | 0.0 | 0.00 | 0.03 | 0.00 | 79 | 1015.9 |
| 20260905223504 | 56 | 0 | 0.0 | 0.0 | 0.00 | 0.03 | 0.00 | 79 | 1015.7 |
| 20260905223404 | 56 | 0 | 0.0 | 0.0 | 0.00 | 0.03 | 0.00 | 79 | 1015.9 |
| 20260905223304 | 56 | 0 | 0.0 | 0.0 | 0.00 | 0.03 | 0.00 | 79 | 1015.6 |
| 20260905223204 | 56 | 0 | 0.0 | 0.0 | 0.00 | 0.03 | 0.00 | 79 | 1015.9 |
| 20260905223104 | 56 | 0 | 0.0 | 0.0 | 0.00 | 0.03 | 0.00 | 79 | 1015.8 |
| 20260905223004 | 56 | 0 | 0.0 | 0.0 | 0.00 | 0.03 | 0.00 | 79 | 1015.9 |
| 20260905222904 | 56 | 0 | 0.0 | 0.0 | 0.00 | 0.03 | 0.00 | 79 | 1015.9 |
| 20260905222804 | 56 | 0 | 0.0 | 0.0 | 0.00 | 0.03 | 0.00 | 79 | 1016.1 |
| 20260905222705 | 56 | 0 | 0.0 | 0.0 | 0.00 | 0.03 | 0.00 | 79 | 1016.1 |
| 20260905222604 | 56 | 0 | 0.0 | 0.0 | 0.00 | 0.03 | 0.00 | 79 | 1015.9 |
| 20260905222504 | 56 | 0 | 0.0 | 0.0 | 0.00 | 0.03 | 0.00 | 79 | 1015.8 |
| 20260905222404 | 56 | 0 | 0.0 | 0.0 | 0.00 | 0.03 | 0.00 | 79 | 1015.8 |
| 20260905222306 | 56 | 0 | 0.0 | 0.0 | 0.00 | 0.03 | 0.00 | 79 | 1015.8 |
| 20260905222204 | 56 | 0 | 0.0 | 0.0 | 0.00 | 0.03 | 0.00 | 79 | 1016.0 |
| 20260905222104 | 56 | 0 | 0.0 | 0.0 | 0.00 | 0.03 | 0.00 | 79 | 1016.0 |
| 20260905222004 | 56 | 0 | 0.0 | 0.0 | 0.00 | 0.03 | 0.00 | 79 | 1016.0 |
| 20260905221904 | 56 | 0 | 0.0 | 0.0 | 0.00 | 0.03 | 0.00 | 79 | 1016.0 |
| 20260905221804 | 56 | 0 | 0.0 | 0.0 | 0.00 | 0.03 | 0.00 | 79 | 1015.8 |
| 20260905221704 | 56 | 0 | 0.0 | 0.0 | 0.00 | 0.03 | 0.00 | 79 | 1015.9 |
| 20260905221604 | 56 | 0 | 0.0 | 0.0 | 0.00 | 0.03 | 0.00 | 79 | 1015.9 |
| 20260905221504 | 56 | 0 | 0.0 | 0.0 | 0.00 | 0.03 | 0.00 | 79 | 1015.9 |
| 20260905221404 | 56 | 0 | 0.0 | 0.0 | 0.00 | 0.03 | 0.00 | 78 | 1015.9 |
| 20260905221304 | 56 | 0 | 0.0 | 0.0 | 0.00 | 0.03 | 0.00 | 78 | 1016.0 |
| 20260905221204 | 57 | 0 | 0.0 | 0.0 | 0.00 | 0.03 | 0.00 | 78 | 1015.7 |
| 20260905221125 | 57 | 0 | 0.0 | 0.0 | 0.00 | 0.03 | 0.00 | 78 | 1015.7 |
| 20260905221004 | 57 | 0 | 0.0 | 0.0 | 0.00 | 0.03 | 0.00 | 78 | 1015.9 |
| 20260905220925 | 57 | 0 | 0.0 | 0.0 | 0.00 | 0.03 | 0.00 | 78 | 1015.9 |
| 20260905220825 | 57 | 0 | 0.0 | 0.0 | 0.00 | 0.03 | 0.00 | 78 | 1016.1 |
| 20260905220704 | 57 | 0 | 0.0 | 0.0 | 0.00 | 0.03 | 0.00 | 78 | 1015.8 |
| 20260905220604 | 57 | 0 | 0.0 | 0.0 | 0.00 | 0.03 | 0.00 | 78 | 1015.9 |
| 20260905220525 | 57 | 0 | 0.0 | 0.0 | 0.00 | 0.03 | 0.00 | 78 | 1015.9 |
| 20260905220404 | 57 | 0 | 0.0 | 0.0 | 0.00 | 0.03 | 0.00 | 78 | 1015.9 |
| 20260905220304 | 57 | 0 | 0.0 | 0.0 | 0.00 | 0.03 | 0.00 | 78 | 1015.9 |
| 20260905220204 | 57 | 0 | 0.0 | 0.0 | 0.00 | 0.03 | 0.00 | 78 | 1015.8 |
| 20260905220104 | 57 | 0 | 0.0 | 0.0 | 0.00 | 0.03 | 0.00 | 78 | 1015.9 |
| 20260905220004 | 57 | 0 | 0.0 | 0.0 | 0.00 | 0.03 | 0.00 | 78 | 1016.1 |
| 20260905215904 | 57 | 127 | 0.0 | 0.9 | 0.00 | 0.03 | 0.00 | 78 | 1015.9 |
| 20260905215804 | 57 | 127 | 0.0 | 0.9 | 0.00 | 0.03 | 0.00 | 78 | 1016.1 |
| 20260905215725 | 57 | 127 | 0.0 | 0.9 | 0.00 | 0.03 | 0.00 | 78 | 1016.1 |
| 20260905215604 | 57 | 127 | 0.0 | 0.9 | 0.00 | 0.03 | 0.00 | 78 | 1016.0 |
| 20260905215505 | 57 | 127 | 0.0 | 0.9 | 0.00 | 0.03 | 0.00 | 78 | 1016.0 |
| 20260905215404 | 57 | 127 | 0.0 | 0.9 | 0.00 | 0.03 | 0.00 | 78 | 1015.9 |
| 20260905215306 | 57 | 127 | 0.0 | 0.9 | 0.00 | 0.03 | 0.00 | 78 | 1015.9 |
| 20260905215204 | 57 | 127 | 0.0 | 0.9 | 0.00 | 0.03 | 0.00 | 78 | 1016.0 |
| 20260905215104 | 57 | 127 | 0.0 | 0.9 | 0.00 | 0.03 | 0.00 | 78 | 1015.8 |
| 20260905215004 | 57 | 143 | 0.0 | 0.9 | 0.00 | 0.03 | 0.00 | 78 | 1016.1 |
| 20260905214904 | 57 | 146 | 0.0 | 0.9 | 0.00 | 0.03 | 0.00 | 78 | 1015.7 |
| 20260905214804 | 57 | 162 | 0.0 | 0.9 | 0.00 | 0.03 | 0.00 | 78 | 1015.9 |
| 20260905214704 | 57 | 162 | 0.0 | 0.9 | 0.00 | 0.03 | 0.00 | 78 | 1015.9 |
| 20260905214604 | 57 | 162 | 0.0 | 0.9 | 0.00 | 0.03 | 0.00 | 78 | 1016.0 |
| 20260905214504 | 57 | 167 | 0.0 | 1.7 | 0.00 | 0.03 | 0.00 | 78 | 1016.0 |
| 20260905214425 | 57 | 183 | 0.0 | 1.7 | 0.00 | 0.03 | 0.00 | 78 | 1016.0 |
| 20260905214304 | 57 | 179 | 0.0 | 1.7 | 0.00 | 0.03 | 0.00 | 78 | 1015.7 |
| 20260905214204 | 57 | 179 | 0.0 | 1.7 | 0.00 | 0.03 | 0.00 | 78 | 1015.8 |
| 20260905214125 | 57 | 179 | 0.0 | 1.7 | 0.00 | 0.03 | 0.00 | 78 | 1015.8 |
| 20260905214004 | 57 | 186 | 0.0 | 1.7 | 0.00 | 0.03 | 0.00 | 78 | 1015.9 |
| 20260905213925 | 57 | 186 | 0.0 | 1.7 | 0.00 | 0.03 | 0.00 | 78 | 1015.9 |
| 20260905213804 | 57 | 181 | 0.0 | 1.7 | 0.00 | 0.03 | 0.00 | 78 | 1015.8 |
| 20260905213704 | 57 | 181 | 0.0 | 1.7 | 0.00 | 0.03 | 0.00 | 78 | 1015.8 |
| 20260905213604 | 57 | 181 | 0.0 | 1.7 | 0.00 | 0.03 | 0.00 | 78 | 1016.0 |
| 20260905213504 | 57 | 188 | 0.0 | 1.7 | 0.00 | 0.03 | 0.00 | 78 | 1016.0 |
| 20260905213404 | 57 | 186 | 0.0 | 0.9 | 0.00 | 0.03 | 0.00 | 78 | 1016.0 |
| 20260905213304 | 57 | 203 | 0.0 | 0.9 | 0.00 | 0.03 | 0.00 | 78 | 1015.8 |
| 20260905213204 | 58 | 185 | 0.0 | 0.9 | 0.00 | 0.03 | 0.00 | 78 | 1016.0 |
| 20260905213104 | 58 | 179 | 0.0 | 0.9 | 0.00 | 0.03 | 0.00 | 78 | 1016.0 |
| 20260905213004 | 58 | 177 | 0.0 | 0.9 | 0.00 | 0.03 | 0.00 | 78 | 1016.0 |
| 20260905212925 | 58 | 181 | 0.0 | 0.9 | 0.00 | 0.03 | 0.00 | 78 | 1016.0 |
| 20260905212804 | 58 | 186 | 0.0 | 0.9 | 0.00 | 0.03 | 0.00 | 78 | 1016.1 |
| 20260905212704 | 58 | 190 | 0.0 | 1.7 | 0.00 | 0.03 | 0.00 | 78 | 1016.1 |
| 20260905212625 | 58 | 193 | 0.0 | 1.7 | 0.00 | 0.03 | 0.00 | 78 | 1016.1 |
| 20260905212504 | 58 | 196 | 0.0 | 1.7 | 0.00 | 0.03 | 0.00 | 78 | 1015.8 |
| 20260905212404 | 58 | 192 | 0.0 | 1.7 | 0.00 | 0.03 | 0.00 | 78 | 1016.0 |
| 20260905212325 | 58 | 187 | 0.0 | 1.7 | 0.00 | 0.03 | 0.00 | 78 | 1016.0 |
| 20260905212225 | 58 | 184 | 0.0 | 1.7 | 0.00 | 0.03 | 0.00 | 78 | 1016.0 |
| 20260905212125 | 58 | 191 | 0.0 | 1.7 | 0.00 | 0.03 | 0.00 | 78 | 1015.9 |
| 20260905212004 | 58 | 189 | 0.0 | 1.7 | 0.00 | 0.03 | 0.00 | 78 | 1015.9 |
| 20260905211904 | 58 | 186 | 0.0 | 1.7 | 0.00 | 0.03 | 0.00 | 77 | 1015.7 |
| 20260905211804 | 58 | 186 | 0.0 | 1.7 | 0.00 | 0.03 | 0.00 | 77 | 1016.0 |
| 20260905211725 | 58 | 181 | 0.0 | 1.7 | 0.00 | 0.03 | 0.00 | 78 | 1016.0 |
| 20260905211604 | 58 | 159 | 0.0 | 0.9 | 0.00 | 0.03 | 0.00 | 78 | 1015.7 |
| 20260905211504 | 58 | 159 | 0.0 | 0.9 | 0.00 | 0.03 | 0.00 | 78 | 1015.9 |
| 20260905211404 | 58 | 159 | 0.0 | 0.9 | 0.00 | 0.03 | 0.00 | 78 | 1015.9 |
| 20260905211304 | 58 | 174 | 0.0 | 1.7 | 0.00 | 0.03 | 0.00 | 78 | 1015.9 |
| 20260905211225 | 58 | 174 | 0.0 | 1.7 | 0.00 | 0.03 | 0.00 | 78 | 1015.9 |
| 20260905211104 | 58 | 174 | 0.0 | 1.7 | 0.00 | 0.03 | 0.00 | 78 | 1015.7 |
| 20260905211004 | 58 | 169 | 0.0 | 1.7 | 0.00 | 0.03 | 0.00 | 78 | 1015.7 |
| 20260905210905 | 57 | 169 | 0.0 | 1.7 | 0.00 | 0.03 | 0.00 | 78 | 1015.9 |
| 20260905210804 | 57 | 169 | 0.0 | 1.7 | 0.00 | 0.03 | 0.00 | 79 | 1016.0 |
| 20260905210704 | 57 | 173 | 0.0 | 1.7 | 0.00 | 0.03 | 0.00 | 79 | 1015.6 |
| 20260905210604 | 57 | 173 | 0.0 | 1.7 | 0.00 | 0.03 | 0.00 | 79 | 1015.6 |
| 20260905210504 | 57 | 173 | 0.0 | 1.7 | 0.00 | 0.03 | 0.00 | 79 | 1015.8 |
| 20260905210404 | 57 | 173 | 0.0 | 1.7 | 0.00 | 0.03 | 0.00 | 80 | 1015.8 |
| 20260905210304 | 56 | 154 | 0.0 | 0.9 | 0.00 | 0.03 | 0.00 | 80 | 1015.7 |
| 20260905210204 | 56 | 154 | 0.0 | 0.9 | 0.00 | 0.03 | 0.00 | 81 | 1015.5 |
| 20260905210104 | 56 | 112 | 0.0 | 0.9 | 0.00 | 0.03 | 0.00 | 81 | 1015.7 |
| 20260905210004 | 56 | 0 | 0.0 | 0.0 | 0.00 | 0.03 | 0.00 | 81 | 1015.5 |
| 20260905205904 | 56 | 0 | 0.0 | 0.0 | 0.00 | 0.03 | 0.03 | 81 | 1015.6 |
| 20260905205804 | 56 | 0 | 0.0 | 0.0 | 0.00 | 0.03 | 0.03 | 81 | 1015.7 |
| 20260905205725 | 56 | 0 | 0.0 | 0.0 | 0.00 | 0.03 | 0.03 | 81 | 1015.7 |
| 20260905205604 | 56 | 0 | 0.0 | 0.0 | 0.00 | 0.03 | 0.03 | 81 | 1015.8 |
| 20260905205525 | 56 | 0 | 0.0 | 0.0 | 0.00 | 0.03 | 0.03 | 81 | 1015.8 |
| 20260905205404 | 56 | 0 | 0.0 | 0.0 | 0.00 | 0.03 | 0.03 | 81 | 1015.8 |
| 20260905205306 | 56 | 0 | 0.0 | 0.0 | 0.00 | 0.03 | 0.03 | 81 | 1015.9 |
| 20260905205204 | 56 | 0 | 0.0 | 0.0 | 0.00 | 0.03 | 0.03 | 82 | 1015.7 |
| 20260905205104 | 56 | 0 | 0.0 | 0.0 | 0.00 | 0.03 | 0.03 | 82 | 1015.6 |
| 20260905205004 | 56 | 0 | 0.0 | 0.0 | 0.00 | 0.03 | 0.03 | 82 | 1015.6 |
| 20260905204904 | 56 | 0 | 0.0 | 0.0 | 0.00 | 0.03 | 0.03 | 81 | 1015.5 |
| 20260905204804 | 56 | 0 | 0.0 | 0.0 | 0.00 | 0.03 | 0.03 | 81 | 1015.6 |
| 20260905204704 | 56 | 0 | 0.0 | 0.0 | 0.00 | 0.03 | 0.03 | 81 | 1015.5 |
| 20260905204604 | 56 | 0 | 0.0 | 0.0 | 0.00 | 0.03 | 0.03 | 81 | 1015.7 |
| 20260905204504 | 56 | 0 | 0.0 | 0.0 | 0.00 | 0.03 | 0.03 | 81 | 1015.4 |
| 20260905204404 | 56 | 0 | 0.0 | 0.0 | 0.00 | 0.03 | 0.03 | 81 | 1015.6 |
| 20260905204304 | 56 | 0 | 0.0 | 0.0 | 0.00 | 0.03 | 0.03 | 81 | 1015.5 |
| 20260905204204 | 56 | 0 | 0.0 | 0.0 | 0.00 | 0.03 | 0.03 | 81 | 1015.5 |
| 20260905204104 | 56 | 0 | 0.0 | 0.0 | 0.00 | 0.03 | 0.03 | 81 | 1015.4 |
| 20260905204025 | 56 | 0 | 0.0 | 0.0 | 0.00 | 0.03 | 0.03 | 81 | 1015.4 |
| 20260905203904 | 56 | 0 | 0.0 | 0.0 | 0.00 | 0.03 | 0.03 | 81 | 1015.4 |
| 20260905203804 | 56 | 0 | 0.0 | 0.0 | 0.00 | 0.03 | 0.03 | 81 | 1015.7 |
| 20260905203704 | 56 | 0 | 0.0 | 0.0 | 0.00 | 0.03 | 0.03 | 81 | 1015.6 |
| 20260905203604 | 56 | 0 | 0.0 | 0.0 | 0.00 | 0.03 | 0.03 | 81 | 1015.4 |
| 20260905203504 | 56 | 0 | 0.0 | 0.0 | 0.00 | 0.03 | 0.03 | 81 | 1015.4 |
| 20260905203425 | 56 | 0 | 0.0 | 0.0 | 0.00 | 0.03 | 0.03 | 81 | 1015.4 |
| 20260905203304 | 56 | 0 | 0.0 | 0.0 | 0.00 | 0.03 | 0.03 | 81 | 1015.4 |
| 20260905203204 | 56 | 0 | 0.0 | 0.0 | 0.00 | 0.03 | 0.03 | 81 | 1015.3 |
| 20260905203104 | 56 | 0 | 0.0 | 0.0 | 0.00 | 0.03 | 0.03 | 81 | 1015.4 |
| 20260905203004 | 56 | 0 | 0.0 | 0.0 | 0.00 | 0.03 | 0.03 | 81 | 1015.5 |
| 20260905202904 | 57 | 0 | 0.0 | 0.0 | 0.00 | 0.03 | 0.03 | 81 | 1015.5 |
| 20260905202804 | 57 | 0 | 0.0 | 0.0 | 0.00 | 0.03 | 0.03 | 81 | 1015.3 |
| 20260905202704 | 57 | 0 | 0.0 | 0.0 | 0.00 | 0.03 | 0.03 | 81 | 1015.3 |
| 20260905202604 | 57 | 0 | 0.0 | 0.0 | 0.00 | 0.03 | 0.03 | 81 | 1015.4 |
| 20260905202504 | 57 | 0 | 0.0 | 0.0 | 0.00 | 0.03 | 0.03 | 81 | 1015.5 |
| 20260905202404 | 57 | 0 | 0.0 | 0.0 | 0.00 | 0.03 | 0.03 | 81 | 1015.3 |
| 20260905202306 | 57 | 0 | 0.0 | 0.0 | 0.00 | 0.03 | 0.03 | 81 | 1015.3 |
| 20260905202225 | 57 | 0 | 0.0 | 0.0 | 0.00 | 0.03 | 0.03 | 81 | 1015.3 |
| 20260905202104 | 57 | 0 | 0.0 | 0.0 | 0.00 | 0.03 | 0.03 | 81 | 1015.4 |
| 20260905202004 | 57 | 0 | 0.0 | 0.0 | 0.00 | 0.03 | 0.03 | 81 | 1015.2 |
| 20260905201904 | 57 | 0 | 0.0 | 0.0 | 0.00 | 0.03 | 0.03 | 81 | 1015.3 |
| 20260905201804 | 57 | 0 | 0.0 | 0.0 | 0.00 | 0.03 | 0.03 | 81 | 1015.2 |
| 20260905201725 | 57 | 0 | 0.0 | 0.0 | 0.00 | 0.03 | 0.03 | 81 | 1015.2 |
| 20260905201604 | 56 | 0 | 0.0 | 0.0 | 0.00 | 0.03 | 0.03 | 81 | 1015.2 |
| 20260905201504 | 56 | 0 | 0.0 | 0.0 | 0.00 | 0.03 | 0.03 | 81 | 1015.2 |
| 20260905201404 | 56 | 0 | 0.0 | 0.0 | 0.00 | 0.03 | 0.03 | 82 | 1015.2 |
| 20260905201304 | 56 | 0 | 0.0 | 0.0 | 0.00 | 0.03 | 0.03 | 82 | 1015.1 |
| 20260905201204 | 56 | 0 | 0.0 | 0.0 | 0.00 | 0.03 | 0.03 | 82 | 1015.3 |
| 20260905201104 | 56 | 0 | 0.0 | 0.0 | 0.00 | 0.03 | 0.03 | 82 | 1015.1 |
| 20260905201004 | 56 | 0 | 0.0 | 0.0 | 0.00 | 0.03 | 0.03 | 82 | 1015.2 |
| 20260905200925 | 56 | 0 | 0.0 | 0.0 | 0.00 | 0.03 | 0.03 | 82 | 1015.2 |
| 20260905200804 | 56 | 0 | 0.0 | 0.0 | 0.00 | 0.03 | 0.03 | 82 | 1015.3 |
| 20260905200704 | 56 | 0 | 0.0 | 0.0 | 0.00 | 0.03 | 0.03 | 82 | 1015.1 |
| 20260905200605 | 56 | 0 | 0.0 | 0.0 | 0.00 | 0.03 | 0.03 | 82 | 1015.3 |
| 20260905200504 | 56 | 0 | 0.0 | 0.0 | 0.00 | 0.03 | 0.03 | 83 | 1015.3 |
| 20260905200404 | 56 | 0 | 0.0 | 0.0 | 0.00 | 0.03 | 0.03 | 83 | 1015.3 |
| 20260905200304 | 56 | 0 | 0.0 | 0.0 | 0.00 | 0.03 | 0.03 | 83 | 1015.0 |
| 20260905200204 | 56 | 0 | 0.0 | 0.0 | 0.00 | 0.03 | 0.03 | 83 | 1015.4 |
| 20260905200104 | 56 | 0 | 0.0 | 0.0 | 0.00 | 0.03 | 0.03 | 83 | 1015.5 |
| 20260905200004 | 56 | 0 | 0.0 | 0.0 | 0.00 | 0.03 | 0.03 | 84 | 1015.2 |
| 20260905195904 | 56 | 0 | 0.0 | 0.0 | 0.00 | 0.03 | 0.03 | 84 | 1015.2 |
| 20260905195804 | 56 | 0 | 0.0 | 0.0 | 0.00 | 0.03 | 0.03 | 84 | 1015.3 |
| 20260905195726 | 55 | 0 | 0.0 | 0.0 | 0.00 | 0.03 | 0.03 | 84 | 1015.3 |
| 20260905195604 | 55 | 0 | 0.0 | 0.0 | 0.00 | 0.03 | 0.03 | 84 | 1015.4 |
| 20260905195504 | 55 | 0 | 0.0 | 0.0 | 0.00 | 0.03 | 0.03 | 84 | 1015.0 |
| 20260905195404 | 55 | 0 | 0.0 | 0.0 | 0.00 | 0.03 | 0.03 | 84 | 1015.0 |
| 20260905195325 | 55 | 0 | 0.0 | 0.0 | 0.00 | 0.03 | 0.03 | 83 | 1015.0 |
| 20260905195204 | 55 | 0 | 0.0 | 0.0 | 0.00 | 0.03 | 0.03 | 83 | 1015.0 |
| 20260905195104 | 55 | 0 | 0.0 | 0.0 | 0.00 | 0.03 | 0.03 | 83 | 1015.2 |
| 20260905195004 | 55 | 0 | 0.0 | 0.0 | 0.00 | 0.03 | 0.03 | 83 | 1015.2 |
| 20260905194904 | 55 | 0 | 0.0 | 0.0 | 0.00 | 0.03 | 0.03 | 82 | 1015.0 |
| 20260905194803 | 55 | 0 | 0.0 | 0.0 | 0.00 | 0.03 | 0.03 | 82 | 1015.3 |
| 20260905194704 | 55 | 0 | 0.0 | 0.0 | 0.00 | 0.03 | 0.03 | 82 | 1015.1 |
| 20260905194603 | 55 | 0 | 0.0 | 0.0 | 0.00 | 0.03 | 0.03 | 82 | 1015.0 |
| 20260905194504 | 55 | 0 | 0.0 | 0.0 | 0.00 | 0.03 | 0.03 | 82 | 1015.0 |
| 20260905194404 | 55 | 0 | 0.0 | 0.0 | 0.00 | 0.03 | 0.03 | 82 | 1015.1 |
| 20260905194304 | 56 | 0 | 0.0 | 0.0 | 0.00 | 0.03 | 0.03 | 82 | 1015.2 |
| 20260905194204 | 56 | 0 | 0.0 | 0.0 | 0.00 | 0.03 | 0.03 | 82 | 1015.0 |
| 20260905194125 | 56 | 0 | 0.0 | 0.0 | 0.00 | 0.03 | 0.03 | 82 | 1015.0 |
| 20260905194004 | 56 | 0 | 0.0 | 0.0 | 0.00 | 0.03 | 0.03 | 82 | 1014.9 |
| 20260905193904 | 56 | 0 | 0.0 | 0.0 | 0.00 | 0.03 | 0.03 | 82 | 1015.2 |
| 20260905193824 | 56 | 0 | 0.0 | 0.0 | 0.00 | 0.03 | 0.03 | 82 | 1015.2 |
| 20260905193704 | 56 | 0 | 0.0 | 0.0 | 0.00 | 0.03 | 0.03 | 82 | 1015.1 |
| 20260905193604 | 56 | 0 | 0.0 | 0.0 | 0.00 | 0.03 | 0.03 | 82 | 1015.2 |
| 20260905193505 | 56 | 0 | 0.0 | 0.0 | 0.00 | 0.03 | 0.03 | 82 | 1015.1 |
| 20260905193406 | 56 | 0 | 0.0 | 0.0 | 0.00 | 0.03 | 0.03 | 82 | 1015.2 |
| 20260905193304 | 56 | 0 | 0.0 | 0.0 | 0.00 | 0.03 | 0.03 | 81 | 1015.3 |
| 20260905193204 | 56 | 0 | 0.0 | 0.0 | 0.00 | 0.03 | 0.03 | 81 | 1015.1 |
| 20260905193104 | 56 | 0 | 0.0 | 0.0 | 0.00 | 0.03 | 0.03 | 81 | 1015.2 |
| 20260905193007 | 56 | 0 | 0.0 | 0.0 | 0.00 | 0.03 | 0.03 | 81 | 1015.2 |
| 20260905192904 | 56 | 0 | 0.0 | 0.0 | 0.00 | 0.03 | 0.03 | 81 | 1015.0 |
| 20260905192804 | 56 | 0 | 0.0 | 0.0 | 0.00 | 0.03 | 0.03 | 81 | 1015.0 |
| 20260905192704 | 56 | 0 | 0.0 | 0.0 | 0.00 | 0.03 | 0.03 | 81 | 1015.3 |
| 20260905192625 | 56 | 0 | 0.0 | 0.0 | 0.00 | 0.03 | 0.03 | 81 | 1015.3 |
| 20260905192504 | 56 | 0 | 0.0 | 0.0 | 0.00 | 0.03 | 0.03 | 80 | 1015.0 |
| 20260905192404 | 56 | 0 | 0.0 | 0.0 | 0.00 | 0.03 | 0.03 | 80 | 1015.0 |
| 20260905192306 | 56 | 0 | 0.0 | 0.0 | 0.00 | 0.03 | 0.03 | 80 | 1015.0 |
| 20260905192204 | 57 | 0 | 0.0 | 0.0 | 0.00 | 0.03 | 0.03 | 80 | 1015.2 |
| 20260905192104 | 57 | 0 | 0.0 | 0.0 | 0.00 | 0.03 | 0.03 | 80 | 1015.2 |
| 20260905192004 | 57 | 0 | 0.0 | 0.0 | 0.00 | 0.03 | 0.03 | 80 | 1015.4 |
| 20260905191925 | 57 | 0 | 0.0 | 0.0 | 0.00 | 0.03 | 0.03 | 80 | 1015.4 |
| 20260905191803 | 57 | 0 | 0.0 | 0.0 | 0.00 | 0.03 | 0.03 | 80 | 1015.2 |
| 20260905191724 | 57 | 0 | 0.0 | 0.0 | 0.00 | 0.03 | 0.03 | 80 | 1015.2 |
| 20260905191624 | 57 | 0 | 0.0 | 0.0 | 0.00 | 0.03 | 0.03 | 79 | 1015.3 |
| 20260905191504 | 57 | 0 | 0.0 | 0.0 | 0.00 | 0.03 | 0.03 | 79 | 1015.2 |
| 20260905191403 | 57 | 0 | 0.0 | 0.0 | 0.00 | 0.03 | 0.03 | 79 | 1015.2 |
| 20260905191303 | 57 | 0 | 0.0 | 0.0 | 0.00 | 0.03 | 0.03 | 79 | 1015.3 |
| 20260905191204 | 58 | 0 | 0.0 | 0.0 | 0.00 | 0.03 | 0.03 | 79 | 1015.2 |
| 20260905191104 | 58 | 0 | 0.0 | 0.0 | 0.00 | 0.03 | 0.03 | 79 | 1015.2 |
| 20260905191025 | 58 | 0 | 0.0 | 0.0 | 0.00 | 0.03 | 0.03 | 79 | 1015.2 |
| 20260905190904 | 58 | 0 | 0.0 | 0.0 | 0.00 | 0.03 | 0.03 | 79 | 1015.4 |
| 20260905190825 | 58 | 0 | 0.0 | 0.0 | 0.00 | 0.03 | 0.03 | 79 | 1015.4 |
| 20260905190704 | 58 | 0 | 0.0 | 0.0 | 0.00 | 0.03 | 0.03 | 79 | 1015.2 |
| 20260905190604 | 58 | 0 | 0.0 | 0.0 | 0.00 | 0.03 | 0.03 | 79 | 1015.4 |
| 20260905190503 | 58 | 0 | 0.0 | 0.0 | 0.00 | 0.03 | 0.03 | 79 | 1015.3 |
| 20260905190404 | 58 | 0 | 0.0 | 0.0 | 0.00 | 0.03 | 0.03 | 78 | 1015.5 |
| 20260905190304 | 58 | 0 | 0.0 | 0.0 | 0.00 | 0.03 | 0.03 | 78 | 1015.1 |
| 20260905190203 | 58 | 0 | 0.0 | 0.0 | 0.00 | 0.03 | 0.03 | 78 | 1015.2 |
| 20260905190104 | 58 | 0 | 0.0 | 0.0 | 0.00 | 0.03 | 0.03 | 78 | 1015.4 |
| 20260905190025 | 58 | 0 | 0.0 | 0.0 | 0.00 | 0.03 | 0.03 | 78 | 1015.4 |
| 20260905185925 | 58 | 0 | 0.0 | 0.0 | 0.00 | 0.03 | 0.03 | 78 | 1015.2 |
| 20260905185825 | 58 | 0 | 0.0 | 0.0 | 0.00 | 0.03 | 0.03 | 78 | 1015.5 |
| 20260905185703 | 58 | 0 | 0.0 | 0.0 | 0.00 | 0.03 | 0.03 | 78 | 1015.2 |
| 20260905185604 | 58 | 0 | 0.0 | 0.0 | 0.00 | 0.03 | 0.03 | 78 | 1015.4 |
| 20260905185504 | 58 | 0 | 0.0 | 0.0 | 0.00 | 0.03 | 0.03 | 78 | 1015.4 |
| 20260905185404 | 58 | 0 | 0.0 | 0.0 | 0.00 | 0.03 | 0.03 | 78 | 1015.2 |
| 20260905185306 | 58 | 0 | 0.0 | 0.0 | 0.00 | 0.03 | 0.03 | 77 | 1015.3 |
| 20260905185203 | 58 | 0 | 0.0 | 0.0 | 0.00 | 0.03 | 0.03 | 77 | 1015.2 |
| 20260905185125 | 58 | 0 | 0.0 | 0.0 | 0.00 | 0.03 | 0.03 | 77 | 1015.2 |
| 20260905185004 | 58 | 0 | 0.0 | 0.0 | 0.00 | 0.03 | 0.03 | 77 | 1015.2 |
| 20260905184904 | 58 | 0 | 0.0 | 0.0 | 0.00 | 0.03 | 0.03 | 77 | 1015.1 |
| 20260905184804 | 59 | 0 | 0.0 | 0.0 | 0.00 | 0.03 | 0.03 | 77 | 1015.2 |
| 20260905184704 | 59 | 0 | 0.0 | 0.0 | 0.00 | 0.03 | 0.03 | 77 | 1015.4 |
| 20260905184604 | 59 | 0 | 0.0 | 0.0 | 0.00 | 0.03 | 0.03 | 77 | 1015.1 |
| 20260905184504 | 59 | 0 | 0.0 | 0.0 | 0.00 | 0.03 | 0.03 | 77 | 1015.4 |
| 20260905184425 | 59 | 0 | 0.0 | 0.0 | 0.00 | 0.03 | 0.03 | 76 | 1015.4 |
| 20260905184304 | 59 | 0 | 0.0 | 0.0 | 0.00 | 0.03 | 0.03 | 76 | 1015.3 |
| 20260905184204 | 59 | 0 | 0.0 | 0.0 | 0.00 | 0.03 | 0.03 | 76 | 1015.2 |
| 20260905184104 | 59 | 0 | 0.0 | 0.0 | 0.00 | 0.03 | 0.03 | 76 | 1015.1 |
| 20260905184004 | 59 | 0 | 0.0 | 0.0 | 0.00 | 0.03 | 0.03 | 76 | 1015.2 |
| 20260905183925 | 59 | 0 | 0.0 | 0.0 | 0.00 | 0.03 | 0.03 | 76 | 1015.2 |
| 20260905183804 | 59 | 0 | 0.0 | 0.0 | 0.00 | 0.03 | 0.03 | 76 | 1015.3 |
| 20260905183725 | 59 | 0 | 0.0 | 0.0 | 0.00 | 0.03 | 0.03 | 76 | 1015.3 |
| 20260905183604 | 59 | 0 | 0.0 | 0.0 | 0.00 | 0.03 | 0.03 | 76 | 1015.1 |
| 20260905183504 | 59 | 0 | 0.0 | 0.0 | 0.00 | 0.03 | 0.03 | 76 | 1015.2 |
| 20260905183404 | 59 | 0 | 0.0 | 0.0 | 0.00 | 0.03 | 0.03 | 75 | 1015.3 |
| 20260905183304 | 59 | 0 | 0.0 | 0.0 | 0.00 | 0.03 | 0.03 | 76 | 1015.1 |
| 20260905183204 | 59 | 0 | 0.0 | 0.0 | 0.00 | 0.03 | 0.03 | 75 | 1015.1 |
| 20260905183104 | 59 | 0 | 0.0 | 0.0 | 0.00 | 0.03 | 0.03 | 75 | 1015.1 |
| 20260905183004 | 59 | 0 | 0.0 | 0.0 | 0.00 | 0.03 | 0.03 | 76 | 1015.3 |
| 20260905182904 | 59 | 0 | 0.0 | 0.0 | 0.00 | 0.03 | 0.03 | 75 | 1015.3 |
| 20260905182804 | 59 | 0 | 0.0 | 0.0 | 0.00 | 0.03 | 0.03 | 75 | 1015.0 |
| 20260905182704 | 59 | 0 | 0.0 | 0.0 | 0.00 | 0.03 | 0.03 | 75 | 1015.0 |
| 20260905182604 | 60 | 0 | 0.0 | 0.0 | 0.00 | 0.03 | 0.03 | 75 | 1015.0 |
| 20260905182504 | 60 | 0 | 0.0 | 0.0 | 0.00 | 0.03 | 0.03 | 75 | 1015.2 |
| 20260905182404 | 60 | 0 | 0.0 | 0.0 | 0.00 | 0.03 | 0.03 | 75 | 1014.8 |
| 20260905182306 | 60 | 0 | 0.0 | 0.0 | 0.00 | 0.03 | 0.03 | 75 | 1015.1 |
| 20260905182225 | 60 | 0 | 0.0 | 0.0 | 0.00 | 0.03 | 0.03 | 75 | 1015.1 |
| 20260905182104 | 60 | 0 | 0.0 | 0.0 | 0.00 | 0.03 | 0.03 | 75 | 1014.9 |
| 20260905182004 | 60 | 0 | 0.0 | 0.0 | 0.00 | 0.03 | 0.03 | 75 | 1014.8 |
| 20260905181925 | 60 | 0 | 0.0 | 0.0 | 0.00 | 0.03 | 0.03 | 75 | 1014.8 |
| 20260905181825 | 60 | 0 | 0.0 | 0.0 | 0.00 | 0.03 | 0.03 | 75 | 1015.1 |
| 20260905181704 | 60 | 0 | 0.0 | 0.0 | 0.00 | 0.03 | 0.03 | 75 | 1015.0 |
| 20260905181604 | 60 | 0 | 0.0 | 0.0 | 0.00 | 0.03 | 0.03 | 75 | 1015.0 |
| 20260905181525 | 60 | 0 | 0.0 | 0.0 | 0.00 | 0.03 | 0.03 | 75 | 1015.0 |
| 20260905181404 | 60 | 0 | 0.0 | 0.0 | 0.00 | 0.03 | 0.03 | 75 | 1014.9 |
| 20260905181304 | 60 | 0 | 0.0 | 0.0 | 0.00 | 0.03 | 0.03 | 75 | 1014.9 |
| 20260905181204 | 60 | 0 | 0.0 | 0.0 | 0.00 | 0.03 | 0.03 | 75 | 1014.6 |
| 20260905181125 | 60 | 0 | 0.0 | 0.0 | 0.00 | 0.03 | 0.03 | 75 | 1014.6 |
| 20260905181004 | 60 | 0 | 0.0 | 0.0 | 0.00 | 0.03 | 0.03 | 76 | 1014.9 |
| 20260905180904 | 60 | 0 | 0.0 | 0.0 | 0.00 | 0.03 | 0.03 | 76 | 1014.8 |
| 20260905180804 | 60 | 0 | 0.0 | 0.0 | 0.00 | 0.03 | 0.03 | 76 | 1015.0 |
| 20260905180704 | 60 | 0 | 0.0 | 0.0 | 0.00 | 0.03 | 0.03 | 76 | 1014.9 |
| 20260905180604 | 60 | 0 | 0.0 | 0.0 | 0.00 | 0.03 | 0.03 | 76 | 1014.8 |
| 20260905180504 | 60 | 0 | 0.0 | 0.0 | 0.00 | 0.03 | 0.03 | 76 | 1014.9 |
| 20260905180404 | 60 | 0 | 0.0 | 0.0 | 0.00 | 0.03 | 0.03 | 76 | 1014.9 |
| 20260905180304 | 60 | 0 | 0.0 | 0.0 | 0.00 | 0.03 | 0.03 | 76 | 1014.6 |
| 20260905180204 | 60 | 0 | 0.0 | 0.0 | 0.00 | 0.03 | 0.03 | 77 | 1015.1 |
| 20260905180104 | 60 | 0 | 0.0 | 0.0 | 0.00 | 0.03 | 0.03 | 77 | 1014.9 |
| 20260905180004 | 60 | 0 | 0.0 | 0.0 | 0.00 | 0.03 | 0.03 | 77 | 1014.9 |
| 20260905175904 | 60 | 0 | 0.0 | 0.0 | 0.00 | 0.03 | 0.03 | 77 | 1014.9 |
| 20260905175825 | 60 | 0 | 0.0 | 0.0 | 0.00 | 0.03 | 0.03 | 78 | 1014.9 |
| 20260905175704 | 60 | 0 | 0.0 | 0.0 | 0.00 | 0.03 | 0.03 | 77 | 1014.8 |
| 20260905175604 | 60 | 0 | 0.0 | 0.0 | 0.00 | 0.03 | 0.03 | 78 | 1014.4 |
| 20260905175504 | 60 | 0 | 0.0 | 0.0 | 0.00 | 0.03 | 0.03 | 78 | 1014.9 |
| 20260905175404 | 60 | 0 | 0.0 | 0.0 | 0.00 | 0.03 | 0.03 | 78 | 1014.8 |
| 20260905175325 | 60 | 0 | 0.0 | 0.0 | 0.00 | 0.03 | 0.03 | 79 | 1014.8 |
| 20260905175204 | 60 | 0 | 0.0 | 0.0 | 0.00 | 0.03 | 0.03 | 78 | 1014.8 |
| 20260905175104 | 60 | 0 | 0.0 | 0.0 | 0.00 | 0.03 | 0.03 | 79 | 1014.9 |
| 20260905175025 | 60 | 0 | 0.0 | 0.0 | 0.00 | 0.03 | 0.03 | 79 | 1014.9 |
| 20260905174904 | 60 | 0 | 0.0 | 0.0 | 0.00 | 0.03 | 0.03 | 80 | 1014.6 |
| 20260905174804 | 60 | 0 | 0.0 | 0.0 | 0.00 | 0.03 | 0.03 | 80 | 1014.7 |
| 20260905174704 | 60 | 0 | 0.0 | 0.0 | 0.00 | 0.03 | 0.03 | 81 | 1014.6 |
| 20260905174604 | 60 | 0 | 0.0 | 0.0 | 0.00 | 0.03 | 0.03 | 82 | 1014.4 |
| 20260905174504 | 60 | 0 | 0.0 | 0.0 | 0.00 | 0.03 | 0.03 | 82 | 1014.8 |
| 20260905174425 | 60 | 0 | 0.0 | 0.0 | 0.00 | 0.03 | 0.03 | 82 | 1014.8 |
| 20260905174304 | 60 | 0 | 0.0 | 0.0 | 0.00 | 0.03 | 0.03 | 83 | 1014.7 |
| 20260905174204 | 60 | 0 | 0.0 | 0.0 | 0.00 | 0.03 | 0.03 | 83 | 1014.8 |
| 20260905174124 | 60 | 0 | 0.0 | 0.0 | 0.00 | 0.03 | 0.03 | 83 | 1014.8 |
| 20260905174004 | 60 | 0 | 0.0 | 0.0 | 0.00 | 0.03 | 0.03 | 83 | 1014.3 |
| 20260905173904 | 60 | 0 | 0.0 | 0.0 | 0.00 | 0.03 | 0.03 | 83 | 1014.6 |
| 20260905173804 | 60 | 0 | 0.0 | 0.0 | 0.00 | 0.03 | 0.03 | 83 | 1014.6 |
| 20260905173705 | 60 | 0 | 0.0 | 0.0 | 0.00 | 0.03 | 0.03 | 83 | 1014.6 |
| 20260905173604 | 60 | 0 | 0.0 | 0.0 | 0.00 | 0.03 | 0.03 | 83 | 1014.4 |
| 20260905173503 | 60 | 0 | 0.0 | 0.0 | 0.00 | 0.03 | 0.03 | 83 | 1014.7 |
| 20260905173403 | 60 | 0 | 0.0 | 0.0 | 0.00 | 0.03 | 0.03 | 83 | 1014.2 |
| 20260905173304 | 60 | 0 | 0.0 | 0.0 | 0.00 | 0.03 | 0.03 | 83 | 1014.7 |
| 20260905173204 | 60 | 0 | 0.0 | 0.0 | 0.00 | 0.03 | 0.03 | 83 | 1014.8 |
| 20260905173103 | 60 | 0 | 0.0 | 0.0 | 0.00 | 0.03 | 0.03 | 82 | 1014.6 |
| 20260905173004 | 61 | 0 | 0.0 | 0.0 | 0.00 | 0.03 | 0.03 | 83 | 1014.6 |
| 20260905172904 | 61 | 0 | 0.0 | 0.0 | 0.00 | 0.03 | 0.03 | 82 | 1014.4 |
| 20260905172804 | 61 | 0 | 0.0 | 0.0 | 0.00 | 0.03 | 0.03 | 82 | 1014.7 |
| 20260905172725 | 61 | 0 | 0.0 | 0.0 | 0.00 | 0.03 | 0.03 | 82 | 1014.7 |
| 20260905172603 | 61 | 0 | 0.0 | 0.0 | 0.00 | 0.03 | 0.03 | 82 | 1014.6 |
| 20260905172506 | 61 | 0 | 0.0 | 0.0 | 0.00 | 0.03 | 0.03 | 82 | 1014.7 |
| 20260905172404 | 61 | 0 | 0.0 | 0.0 | 0.00 | 0.03 | 0.03 | 82 | 1014.7 |
| 20260905172325 | 61 | 0 | 0.0 | 0.0 | 0.00 | 0.03 | 0.03 | 82 | 1014.7 |
| 20260905172225 | 61 | 0 | 0.0 | 0.0 | 0.00 | 0.03 | 0.03 | 82 | 1014.6 |
| 20260905172103 | 61 | 0 | 0.0 | 0.0 | 0.00 | 0.03 | 0.03 | 82 | 1014.6 |
| 20260905172004 | 61 | 0 | 0.0 | 0.0 | 0.00 | 0.03 | 0.03 | 82 | 1014.4 |
| 20260905171904 | 61 | 0 | 0.0 | 0.0 | 0.00 | 0.03 | 0.03 | 82 | 1014.6 |
| 20260905171825 | 61 | 0 | 0.0 | 0.0 | 0.00 | 0.03 | 0.03 | 82 | 1014.6 |
| 20260905171703 | 61 | 0 | 0.0 | 0.0 | 0.00 | 0.03 | 0.03 | 82 | 1014.6 |
| 20260905171604 | 61 | 0 | 0.0 | 0.0 | 0.00 | 0.03 | 0.03 | 81 | 1014.1 |
| 20260905171503 | 61 | 0 | 0.0 | 0.0 | 0.00 | 0.03 | 0.03 | 81 | 1014.4 |
| 20260905171404 | 61 | 0 | 0.0 | 0.0 | 0.00 | 0.03 | 0.03 | 81 | 1014.1 |
| 20260905171304 | 61 | 0 | 0.0 | 0.0 | 0.00 | 0.03 | 0.03 | 81 | 1014.2 |
| 20260905171203 | 61 | 0 | 0.0 | 0.0 | 0.00 | 0.03 | 0.03 | 81 | 1014.2 |
| 20260905171103 | 61 | 0 | 0.0 | 0.0 | 0.00 | 0.03 | 0.03 | 81 | 1014.2 |
| 20260905171003 | 61 | 0 | 0.0 | 0.0 | 0.00 | 0.03 | 0.03 | 81 | 1014.0 |
| 20260905170904 | 61 | 0 | 0.0 | 0.0 | 0.00 | 0.03 | 0.03 | 81 | 1014.2 |
| 20260905170804 | 61 | 0 | 0.0 | 0.0 | 0.00 | 0.03 | 0.03 | 81 | 1014.2 |
| 20260905170704 | 61 | 0 | 0.0 | 0.0 | 0.00 | 0.03 | 0.03 | 82 | 1014.3 |
| 20260905170626 | 61 | 0 | 0.0 | 0.0 | 0.00 | 0.03 | 0.03 | 81 | 1014.3 |
| 20260905170503 | 61 | 0 | 0.0 | 0.0 | 0.00 | 0.03 | 0.03 | 81 | 1014.3 |
| 20260905170425 | 61 | 0 | 0.0 | 0.0 | 0.00 | 0.03 | 0.03 | 81 | 1014.3 |
| 20260905170304 | 61 | 0 | 0.0 | 0.0 | 0.00 | 0.03 | 0.03 | 81 | 1014.2 |
| 20260905170225 | 61 | 0 | 0.0 | 0.0 | 0.00 | 0.03 | 0.03 | 81 | 1014.2 |
| 20260905170104 | 61 | 0 | 0.0 | 0.0 | 0.00 | 0.03 | 0.03 | 81 | 1014.1 |
| 20260905170004 | 61 | 0 | 0.0 | 0.0 | 0.00 | 0.03 | 0.03 | 81 | 1014.2 |
| 20260905165904 | 61 | 0 | 0.0 | 0.0 | 0.00 | 0.03 | 0.03 | 81 | 1014.2 |
| 20260905165803 | 61 | 0 | 0.0 | 0.0 | 0.00 | 0.03 | 0.03 | 81 | 1014.1 |
| 20260905165704 | 61 | 0 | 0.0 | 0.0 | 0.00 | 0.03 | 0.03 | 81 | 1014.1 |
| 20260905165603 | 61 | 0 | 0.0 | 0.0 | 0.00 | 0.03 | 0.03 | 81 | 1014.0 |
| 20260905165504 | 61 | 0 | 0.0 | 0.0 | 0.00 | 0.03 | 0.03 | 81 | 1014.0 |
| 20260905165403 | 61 | 0 | 0.0 | 0.0 | 0.00 | 0.03 | 0.03 | 81 | 1013.9 |
| 20260905165325 | 61 | 0 | 0.0 | 0.0 | 0.00 | 0.03 | 0.03 | 81 | 1013.9 |
| 20260905165204 | 61 | 0 | 0.0 | 0.0 | 0.00 | 0.03 | 0.03 | 81 | 1014.1 |
| 20260905165104 | 61 | 0 | 0.0 | 0.0 | 0.00 | 0.03 | 0.03 | 81 | 1013.9 |
| 20260905165025 | 61 | 0 | 0.0 | 0.0 | 0.00 | 0.03 | 0.03 | 81 | 1013.9 |
| 20260905164904 | 61 | 0 | 0.0 | 0.0 | 0.00 | 0.03 | 0.03 | 81 | 1013.9 |
| 20260905164804 | 61 | 0 | 0.0 | 0.0 | 0.00 | 0.03 | 0.03 | 81 | 1013.7 |
| 20260905164704 | 61 | 0 | 0.0 | 0.0 | 0.00 | 0.03 | 0.03 | 81 | 1013.9 |
| 20260905164604 | 61 | 0 | 0.0 | 0.0 | 0.00 | 0.03 | 0.03 | 81 | 1013.6 |
| 20260905164505 | 61 | 0 | 0.0 | 0.0 | 0.00 | 0.03 | 0.03 | 80 | 1013.7 |
| 20260905164404 | 61 | 0 | 0.0 | 0.0 | 0.00 | 0.03 | 0.03 | 81 | 1013.6 |
| 20260905164304 | 61 | 0 | 0.0 | 0.0 | 0.00 | 0.03 | 0.03 | 81 | 1013.8 |
| 20260905164203 | 61 | 0 | 0.0 | 0.0 | 0.00 | 0.03 | 0.03 | 80 | 1013.7 |
| 20260905164103 | 61 | 0 | 0.0 | 0.0 | 0.00 | 0.03 | 0.03 | 80 | 1013.7 |
| 20260905164024 | 62 | 0 | 0.0 | 0.0 | 0.00 | 0.03 | 0.03 | 80 | 1013.7 |
| 20260905163904 | 62 | 0 | 0.0 | 0.0 | 0.00 | 0.03 | 0.03 | 81 | 1014.1 |
| 20260905163826 | 61 | 0 | 0.0 | 0.0 | 0.00 | 0.03 | 0.03 | 80 | 1014.1 |
| 20260905163704 | 62 | 0 | 0.0 | 0.0 | 0.00 | 0.03 | 0.03 | 80 | 1014.1 |
| 20260905163603 | 62 | 0 | 0.0 | 0.0 | 0.00 | 0.03 | 0.03 | 80 | 1014.1 |
| 20260905163503 | 62 | 0 | 0.0 | 0.0 | 0.00 | 0.03 | 0.03 | 81 | 1014.3 |
| 20260905163404 | 62 | 0 | 0.0 | 0.0 | 0.00 | 0.03 | 0.03 | 80 | 1014.1 |
| 20260905163303 | 62 | 0 | 0.0 | 0.0 | 0.00 | 0.03 | 0.03 | 80 | 1014.3 |
| 20260905163203 | 62 | 0 | 0.0 | 0.0 | 0.00 | 0.03 | 0.03 | 81 | 1014.3 |
| 20260905163104 | 62 | 0 | 0.0 | 0.0 | 0.00 | 0.03 | 0.03 | 80 | 1014.2 |
| 20260905163003 | 62 | 0 | 0.0 | 0.0 | 0.00 | 0.03 | 0.03 | 80 | 1014.1 |
| 20260905162903 | 62 | 0 | 0.0 | 0.0 | 0.00 | 0.03 | 0.03 | 81 | 1014.3 |
| 20260905162804 | 62 | 0 | 0.0 | 0.0 | 0.00 | 0.03 | 0.03 | 81 | 1014.4 |
| 20260905162704 | 62 | 0 | 0.0 | 0.0 | 0.00 | 0.03 | 0.03 | 80 | 1014.4 |
| 20260905162605 | 62 | 0 | 0.0 | 0.0 | 0.00 | 0.03 | 0.03 | 81 | 1014.4 |
| 20260905162504 | 62 | 0 | 0.0 | 0.0 | 0.00 | 0.03 | 0.03 | 81 | 1014.3 |
| 20260905162404 | 62 | 0 | 0.0 | 0.0 | 0.00 | 0.03 | 0.03 | 80 | 1014.3 |
| 20260905162306 | 62 | 0 | 0.0 | 0.0 | 0.00 | 0.03 | 0.03 | 80 | 1014.2 |
| 20260905162225 | 62 | 0 | 0.0 | 0.0 | 0.00 | 0.03 | 0.03 | 81 | 1014.2 |
| 20260905162125 | 62 | 0 | 0.0 | 0.0 | 0.00 | 0.03 | 0.03 | 81 | 1014.1 |
| 20260905162004 | 62 | 0 | 0.0 | 0.0 | 0.00 | 0.03 | 0.03 | 81 | 1013.8 |
| 20260905161904 | 62 | 0 | 0.0 | 0.0 | 0.00 | 0.03 | 0.03 | 81 | 1013.9 |
| 20260905161803 | 62 | 0 | 0.0 | 0.0 | 0.00 | 0.03 | 0.03 | 81 | 1013.8 |
| 20260905161704 | 62 | 0 | 0.0 | 0.0 | 0.00 | 0.03 | 0.03 | 81 | 1013.8 |
| 20260905161625 | 62 | 0 | 0.0 | 0.0 | 0.00 | 0.03 | 0.03 | 81 | 1013.8 |
| 20260905161525 | 62 | 0 | 0.0 | 0.0 | 0.00 | 0.03 | 0.03 | 81 | 1013.6 |
| 20260905161404 | 62 | 0 | 0.0 | 0.0 | 0.00 | 0.03 | 0.03 | 81 | 1013.9 |
| 20260905161304 | 62 | 0 | 0.0 | 0.0 | 0.00 | 0.03 | 0.03 | 81 | 1013.9 |
| 20260905161203 | 62 | 0 | 0.0 | 0.0 | 0.00 | 0.03 | 0.03 | 81 | 1014.0 |
| 20260905161125 | 62 | 0 | 0.0 | 0.0 | 0.00 | 0.03 | 0.03 | 81 | 1014.0 |
| 20260905161004 | 62 | 0 | 0.0 | 0.0 | 0.01 | 0.03 | 0.03 | 81 | 1013.9 |
| 20260905160904 | 62 | 0 | 0.0 | 0.0 | 0.01 | 0.03 | 0.03 | 81 | 1013.9 |
| 20260905160803 | 62 | 0 | 0.0 | 0.0 | 0.01 | 0.03 | 0.03 | 81 | 1013.7 |
| 20260905160725 | 62 | 0 | 0.0 | 0.0 | 0.01 | 0.03 | 0.03 | 81 | 1013.7 |
| 20260905160604 | 62 | 0 | 0.0 | 0.0 | 0.01 | 0.03 | 0.03 | 81 | 1013.9 |
| 20260905160504 | 62 | 0 | 0.0 | 0.0 | 0.01 | 0.03 | 0.03 | 80 | 1013.9 |
| 20260905160403 | 62 | 0 | 0.0 | 0.0 | 0.01 | 0.03 | 0.03 | 81 | 1013.7 |
| 20260905160303 | 61 | 0 | 0.0 | 0.0 | 0.02 | 0.03 | 0.03 | 80 | 1013.8 |
| 20260905160205 | 61 | 0 | 0.0 | 0.0 | 0.02 | 0.03 | 0.03 | 80 | 1013.9 |
| 20260905160025 | 61 | 0 | 0.0 | 0.0 | 0.03 | 0.03 | 0.03 | 81 | 1013.9 |
| 20260905155903 | 61 | 0 | 0.0 | 0.0 | 0.03 | 0.03 | 0.03 | 81 | 1013.8 |
| 20260905155804 | 61 | 0 | 0.0 | 0.0 | 0.03 | 0.03 | 0.03 | 81 | 1013.5 |
| 20260905155703 | 61 | 0 | 0.0 | 0.0 | 0.03 | 0.03 | 0.03 | 81 | 1013.8 |
| 20260905155604 | 61 | 0 | 0.0 | 0.0 | 0.03 | 0.03 | 0.03 | 81 | 1014.0 |
| 20260905155504 | 61 | 0 | 0.0 | 0.0 | 0.03 | 0.03 | 0.03 | 81 | 1013.7 |
| 20260905155425 | 61 | 0 | 0.0 | 0.0 | 0.03 | 0.03 | 0.03 | 81 | 1013.7 |
| 20260905155306 | 61 | 0 | 0.0 | 0.0 | 0.03 | 0.03 | 0.03 | 80 | 1013.5 |
| 20260905155203 | 61 | 0 | 0.0 | 0.0 | 0.03 | 0.03 | 0.03 | 80 | 1013.6 |
| 20260905155104 | 61 | 0 | 0.0 | 0.0 | 0.03 | 0.03 | 0.03 | 80 | 1013.8 |
| 20260905155004 | 61 | 0 | 0.0 | 0.0 | 0.03 | 0.03 | 0.03 | 79 | 1014.0 |
| 20260905154904 | 61 | 0 | 0.0 | 0.0 | 0.03 | 0.03 | 0.03 | 80 | 1014.0 |
| 20260905154804 | 61 | 0 | 0.0 | 0.0 | 0.03 | 0.03 | 0.03 | 80 | 1014.1 |
| 20260905154704 | 61 | 0 | 0.0 | 0.0 | 0.03 | 0.03 | 0.03 | 80 | 1014.0 |
| 20260905154604 | 61 | 0 | 0.0 | 0.0 | 0.03 | 0.03 | 0.03 | 80 | 1014.1 |
| 20260905154525 | 61 | 0 | 0.0 | 0.0 | 0.03 | 0.03 | 0.03 | 80 | 1014.1 |
| 20260905154404 | 61 | 0 | 0.0 | 0.0 | 0.03 | 0.03 | 0.03 | 81 | 1014.0 |
| 20260905154304 | 61 | 0 | 0.0 | 0.0 | 0.03 | 0.03 | 0.03 | 81 | 1014.4 |
| 20260905154203 | 61 | 0 | 0.0 | 0.0 | 0.03 | 0.03 | 0.03 | 81 | 1014.1 |
| 20260905154104 | 61 | 0 | 0.0 | 0.0 | 0.03 | 0.03 | 0.03 | 80 | 1014.1 |
| 20260905154025 | 61 | 0 | 0.0 | 0.0 | 0.03 | 0.03 | 0.03 | 80 | 1014.1 |
| 20260905153904 | 61 | 0 | 0.0 | 0.0 | 0.03 | 0.03 | 0.03 | 80 | 1014.3 |
| 20260905153803 | 61 | 0 | 0.0 | 0.0 | 0.03 | 0.03 | 0.03 | 80 | 1014.2 |
| 20260905153704 | 61 | 0 | 0.0 | 0.0 | 0.03 | 0.03 | 0.03 | 80 | 1014.2 |
| 20260905153604 | 61 | 0 | 0.0 | 0.0 | 0.03 | 0.03 | 0.03 | 80 | 1014.3 |
| 20260905153504 | 61 | 0 | 0.0 | 0.0 | 0.03 | 0.03 | 0.03 | 79 | 1014.0 |
| 20260905153404 | 61 | 0 | 0.0 | 0.0 | 0.03 | 0.03 | 0.03 | 79 | 1014.2 |
| 20260905153303 | 61 | 0 | 0.0 | 0.0 | 0.03 | 0.03 | 0.03 | 79 | 1014.3 |
| 20260905153203 | 61 | 0 | 0.0 | 0.0 | 0.03 | 0.03 | 0.03 | 79 | 1014.2 |
| 20260905153124 | 61 | 0 | 0.0 | 0.0 | 0.03 | 0.03 | 0.03 | 78 | 1014.2 |
| 20260905153004 | 61 | 0 | 0.0 | 0.0 | 0.03 | 0.03 | 0.03 | 78 | 1014.4 |
| 20260905152903 | 61 | 0 | 0.0 | 0.0 | 0.03 | 0.03 | 0.03 | 78 | 1014.1 |
| 20260905152803 | 61 | 0 | 0.0 | 0.0 | 0.03 | 0.03 | 0.03 | 78 | 1014.1 |
| 20260905152703 | 61 | 0 | 0.0 | 0.0 | 0.03 | 0.03 | 0.03 | 78 | 1014.3 |
| 20260905152603 | 61 | 0 | 0.0 | 0.0 | 0.03 | 0.03 | 0.03 | 78 | 1014.1 |
| 20260905152504 | 61 | 0 | 0.0 | 0.0 | 0.03 | 0.03 | 0.03 | 77 | 1014.3 |
| 20260905152403 | 61 | 0 | 0.0 | 0.0 | 0.03 | 0.03 | 0.03 | 77 | 1014.1 |
| 20260905152306 | 61 | 0 | 0.0 | 0.0 | 0.03 | 0.03 | 0.03 | 76 | 1014.1 |
| 20260905152204 | 62 | 0 | 0.0 | 0.0 | 0.03 | 0.03 | 0.03 | 76 | 1014.1 |
| 20260905152103 | 62 | 0 | 0.0 | 0.0 | 0.03 | 0.03 | 0.03 | 76 | 1014.3 |
| 20260905152003 | 62 | 0 | 0.0 | 0.0 | 0.03 | 0.03 | 0.03 | 76 | 1014.0 |
| 20260905151904 | 62 | 0 | 0.0 | 0.0 | 0.03 | 0.03 | 0.03 | 76 | 1014.2 |
| 20260905151804 | 62 | 0 | 0.0 | 0.0 | 0.03 | 0.03 | 0.03 | 74 | 1014.0 |
| 20260905151703 | 62 | 0 | 0.0 | 0.0 | 0.03 | 0.03 | 0.03 | 75 | 1014.3 |
| 20260905151625 | 62 | 0 | 0.0 | 0.0 | 0.03 | 0.03 | 0.03 | 74 | 1014.3 |
| 20260905151525 | 62 | 192 | 0.0 | 1.7 | 0.03 | 0.03 | 0.03 | 74 | 1014.2 |
| 20260905151403 | 62 | 189 | 0.0 | 1.7 | 0.03 | 0.03 | 0.03 | 74 | 1014.1 |
| 20260905151303 | 62 | 189 | 0.0 | 1.7 | 0.03 | 0.03 | 0.03 | 74 | 1014.3 |
| 20260905151225 | 63 | 189 | 0.0 | 1.7 | 0.03 | 0.03 | 0.03 | 74 | 1014.3 |
| 20260905151104 | 63 | 181 | 0.0 | 1.7 | 0.03 | 0.03 | 0.03 | 74 | 1014.0 |
| 20260905151004 | 63 | 197 | 0.0 | 1.7 | 0.02 | 0.02 | 0.02 | 73 | 1014.1 |
| 20260905150904 | 63 | 207 | 0.0 | 5.2 | 0.02 | 0.02 | 0.02 | 73 | 1014.0 |
| 20260905150825 | 63 | 205 | 0.0 | 5.2 | 0.02 | 0.02 | 0.02 | 72 | 1014.0 |
| 20260905150704 | 64 | 200 | 0.0 | 5.2 | 0.02 | 0.02 | 0.02 | 69 | 1014.1 |
| 20260905150604 | 64 | 177 | 0.0 | 5.2 | 0.02 | 0.02 | 0.02 | 69 | 1014.1 |
| 20260905150503 | 64 | 153 | 0.9 | 6.1 | 0.02 | 0.02 | 0.02 | 69 | 1014.2 |
| 20260905150404 | 64 | 165 | 0.9 | 6.1 | 0.02 | 0.02 | 0.02 | 68 | 1014.4 |
| 20260905150303 | 65 | 160 | 0.9 | 6.1 | 0.01 | 0.01 | 0.01 | 66 | 1014.2 |
| 20260905150224 | 65 | 158 | 0.9 | 6.1 | 0.01 | 0.01 | 0.01 | 66 | 1014.2 |
| 20260905150104 | 65 | 149 | 0.9 | 6.1 | 0.01 | 0.01 | 0.01 | 64 | 1014.6 |
| 20260905150004 | 66 | 143 | 0.9 | 6.1 | 0.00 | 0.00 | 0.00 | 62 | 1014.4 |
| 20260905145903 | 66 | 136 | 0.9 | 6.1 | 0.00 | 0.00 | 0.00 | 63 | 1014.7 |
| 20260905145804 | 66 | 133 | 0.9 | 6.1 | 0.00 | 0.00 | 0.00 | 61 | 1014.8 |
| 20260905145704 | 67 | 135 | 0.9 | 6.1 | 0.00 | 0.00 | 0.00 | 60 | 1014.3 |
| 20260905145625 | 67 | 132 | 0.9 | 6.1 | 0.00 | 0.00 | 0.00 | 61 | 1014.3 |
| 20260905145504 | 67 | 145 | 0.9 | 5.2 | 0.00 | 0.00 | 0.00 | 58 | 1014.6 |
| 20260905145403 | 68 | 132 | 0.9 | 5.2 | 0.00 | 0.00 | 0.00 | 56 | 1014.4 |
| 20260905145306 | 68 | 118 | 0.9 | 5.2 | 0.00 | 0.00 | 0.00 | 56 | 1014.4 |
| 20260905145203 | 68 | 115 | 0.9 | 5.2 | 0.00 | 0.00 | 0.00 | 55 | 1014.6 |
| 20260905145103 | 69 | 115 | 0.9 | 5.2 | 0.00 | 0.00 | 0.00 | 55 | 1014.1 |
| 20260905145004 | 69 | 115 | 0.9 | 5.2 | 0.00 | 0.00 | 0.00 | 55 | 1014.7 |
| 20260905144903 | 69 | 99 | 0.9 | 5.2 | 0.00 | 0.00 | 0.00 | 54 | 1014.3 |
| 20260905144803 | 69 | 108 | 0.0 | 5.2 | 0.00 | 0.00 | 0.00 | 54 | 1014.3 |
| 20260905144724 | 69 | 103 | 0.9 | 5.2 | 0.00 | 0.00 | 0.00 | 53 | 1014.3 |
| 20260905144603 | 69 | 72 | 0.9 | 5.2 | 0.00 | 0.00 | 0.00 | 54 | 1014.0 |
| 20260905144504 | 69 | 68 | 0.9 | 5.2 | 0.00 | 0.00 | 0.00 | 54 | 1014.1 |
| 20260905144403 | 69 | 69 | 0.9 | 5.2 | 0.00 | 0.00 | 0.00 | 54 | 1013.9 |
| 20260905144303 | 69 | 103 | 0.9 | 5.2 | 0.00 | 0.00 | 0.00 | 54 | 1014.3 |
| 20260905144203 | 69 | 109 | 0.9 | 5.2 | 0.00 | 0.00 | 0.00 | 54 | 1014.1 |
| 20260905144103 | 69 | 139 | 0.9 | 5.2 | 0.00 | 0.00 | 0.00 | 54 | 1013.9 |
| 20260905144004 | 69 | 128 | 0.9 | 5.2 | 0.00 | 0.00 | 0.00 | 54 | 1013.6 |
| 20260905143903 | 69 | 129 | 0.9 | 5.2 | 0.00 | 0.00 | 0.00 | 54 | 1013.7 |
| 20260905143804 | 69 | 137 | 0.9 | 5.2 | 0.00 | 0.00 | 0.00 | 54 | 1013.8 |
| 20260905143704 | 70 | 148 | 0.9 | 5.2 | 0.00 | 0.00 | 0.00 | 53 | 1013.7 |
| 20260905143603 | 70 | 152 | 0.9 | 5.2 | 0.00 | 0.00 | 0.00 | 53 | 1013.8 |
| 20260905143503 | 70 | 152 | 0.9 | 5.2 | 0.00 | 0.00 | 0.00 | 53 | 1013.9 |
| 20260905143404 | 70 | 156 | 0.9 | 5.2 | 0.00 | 0.00 | 0.00 | 52 | 1014.1 |
| 20260905143303 | 70 | 146 | 0.9 | 5.2 | 0.00 | 0.00 | 0.00 | 52 | 1013.8 |
| 20260905143224 | 70 | 142 | 0.9 | 5.2 | 0.00 | 0.00 | 0.00 | 52 | 1013.8 |
| 20260905143104 | 70 | 127 | 0.9 | 6.1 | 0.00 | 0.00 | 0.00 | 51 | 1013.8 |
| 20260905143003 | 70 | 115 | 0.9 | 7.0 | 0.00 | 0.00 | 0.00 | 51 | 1013.5 |
| 20260905142903 | 70 | 115 | 0.9 | 7.0 | 0.00 | 0.00 | 0.00 | 51 | 1013.7 |
| 20260905142803 | 70 | 103 | 0.9 | 7.0 | 0.00 | 0.00 | 0.00 | 50 | 1013.6 |
| 20260905142703 | 70 | 102 | 0.9 | 7.0 | 0.00 | 0.00 | 0.00 | 51 | 1013.6 |
| 20260905142604 | 70 | 112 | 0.9 | 7.0 | 0.00 | 0.00 | 0.00 | 51 | 1013.5 |
| 20260905142504 | 70 | 113 | 0.9 | 7.0 | 0.00 | 0.00 | 0.00 | 51 | 1013.6 |
| 20260905142424 | 70 | 103 | 0.9 | 7.0 | 0.00 | 0.00 | 0.00 | 51 | 1013.6 |
| 20260905142306 | 71 | 88 | 0.9 | 7.0 | 0.00 | 0.00 | 0.00 | 50 | 1013.8 |
| 20260905142203 | 71 | 69 | 0.9 | 7.0 | 0.00 | 0.00 | 0.00 | 50 | 1013.8 |
| 20260905142104 | 71 | 77 | 0.9 | 7.0 | 0.00 | 0.00 | 0.00 | 50 | 1013.9 |
| 20260905142004 | 71 | 97 | 0.9 | 6.1 | 0.00 | 0.00 | 0.00 | 50 | 1013.9 |
| 20260905141903 | 71 | 103 | 0.9 | 6.1 | 0.00 | 0.00 | 0.00 | 50 | 1013.5 |
| 20260905141803 | 72 | 111 | 0.9 | 6.1 | 0.00 | 0.00 | 0.00 | 48 | 1013.5 |
| 20260905141703 | 72 | 116 | 0.9 | 6.1 | 0.00 | 0.00 | 0.00 | 48 | 1013.6 |
| 20260905141604 | 72 | 123 | 0.9 | 6.1 | 0.00 | 0.00 | 0.00 | 47 | 1013.8 |
| 20260905141503 | 72 | 116 | 0.9 | 5.2 | 0.00 | 0.00 | 0.00 | 46 | 1013.8 |
| 20260905141403 | 72 | 130 | 0.9 | 5.2 | 0.00 | 0.00 | 0.00 | 46 | 1013.5 |
| 20260905141303 | 72 | 137 | 0.9 | 5.2 | 0.00 | 0.00 | 0.00 | 46 | 1013.5 |
| 20260905141203 | 72 | 147 | 0.9 | 3.5 | 0.00 | 0.00 | 0.00 | 45 | 1013.6 |
| 20260905141104 | 73 | 153 | 0.9 | 5.2 | 0.00 | 0.00 | 0.00 | 45 | 1013.6 |
| 20260905141003 | 73 | 154 | 0.9 | 5.2 | 0.00 | 0.00 | 0.00 | 45 | 1013.4 |
| 20260905140903 | 73 | 148 | 0.9 | 5.2 | 0.00 | 0.00 | 0.00 | 45 | 1013.6 |
| 20260905140803 | 73 | 142 | 0.9 | 5.2 | 0.00 | 0.00 | 0.00 | 45 | 1013.5 |
| 20260905140703 | 73 | 128 | 0.9 | 5.2 | 0.00 | 0.00 | 0.00 | 45 | 1013.7 |
| 20260905140604 | 73 | 131 | 0.9 | 5.2 | 0.00 | 0.00 | 0.00 | 45 | 1013.6 |
| 20260905140504 | 73 | 124 | 0.9 | 5.2 | 0.00 | 0.00 | 0.00 | 45 | 1013.5 |
| 20260905140403 | 73 | 128 | 0.9 | 5.2 | 0.00 | 0.00 | 0.00 | 45 | 1013.4 |
| 20260905140304 | 73 | 117 | 0.9 | 5.2 | 0.00 | 0.00 | 0.00 | 45 | 1013.3 |
| 20260905140225 | 73 | 120 | 0.9 | 5.2 | 0.00 | 0.00 | 0.00 | 44 | 1013.3 |
| 20260905140103 | 73 | 55 | 0.9 | 7.0 | 0.00 | 0.00 | 0.00 | 45 | 1013.2 |
| 20260905140004 | 73 | 56 | 1.7 | 7.0 | 0.00 | 0.00 | 0.00 | 45 | 1013.5 |
| 20260905135903 | 73 | 51 | 1.7 | 7.0 | 0.00 | 0.00 | 0.00 | 45 | 1013.5 |
| 20260905135804 | 73 | 52 | 1.7 | 7.0 | 0.00 | 0.00 | 0.00 | 45 | 1013.4 |
| 20260905135703 | 73 | 47 | 0.9 | 7.0 | 0.00 | 0.00 | 0.00 | 44 | 1013.4 |
| 20260905135604 | 74 | 34 | 0.9 | 7.0 | 0.00 | 0.00 | 0.00 | 44 | 1013.1 |
| 20260905135503 | 74 | 19 | 0.9 | 7.0 | 0.00 | 0.00 | 0.00 | 44 | 1013.0 |
| 20260905135424 | 74 | 14 | 0.9 | 7.0 | 0.00 | 0.00 | 0.00 | 44 | 1013.0 |
| 20260905135306 | 74 | 41 | 0.9 | 7.0 | 0.00 | 0.00 | 0.00 | 43 | 1012.9 |
| 20260905135203 | 74 | 95 | 0.9 | 7.0 | 0.00 | 0.00 | 0.00 | 43 | 1013.2 |
| 20260905135103 | 74 | 185 | 0.9 | 6.1 | 0.00 | 0.00 | 0.00 | 43 | 1012.9 |
| 20260905135004 | 74 | 170 | 0.9 | 6.1 | 0.00 | 0.00 | 0.00 | 43 | 1013.1 |
| 20260905134903 | 74 | 176 | 0.9 | 6.1 | 0.00 | 0.00 | 0.00 | 43 | 1012.9 |
| 20260905134803 | 74 | 169 | 0.9 | 6.1 | 0.00 | 0.00 | 0.00 | 43 | 1013.2 |
| 20260905134704 | 74 | 172 | 0.9 | 6.1 | 0.00 | 0.00 | 0.00 | 43 | 1012.9 |
| 20260905134624 | 74 | 173 | 0.9 | 6.1 | 0.00 | 0.00 | 0.00 | 42 | 1012.9 |
| 20260905134504 | 75 | 180 | 0.9 | 6.1 | 0.00 | 0.00 | 0.00 | 42 | 1013.0 |
| 20260905134404 | 75 | 171 | 0.9 | 6.1 | 0.00 | 0.00 | 0.00 | 41 | 1013.1 |
| 20260905134303 | 75 | 154 | 0.9 | 7.0 | 0.00 | 0.00 | 0.00 | 41 | 1013.1 |
| 20260905134203 | 75 | 156 | 0.9 | 7.0 | 0.00 | 0.00 | 0.00 | 41 | 1013.0 |
| 20260905134104 | 75 | 137 | 0.9 | 7.0 | 0.00 | 0.00 | 0.00 | 41 | 1013.3 |
| 20260905134004 | 75 | 143 | 0.9 | 7.0 | 0.00 | 0.00 | 0.00 | 41 | 1013.3 |
| 20260905133903 | 75 | 146 | 0.9 | 7.0 | 0.00 | 0.00 | 0.00 | 40 | 1013.2 |
| 20260905133803 | 75 | 144 | 0.9 | 7.0 | 0.00 | 0.00 | 0.00 | 41 | 1013.1 |
| 20260905133704 | 75 | 141 | 0.9 | 7.0 | 0.00 | 0.00 | 0.00 | 40 | 1013.2 |
| 20260905133625 | 75 | 144 | 0.9 | 7.0 | 0.00 | 0.00 | 0.00 | 40 | 1013.2 |
| 20260905133503 | 75 | 137 | 0.9 | 7.0 | 0.00 | 0.00 | 0.00 | 40 | 1013.1 |
| 20260905133403 | 75 | 134 | 0.9 | 7.0 | 0.00 | 0.00 | 0.00 | 40 | 1013.0 |
| 20260905133324 | 75 | 129 | 0.9 | 7.0 | 0.00 | 0.00 | 0.00 | 40 | 1013.0 |
| 20260905133204 | 76 | 96 | 0.9 | 6.1 | 0.00 | 0.00 | 0.00 | 40 | 1012.9 |
| 20260905133104 | 76 | 67 | 0.9 | 6.1 | 0.00 | 0.00 | 0.00 | 40 | 1013.1 |
| 20260905133004 | 76 | 53 | 0.9 | 6.1 | 0.00 | 0.00 | 0.00 | 40 | 1013.1 |
| 20260905132904 | 76 | 95 | 0.9 | 6.1 | 0.00 | 0.00 | 0.00 | 40 | 1013.0 |
| 20260905132803 | 76 | 138 | 0.9 | 6.1 | 0.00 | 0.00 | 0.00 | 40 | 1013.1 |
| 20260905132704 | 76 | 134 | 0.9 | 6.1 | 0.00 | 0.00 | 0.00 | 41 | 1013.1 |
| 20260905132603 | 76 | 122 | 0.9 | 6.1 | 0.00 | 0.00 | 0.00 | 40 | 1013.2 |
| 20260905132503 | 76 | 103 | 0.9 | 6.1 | 0.00 | 0.00 | 0.00 | 40 | 1013.3 |
| 20260905132404 | 76 | 111 | 0.9 | 6.1 | 0.00 | 0.00 | 0.00 | 41 | 1013.2 |
| 20260905132306 | 76 | 119 | 0.9 | 6.1 | 0.00 | 0.00 | 0.00 | 40 | 1013.1 |
| 20260905132203 | 76 | 142 | 1.7 | 7.0 | 0.00 | 0.00 | 0.00 | 41 | 1013.1 |
| 20260905132103 | 76 | 154 | 0.9 | 7.0 | 0.00 | 0.00 | 0.00 | 41 | 1013.1 |
| 20260905132003 | 76 | 152 | 0.9 | 7.0 | 0.00 | 0.00 | 0.00 | 41 | 1013.1 |
| 20260905131903 | 76 | 117 | 1.7 | 7.0 | 0.00 | 0.00 | 0.00 | 43 | 1012.9 |
| 20260905131803 | 76 | 103 | 1.7 | 7.0 | 0.00 | 0.00 | 0.00 | 42 | 1013.2 |
| 20260905131703 | 76 | 69 | 1.7 | 7.0 | 0.00 | 0.00 | 0.00 | 42 | 1013.0 |
| 20260905131603 | 76 | 49 | 1.7 | 7.0 | 0.00 | 0.00 | 0.00 | 42 | 1013.1 |
| 20260905131503 | 76 | 53 | 1.7 | 7.0 | 0.00 | 0.00 | 0.00 | 42 | 1013.0 |
| 20260905131403 | 77 | 33 | 1.7 | 7.0 | 0.00 | 0.00 | 0.00 | 42 | 1013.0 |
| 20260905131326 | 77 | 57 | 1.7 | 7.0 | 0.00 | 0.00 | 0.00 | 42 | 1013.0 |
| 20260905131225 | 77 | 10 | 1.7 | 7.0 | 0.00 | 0.00 | 0.00 | 42 | 1013.2 |
| 20260905131104 | 77 | 102 | 1.7 | 7.0 | 0.00 | 0.00 | 0.00 | 43 | 1013.2 |
| 20260905131004 | 77 | 105 | 1.7 | 7.0 | 0.00 | 0.00 | 0.00 | 44 | 1013.1 |
| 20260905130903 | 77 | 210 | 1.7 | 7.0 | 0.00 | 0.00 | 0.00 | 44 | 1012.7 |
| 20260905130803 | 77 | 341 | 1.7 | 11.3 | 0.00 | 0.00 | 0.00 | 43 | 1012.9 |
| 20260905130703 | 78 | 23 | 1.7 | 11.3 | 0.00 | 0.00 | 0.00 | 44 | 1013.2 |
| 20260905130604 | 78 | 270 | 1.7 | 11.3 | 0.00 | 0.00 | 0.00 | 44 | 1013.1 |
| 20260905130504 | 78 | 124 | 1.7 | 11.3 | 0.00 | 0.00 | 0.00 | 44 | 1013.1 |
| 20260905130404 | 78 | 144 | 1.7 | 11.3 | 0.00 | 0.00 | 0.00 | 45 | 1013.0 |
| 20260905130303 | 78 | 121 | 0.9 | 11.3 | 0.00 | 0.00 | 0.00 | 45 | 1012.9 |
| 20260905130203 | 78 | 131 | 1.7 | 11.3 | 0.00 | 0.00 | 0.00 | 46 | 1012.9 |
| 20260905130004 | 78 | 110 | 1.7 | 11.3 | 0.00 | 0.00 | 0.00 | 46 | 1012.8 |
| 20260905125925 | 78 | 115 | 1.7 | 11.3 | 0.00 | 0.00 | 0.00 | 46 | 1012.8 |
| 20260905125803 | 78 | 128 | 1.7 | 6.1 | 0.00 | 0.00 | 0.00 | 46 | 1012.8 |
| 20260905125703 | 78 | 133 | 0.9 | 6.1 | 0.00 | 0.00 | 0.00 | 46 | 1012.9 |
| 20260905125631 | 78 | 133 | 0.9 | 6.1 | 0.00 | 0.00 | 0.00 | 46 | 1012.9 |
| 20260905125525 | 78 | 130 | 0.9 | 6.1 | 0.00 | 0.00 | 0.00 | 46 | 1012.9 |
| 20260905125403 | 78 | 117 | 0.9 | 6.1 | 0.00 | 0.00 | 0.00 | 48 | 1012.7 |
| 20260905125306 | 78 | 115 | 0.9 | 6.1 | 0.00 | 0.00 | 0.00 | 47 | 1012.8 |
| 20260905125204 | 78 | 105 | 0.9 | 6.1 | 0.00 | 0.00 | 0.00 | 47 | 1013.0 |
| 20260905125103 | 78 | 93 | 0.9 | 6.1 | 0.00 | 0.00 | 0.00 | 48 | 1012.6 |
| 20260905125025 | 78 | 101 | 0.9 | 6.1 | 0.00 | 0.00 | 0.00 | 47 | 1012.6 |
| 20260905124904 | 78 | 112 | 0.9 | 5.2 | 0.00 | 0.00 | 0.00 | 47 | 1012.8 |
| 20260905124804 | 78 | 144 | 0.9 | 6.1 | 0.00 | 0.00 | 0.00 | 47 | 1012.8 |
| 20260905124703 | 78 | 164 | 0.9 | 6.1 | 0.00 | 0.00 | 0.00 | 48 | 1012.8 |
| 20260905124604 | 79 | 139 | 0.9 | 6.1 | 0.00 | 0.00 | 0.00 | 47 | 1012.7 |
| 20260905124504 | 79 | 160 | 0.0 | 6.1 | 0.00 | 0.00 | 0.00 | 48 | 1012.8 |
| 20260905124403 | 79 | 150 | 0.9 | 6.1 | 0.00 | 0.00 | 0.00 | 48 | 1012.8 |
| 20260905124303 | 79 | 174 | 0.9 | 6.1 | 0.00 | 0.00 | 0.00 | 48 | 1012.8 |
| 20260905124203 | 79 | 171 | 0.9 | 6.1 | 0.00 | 0.00 | 0.00 | 47 | 1012.7 |
| 20260905124124 | 79 | 169 | 0.9 | 6.1 | 0.00 | 0.00 | 0.00 | 47 | 1012.7 |
| 20260905124024 | 79 | 139 | 0.9 | 6.1 | 0.00 | 0.00 | 0.00 | 47 | 1012.7 |
| 20260905123924 | 79 | 120 | 0.9 | 6.1 | 0.00 | 0.00 | 0.00 | 47 | 1012.6 |
| 20260905123803 | 79 | 147 | 0.9 | 5.2 | 0.00 | 0.00 | 0.00 | 47 | 1012.7 |
| 20260905123724 | 79 | 141 | 0.9 | 5.2 | 0.00 | 0.00 | 0.00 | 47 | 1012.7 |
| 20260905123603 | 79 | 159 | 0.9 | 5.2 | 0.00 | 0.00 | 0.00 | 47 | 1012.6 |
| 20260905123525 | 79 | 152 | 0.9 | 5.2 | 0.00 | 0.00 | 0.00 | 47 | 1012.6 |
| 20260905123403 | 79 | 169 | 0.9 | 6.1 | 0.00 | 0.00 | 0.00 | 47 | 1012.6 |
| 20260905123303 | 79 | 171 | 0.9 | 6.1 | 0.00 | 0.00 | 0.00 | 47 | 1012.6 |
| 20260905123203 | 79 | 173 | 0.9 | 7.0 | 0.00 | 0.00 | 0.00 | 47 | 1012.6 |
| 20260905123103 | 79 | 175 | 0.9 | 7.0 | 0.00 | 0.00 | 0.00 | 47 | 1012.5 |
| 20260905123003 | 79 | 171 | 0.9 | 7.0 | 0.00 | 0.00 | 0.00 | 47 | 1012.6 |
| 20260905122903 | 79 | 176 | 0.9 | 7.0 | 0.00 | 0.00 | 0.00 | 47 | 1012.6 |
| 20260905122803 | 79 | 168 | 0.9 | 7.0 | 0.00 | 0.00 | 0.00 | 47 | 1012.9 |
| 20260905122703 | 79 | 165 | 0.9 | 7.0 | 0.00 | 0.00 | 0.00 | 47 | 1012.4 |
| 20260905122604 | 79 | 165 | 1.7 | 7.0 | 0.00 | 0.00 | 0.00 | 46 | 1012.6 |
| 20260905122504 | 80 | 166 | 0.9 | 7.0 | 0.00 | 0.00 | 0.00 | 46 | 1012.7 |
| 20260905122404 | 80 | 163 | 0.9 | 7.0 | 0.00 | 0.00 | 0.00 | 46 | 1012.6 |
| 20260905122306 | 80 | 159 | 0.9 | 7.0 | 0.00 | 0.00 | 0.00 | 46 | 1012.5 |
| 20260905122204 | 80 | 157 | 0.9 | 6.1 | 0.00 | 0.00 | 0.00 | 46 | 1012.4 |
| 20260905122105 | 80 | 158 | 0.9 | 6.1 | 0.00 | 0.00 | 0.00 | 47 | 1012.3 |
| 20260905122003 | 80 | 168 | 0.9 | 6.1 | 0.00 | 0.00 | 0.00 | 46 | 1012.4 |
| 20260905121903 | 80 | 164 | 0.9 | 6.1 | 0.00 | 0.00 | 0.00 | 46 | 1012.5 |
| 20260905121804 | 80 | 168 | 0.9 | 6.1 | 0.00 | 0.00 | 0.00 | 46 | 1012.5 |
| 20260905121703 | 80 | 175 | 0.9 | 6.1 | 0.00 | 0.00 | 0.00 | 46 | 1012.3 |
| 20260905121604 | 80 | 173 | 0.9 | 6.1 | 0.00 | 0.00 | 0.00 | 46 | 1012.5 |
| 20260905121504 | 80 | 173 | 0.9 | 6.1 | 0.00 | 0.00 | 0.00 | 46 | 1012.4 |
| 20260905121403 | 80 | 177 | 0.9 | 6.1 | 0.00 | 0.00 | 0.00 | 46 | 1012.4 |
| 20260905121303 | 80 | 163 | 1.7 | 6.1 | 0.00 | 0.00 | 0.00 | 46 | 1012.6 |
| 20260905121203 | 80 | 166 | 0.9 | 6.1 | 0.00 | 0.00 | 0.00 | 46 | 1012.4 |
| 20260905121103 | 80 | 167 | 1.7 | 8.7 | 0.00 | 0.00 | 0.00 | 46 | 1012.4 |
| 20260905121003 | 80 | 155 | 1.7 | 8.7 | 0.00 | 0.00 | 0.00 | 46 | 1012.3 |
| 20260905120904 | 80 | 152 | 1.7 | 8.7 | 0.00 | 0.00 | 0.00 | 46 | 1012.7 |
| 20260905120805 | 80 | 145 | 1.7 | 8.7 | 0.00 | 0.00 | 0.00 | 46 | 1012.5 |
| 20260905120704 | 80 | 143 | 1.7 | 8.7 | 0.00 | 0.00 | 0.00 | 46 | 1012.3 |
| 20260905120625 | 80 | 141 | 1.7 | 8.7 | 0.00 | 0.00 | 0.00 | 45 | 1012.3 |
| 20260905120503 | 80 | 134 | 1.7 | 8.7 | 0.00 | 0.00 | 0.00 | 45 | 1012.4 |
| 20260905120404 | 80 | 134 | 1.7 | 8.7 | 0.00 | 0.00 | 0.00 | 45 | 1012.3 |
| 20260905120303 | 80 | 145 | 0.9 | 8.7 | 0.00 | 0.00 | 0.00 | 45 | 1012.5 |
| 20260905120205 | 80 | 149 | 0.9 | 8.7 | 0.00 | 0.00 | 0.00 | 45 | 1012.4 |
| 20260905120104 | 80 | 151 | 0.9 | 6.1 | 0.00 | 0.00 | 0.00 | 45 | 1012.4 |
| 20260905120004 | 80 | 183 | 0.9 | 6.1 | 0.00 | 0.00 | 0.00 | 45 | 1012.5 |
| 20260905115905 | 80 | 197 | 0.9 | 7.0 | 0.00 | 0.00 | 0.00 | 46 | 1012.5 |
| 20260905115804 | 80 | 201 | 0.9 | 7.0 | 0.00 | 0.00 | 0.00 | 45 | 1012.1 |
| 20260905115703 | 81 | 213 | 0.9 | 7.0 | 0.00 | 0.00 | 0.00 | 45 | 1012.4 |
| 20260905115625 | 81 | 212 | 0.9 | 7.0 | 0.00 | 0.00 | 0.00 | 45 | 1012.4 |
| 20260905115503 | 81 | 231 | 0.9 | 7.0 | 0.00 | 0.00 | 0.00 | 45 | 1012.3 |
| 20260905115403 | 81 | 237 | 0.9 | 7.0 | 0.00 | 0.00 | 0.00 | 45 | 1012.5 |
| 20260905115306 | 81 | 241 | 0.9 | 7.0 | 0.00 | 0.00 | 0.00 | 45 | 1012.1 |
| 20260905115203 | 81 | 221 | 0.9 | 7.0 | 0.00 | 0.00 | 0.00 | 45 | 1011.9 |
| 20260905115103 | 81 | 191 | 0.9 | 7.0 | 0.00 | 0.00 | 0.00 | 45 | 1012.2 |
| 20260905115003 | 81 | 191 | 0.9 | 7.0 | 0.00 | 0.00 | 0.00 | 45 | 1012.3 |
| 20260905114905 | 81 | 140 | 0.9 | 7.0 | 0.00 | 0.00 | 0.00 | 45 | 1012.3 |
| 20260905114803 | 81 | 105 | 0.9 | 6.1 | 0.00 | 0.00 | 0.00 | 45 | 1011.9 |
| 20260905114703 | 81 | 127 | 0.9 | 6.1 | 0.00 | 0.00 | 0.00 | 45 | 1012.4 |
| 20260905114604 | 81 | 116 | 0.9 | 6.1 | 0.00 | 0.00 | 0.00 | 45 | 1012.1 |
| 20260905114504 | 81 | 127 | 0.9 | 6.1 | 0.00 | 0.00 | 0.00 | 45 | 1012.2 |
| 20260905114404 | 81 | 118 | 0.9 | 6.1 | 0.00 | 0.00 | 0.00 | 45 | 1012.2 |
| 20260905114304 | 81 | 130 | 0.9 | 6.1 | 0.00 | 0.00 | 0.00 | 45 | 1012.1 |
| 20260905114224 | 81 | 133 | 0.9 | 6.1 | 0.00 | 0.00 | 0.00 | 45 | 1012.1 |
| 20260905114103 | 82 | 153 | 0.9 | 6.1 | 0.00 | 0.00 | 0.00 | 44 | 1012.1 |
| 20260905114024 | 82 | 155 | 0.9 | 6.1 | 0.00 | 0.00 | 0.00 | 44 | 1012.1 |
| 20260905113903 | 82 | 167 | 0.9 | 5.2 | 0.00 | 0.00 | 0.00 | 44 | 1012.2 |
| 20260905113803 | 82 | 170 | 0.9 | 5.2 | 0.00 | 0.00 | 0.00 | 44 | 1012.0 |
| 20260905113724 | 82 | 166 | 0.9 | 5.2 | 0.00 | 0.00 | 0.00 | 44 | 1012.0 |
| 20260905113624 | 82 | 176 | 0.9 | 7.0 | 0.00 | 0.00 | 0.00 | 44 | 1012.1 |
| 20260905113503 | 82 | 187 | 0.9 | 7.0 | 0.00 | 0.00 | 0.00 | 44 | 1012.0 |
| 20260905113403 | 82 | 202 | 1.7 | 7.0 | 0.00 | 0.00 | 0.00 | 44 | 1012.0 |
| 20260905113303 | 82 | 205 | 1.7 | 7.0 | 0.00 | 0.00 | 0.00 | 44 | 1011.9 |
| 20260905113203 | 82 | 204 | 1.7 | 7.0 | 0.00 | 0.00 | 0.00 | 44 | 1012.0 |
| 20260905113103 | 82 | 210 | 0.9 | 7.0 | 0.00 | 0.00 | 0.00 | 43 | 1012.0 |
| 20260905113024 | 82 | 214 | 0.9 | 7.0 | 0.00 | 0.00 | 0.00 | 43 | 1012.0 |
| 20260905112903 | 82 | 219 | 0.9 | 7.0 | 0.00 | 0.00 | 0.00 | 43 | 1011.8 |
| 20260905112803 | 82 | 217 | 0.9 | 7.0 | 0.00 | 0.00 | 0.00 | 43 | 1012.0 |
| 20260905112703 | 83 | 218 | 0.9 | 7.0 | 0.00 | 0.00 | 0.00 | 43 | 1011.9 |
| 20260905112603 | 83 | 211 | 0.9 | 5.2 | 0.00 | 0.00 | 0.00 | 42 | 1012.0 |
| 20260905112503 | 83 | 208 | 0.9 | 5.2 | 0.00 | 0.00 | 0.00 | 42 | 1011.8 |
| 20260905112424 | 83 | 195 | 0.9 | 5.2 | 0.00 | 0.00 | 0.00 | 42 | 1011.8 |
| 20260905112305 | 83 | 188 | 0.9 | 3.5 | 0.00 | 0.00 | 0.00 | 44 | 1011.7 |
| 20260905112203 | 83 | 183 | 0.9 | 3.5 | 0.00 | 0.00 | 0.00 | 43 | 1011.7 |
| 20260905112103 | 83 | 183 | 0.9 | 3.5 | 0.00 | 0.00 | 0.00 | 43 | 1011.7 |
| 20260905112003 | 83 | 182 | 0.9 | 3.5 | 0.00 | 0.00 | 0.00 | 44 | 1012.0 |
| 20260905111924 | 83 | 176 | 0.9 | 3.5 | 0.00 | 0.00 | 0.00 | 43 | 1012.0 |
| 20260905111803 | 83 | 177 | 0.9 | 3.5 | 0.00 | 0.00 | 0.00 | 43 | 1011.8 |
| 20260905111703 | 83 | 177 | 0.9 | 3.5 | 0.00 | 0.00 | 0.00 | 43 | 1011.7 |
| 20260905111603 | 83 | 177 | 0.9 | 3.5 | 0.00 | 0.00 | 0.00 | 43 | 1011.8 |
| 20260905111503 | 83 | 173 | 0.9 | 3.5 | 0.00 | 0.00 | 0.00 | 43 | 1011.7 |
| 20260905111403 | 83 | 171 | 0.9 | 3.5 | 0.00 | 0.00 | 0.00 | 43 | 1011.9 |
| 20260905111303 | 83 | 166 | 0.9 | 3.5 | 0.00 | 0.00 | 0.00 | 43 | 1011.7 |
| 20260905111203 | 83 | 177 | 0.9 | 3.5 | 0.00 | 0.00 | 0.00 | 44 | 1011.8 |
| 20260905111103 | 83 | 177 | 0.9 | 3.5 | 0.00 | 0.00 | 0.00 | 43 | 1011.9 |
| 20260905111024 | 83 | 173 | 0.9 | 3.5 | 0.00 | 0.00 | 0.00 | 43 | 1011.9 |
| 20260905110903 | 84 | 178 | 0.9 | 3.5 | 0.00 | 0.00 | 0.00 | 42 | 1011.7 |
| 20260905110803 | 84 | 176 | 0.9 | 3.5 | 0.00 | 0.00 | 0.00 | 42 | 1011.6 |
| 20260905110703 | 84 | 172 | 0.9 | 3.5 | 0.00 | 0.00 | 0.00 | 42 | 1011.8 |
| 20260905110603 | 84 | 179 | 0.9 | 3.5 | 0.00 | 0.00 | 0.00 | 42 | 1011.6 |
| 20260905110503 | 84 | 181 | 0.9 | 5.2 | 0.00 | 0.00 | 0.00 | 42 | 1011.7 |
| 20260905110403 | 84 | 184 | 1.7 | 7.0 | 0.00 | 0.00 | 0.00 | 42 | 1011.8 |
| 20260905110303 | 84 | 193 | 1.7 | 7.0 | 0.00 | 0.00 | 0.00 | 42 | 1011.7 |
| 20260905110203 | 85 | 193 | 1.7 | 7.0 | 0.00 | 0.00 | 0.00 | 41 | 1011.8 |
| 20260905110124 | 85 | 191 | 1.7 | 7.0 | 0.00 | 0.00 | 0.00 | 42 | 1011.8 |
| 20260905110003 | 85 | 192 | 1.7 | 7.0 | 0.00 | 0.00 | 0.00 | 42 | 1011.6 |
| 20260905105903 | 85 | 193 | 0.9 | 7.0 | 0.00 | 0.00 | 0.00 | 41 | 1011.7 |
| 20260905105824 | 85 | 187 | 0.9 | 7.0 | 0.00 | 0.00 | 0.00 | 41 | 1011.7 |
| 20260905105703 | 86 | 204 | 1.7 | 7.0 | 0.00 | 0.00 | 0.00 | 41 | 1011.9 |
| 20260905105603 | 86 | 201 | 1.7 | 7.0 | 0.00 | 0.00 | 0.00 | 40 | 1011.6 |
| 20260905105503 | 86 | 201 | 0.9 | 7.0 | 0.00 | 0.00 | 0.00 | 40 | 1011.7 |
| 20260905105403 | 87 | 205 | 0.9 | 7.0 | 0.00 | 0.00 | 0.00 | 40 | 1011.7 |
| 20260905105306 | 87 | 195 | 0.9 | 7.0 | 0.00 | 0.00 | 0.00 | 40 | 1011.6 |
| 20260905105203 | 87 | 190 | 0.9 | 7.0 | 0.00 | 0.00 | 0.00 | 39 | 1011.6 |
| 20260905105124 | 87 | 191 | 0.9 | 7.0 | 0.00 | 0.00 | 0.00 | 39 | 1011.6 |
| 20260905105003 | 87 | 179 | 0.9 | 7.0 | 0.00 | 0.00 | 0.00 | 39 | 1011.7 |
| 20260905104903 | 87 | 186 | 0.9 | 7.0 | 0.00 | 0.00 | 0.00 | 39 | 1011.5 |
| 20260905104803 | 86 | 188 | 0.9 | 7.0 | 0.00 | 0.00 | 0.00 | 39 | 1011.6 |
| 20260905104704 | 86 | 180 | 0.9 | 7.0 | 0.00 | 0.00 | 0.00 | 39 | 1011.5 |
| 20260905104603 | 86 | 166 | 0.9 | 6.1 | 0.00 | 0.00 | 0.00 | 40 | 1011.7 |
| 20260905104503 | 86 | 176 | 0.9 | 6.1 | 0.00 | 0.00 | 0.00 | 41 | 1011.7 |
| 20260905104403 | 85 | 170 | 0.9 | 6.1 | 0.00 | 0.00 | 0.00 | 42 | 1011.7 |
| 20260905104303 | 85 | 174 | 0.9 | 6.1 | 0.00 | 0.00 | 0.00 | 42 | 1011.7 |
| 20260905104203 | 85 | 177 | 0.9 | 6.1 | 0.00 | 0.00 | 0.00 | 42 | 1011.6 |
| 20260905104103 | 84 | 175 | 0.9 | 6.1 | 0.00 | 0.00 | 0.00 | 42 | 1011.7 |
| 20260905104003 | 84 | 191 | 0.9 | 6.1 | 0.00 | 0.00 | 0.00 | 42 | 1011.5 |
| 20260905103903 | 84 | 182 | 0.9 | 6.1 | 0.00 | 0.00 | 0.00 | 42 | 1011.6 |
| 20260905103803 | 84 | 179 | 0.9 | 6.1 | 0.00 | 0.00 | 0.00 | 42 | 1011.7 |
| 20260905103724 | 84 | 177 | 0.9 | 8.7 | 0.00 | 0.00 | 0.00 | 42 | 1011.7 |
| 20260905103603 | 85 | 169 | 0.9 | 8.7 | 0.00 | 0.00 | 0.00 | 41 | 1011.8 |
| 20260905103503 | 85 | 164 | 0.9 | 8.7 | 0.00 | 0.00 | 0.00 | 40 | 1011.9 |
| 20260905103403 | 85 | 162 | 0.9 | 8.7 | 0.00 | 0.00 | 0.00 | 40 | 1011.7 |
| 20260905103303 | 85 | 159 | 0.9 | 8.7 | 0.00 | 0.00 | 0.00 | 41 | 1011.5 |
| 20260905103203 | 85 | 164 | 0.9 | 8.7 | 0.00 | 0.00 | 0.00 | 41 | 1011.6 |
| 20260905103103 | 84 | 167 | 0.9 | 8.7 | 0.00 | 0.00 | 0.00 | 42 | 1011.4 |
| 20260905103003 | 84 | 169 | 0.9 | 8.7 | 0.00 | 0.00 | 0.00 | 43 | 1011.5 |
| 20260905102925 | 83 | 174 | 0.9 | 8.7 | 0.00 | 0.00 | 0.00 | 43 | 1011.5 |
| 20260905102803 | 83 | 181 | 0.9 | 8.7 | 0.00 | 0.00 | 0.00 | 43 | 1011.7 |
| 20260905102703 | 82 | 182 | 0.9 | 5.2 | 0.00 | 0.00 | 0.00 | 43 | 1011.9 |
| 20260905102603 | 82 | 180 | 0.9 | 5.2 | 0.00 | 0.00 | 0.00 | 44 | 1011.5 |
| 20260905102524 | 83 | 182 | 0.9 | 5.2 | 0.00 | 0.00 | 0.00 | 43 | 1011.5 |
| 20260905102424 | 83 | 181 | 0.9 | 5.2 | 0.00 | 0.00 | 0.00 | 43 | 1011.8 |
| 20260905102324 | 83 | 178 | 0.9 | 7.0 | 0.00 | 0.00 | 0.00 | 43 | 1011.7 |
| 20260905102203 | 83 | 187 | 0.9 | 7.8 | 0.00 | 0.00 | 0.00 | 43 | 1011.8 |
| 20260905102103 | 83 | 187 | 0.9 | 7.8 | 0.00 | 0.00 | 0.00 | 43 | 1011.7 |
| 20260905102003 | 83 | 203 | 0.9 | 7.8 | 0.00 | 0.00 | 0.00 | 43 | 1011.8 |
| 20260905101903 | 83 | 203 | 0.9 | 7.8 | 0.00 | 0.00 | 0.00 | 43 | 1011.8 |
| 20260905101824 | 83 | 199 | 0.9 | 7.8 | 0.00 | 0.00 | 0.00 | 43 | 1011.8 |
| 20260905101703 | 83 | 199 | 0.9 | 7.8 | 0.00 | 0.00 | 0.00 | 43 | 1011.8 |
| 20260905101624 | 83 | 198 | 0.9 | 7.8 | 0.00 | 0.00 | 0.00 | 42 | 1011.8 |
| 20260905101505 | 84 | 193 | 1.7 | 7.8 | 0.00 | 0.00 | 0.00 | 42 | 1011.8 |
| 20260905101424 | 84 | 197 | 1.7 | 7.8 | 0.00 | 0.00 | 0.00 | 42 | 1011.8 |
| 20260905101304 | 84 | 203 | 1.7 | 7.8 | 0.00 | 0.00 | 0.00 | 41 | 1011.7 |
| 20260905101203 | 84 | 204 | 1.7 | 7.0 | 0.00 | 0.00 | 0.00 | 41 | 1011.7 |
| 20260905101103 | 84 | 201 | 1.7 | 7.0 | 0.00 | 0.00 | 0.00 | 41 | 1012.0 |
| 20260905101003 | 84 | 198 | 1.7 | 7.0 | 0.00 | 0.00 | 0.00 | 42 | 1011.7 |
| 20260905100924 | 84 | 201 | 1.7 | 7.0 | 0.00 | 0.00 | 0.00 | 41 | 1011.7 |
| 20260905100803 | 84 | 204 | 1.7 | 7.0 | 0.00 | 0.00 | 0.00 | 41 | 1011.8 |
| 20260905100703 | 84 | 205 | 1.7 | 7.8 | 0.00 | 0.00 | 0.00 | 41 | 1011.7 |
| 20260905100603 | 84 | 211 | 1.7 | 7.8 | 0.00 | 0.00 | 0.00 | 42 | 1011.7 |
| 20260905100504 | 84 | 212 | 1.7 | 7.8 | 0.00 | 0.00 | 0.00 | 42 | 1011.9 |
| 20260905100403 | 84 | 211 | 1.7 | 7.8 | 0.00 | 0.00 | 0.00 | 42 | 1011.9 |
| 20260905100303 | 84 | 214 | 1.7 | 7.8 | 0.00 | 0.00 | 0.00 | 42 | 1011.9 |
| 20260905100203 | 84 | 207 | 1.7 | 7.8 | 0.00 | 0.00 | 0.00 | 42 | 1012.0 |
| 20260905100003 | 84 | 202 | 1.7 | 7.8 | 0.00 | 0.00 | 0.00 | 41 | 1011.9 |
| 20260905095903 | 84 | 199 | 1.7 | 7.8 | 0.00 | 0.00 | 0.00 | 42 | 1011.7 |
| 20260905095803 | 84 | 198 | 1.7 | 7.8 | 0.00 | 0.00 | 0.00 | 42 | 1011.8 |
| 20260905095703 | 84 | 190 | 1.7 | 7.8 | 0.00 | 0.00 | 0.00 | 42 | 1011.8 |
| 20260905095603 | 84 | 180 | 0.9 | 6.1 | 0.00 | 0.00 | 0.00 | 43 | 1011.8 |
| 20260905095503 | 84 | 188 | 1.7 | 6.1 | 0.00 | 0.00 | 0.00 | 42 | 1011.7 |
| 20260905095403 | 84 | 199 | 1.7 | 7.0 | 0.00 | 0.00 | 0.00 | 42 | 1011.8 |
| 20260905095305 | 84 | 199 | 1.7 | 7.0 | 0.00 | 0.00 | 0.00 | 42 | 1011.7 |
| 20260905095224 | 84 | 205 | 1.7 | 7.0 | 0.00 | 0.00 | 0.00 | 42 | 1011.7 |
| 20260905095103 | 83 | 211 | 1.7 | 7.0 | 0.00 | 0.00 | 0.00 | 42 | 1011.7 |
| 20260905095003 | 83 | 213 | 1.7 | 7.0 | 0.00 | 0.00 | 0.00 | 43 | 1011.6 |
| 20260905094924 | 83 | 211 | 1.7 | 7.0 | 0.00 | 0.00 | 0.00 | 43 | 1011.6 |
| 20260905094803 | 83 | 208 | 1.7 | 7.0 | 0.00 | 0.00 | 0.00 | 42 | 1011.7 |
| 20260905094724 | 83 | 209 | 1.7 | 7.0 | 0.00 | 0.00 | 0.00 | 42 | 1011.7 |
| 20260905094603 | 83 | 204 | 1.7 | 7.0 | 0.00 | 0.00 | 0.00 | 42 | 1011.9 |
| 20260905094503 | 83 | 203 | 1.7 | 7.0 | 0.00 | 0.00 | 0.00 | 41 | 1011.6 |
| 20260905094424 | 83 | 198 | 1.7 | 7.0 | 0.00 | 0.00 | 0.00 | 42 | 1011.6 |
| 20260905094303 | 84 | 194 | 1.7 | 7.0 | 0.00 | 0.00 | 0.00 | 42 | 1011.8 |
| 20260905094203 | 84 | 182 | 1.7 | 7.8 | 0.00 | 0.00 | 0.00 | 42 | 1012.0 |
| 20260905094103 | 84 | 184 | 1.7 | 7.8 | 0.00 | 0.00 | 0.00 | 42 | 1011.8 |
| 20260905094003 | 83 | 188 | 0.9 | 7.8 | 0.00 | 0.00 | 0.00 | 42 | 1012.0 |
| 20260905093903 | 83 | 180 | 0.9 | 7.8 | 0.00 | 0.00 | 0.00 | 42 | 1011.6 |
| 20260905093803 | 83 | 178 | 0.9 | 7.8 | 0.00 | 0.00 | 0.00 | 42 | 1011.9 |
| 20260905093703 | 83 | 194 | 0.9 | 7.8 | 0.00 | 0.00 | 0.00 | 42 | 1011.9 |
| 20260905093603 | 83 | 208 | 1.7 | 7.8 | 0.00 | 0.00 | 0.00 | 43 | 1011.6 |
| 20260905093503 | 83 | 209 | 1.7 | 7.8 | 0.00 | 0.00 | 0.00 | 43 | 1011.8 |
| 20260905093403 | 83 | 212 | 1.7 | 7.8 | 0.00 | 0.00 | 0.00 | 43 | 1011.8 |
| 20260905093304 | 83 | 218 | 1.7 | 7.8 | 0.00 | 0.00 | 0.00 | 43 | 1011.8 |
| 20260905093203 | 83 | 219 | 1.7 | 7.8 | 0.00 | 0.00 | 0.00 | 43 | 1011.9 |
| 20260905093103 | 83 | 219 | 1.7 | 7.0 | 0.00 | 0.00 | 0.00 | 43 | 1011.8 |
| 20260905093003 | 82 | 206 | 1.7 | 7.0 | 0.00 | 0.00 | 0.00 | 43 | 1012.0 |
| 20260905092903 | 82 | 219 | 1.7 | 7.0 | 0.00 | 0.00 | 0.00 | 43 | 1011.5 |
| 20260905092803 | 82 | 225 | 2.6 | 8.7 | 0.00 | 0.00 | 0.00 | 43 | 1011.8 |
| 20260905092703 | 82 | 220 | 2.6 | 8.7 | 0.00 | 0.00 | 0.00 | 43 | 1011.8 |
| 20260905092603 | 82 | 216 | 2.6 | 8.7 | 0.00 | 0.00 | 0.00 | 43 | 1011.4 |
| 20260905092524 | 82 | 212 | 2.6 | 8.7 | 0.00 | 0.00 | 0.00 | 43 | 1011.4 |
| 20260905092403 | 82 | 201 | 1.7 | 8.7 | 0.00 | 0.00 | 0.00 | 43 | 1011.7 |
| 20260905092324 | 82 | 197 | 1.7 | 8.7 | 0.00 | 0.00 | 0.00 | 44 | 1011.7 |
| 20260905092203 | 82 | 198 | 1.7 | 8.7 | 0.00 | 0.00 | 0.00 | 44 | 1011.6 |
| 20260905092103 | 82 | 195 | 1.7 | 8.7 | 0.00 | 0.00 | 0.00 | 44 | 1011.6 |
| 20260905092024 | 82 | 200 | 1.7 | 8.7 | 0.00 | 0.00 | 0.00 | 44 | 1011.6 |
| 20260905091903 | 82 | 194 | 1.7 | 8.7 | 0.00 | 0.00 | 0.00 | 43 | 1011.9 |
| 20260905091803 | 82 | 188 | 1.7 | 6.1 | 0.00 | 0.00 | 0.00 | 43 | 1011.5 |
| 20260905091724 | 82 | 190 | 1.7 | 6.1 | 0.00 | 0.00 | 0.00 | 43 | 1011.5 |
| 20260905091603 | 82 | 189 | 1.7 | 6.1 | 0.00 | 0.00 | 0.00 | 44 | 1011.7 |
| 20260905091503 | 82 | 200 | 1.7 | 6.1 | 0.00 | 0.00 | 0.00 | 45 | 1011.8 |
| 20260905091407 | 82 | 206 | 1.7 | 6.1 | 0.00 | 0.00 | 0.00 | 45 | 1011.5 |
| 20260905091304 | 82 | 207 | 1.7 | 6.1 | 0.00 | 0.00 | 0.00 | 45 | 1011.7 |
| 20260905091203 | 82 | 209 | 2.6 | 6.1 | 0.00 | 0.00 | 0.00 | 44 | 1011.6 |
| 20260905091103 | 82 | 212 | 1.7 | 6.1 | 0.00 | 0.00 | 0.00 | 44 | 1011.6 |
| 20260905091003 | 82 | 206 | 1.7 | 6.1 | 0.00 | 0.00 | 0.00 | 45 | 1011.7 |
| 20260905090903 | 82 | 207 | 1.7 | 6.1 | 0.00 | 0.00 | 0.00 | 44 | 1011.6 |
| 20260905090803 | 82 | 206 | 1.7 | 6.1 | 0.00 | 0.00 | 0.00 | 45 | 1011.7 |
| 20260905090703 | 82 | 195 | 1.7 | 6.1 | 0.00 | 0.00 | 0.00 | 45 | 1011.7 |
| 20260905090603 | 82 | 204 | 1.7 | 6.1 | 0.00 | 0.00 | 0.00 | 44 | 1011.7 |
| 20260905090503 | 82 | 177 | 1.7 | 6.1 | 0.00 | 0.00 | 0.00 | 44 | 1011.7 |
| 20260905090403 | 82 | 176 | 1.7 | 7.8 | 0.00 | 0.00 | 0.00 | 44 | 1011.6 |
| 20260905090303 | 82 | 183 | 1.7 | 7.8 | 0.00 | 0.00 | 0.00 | 44 | 1011.6 |
| 20260905090203 | 82 | 180 | 1.7 | 7.8 | 0.00 | 0.00 | 0.00 | 44 | 1011.6 |
| 20260905090103 | 82 | 183 | 1.7 | 7.8 | 0.00 | 0.00 | 0.00 | 44 | 1011.6 |
| 20260905090003 | 82 | 190 | 1.7 | 7.8 | 0.00 | 0.00 | 0.00 | 44 | 1011.4 |
| 20260905085903 | 82 | 195 | 1.7 | 7.8 | 0.00 | 0.00 | 0.00 | 44 | 1011.6 |
| 20260905085803 | 81 | 196 | 1.7 | 7.8 | 0.00 | 0.00 | 0.00 | 44 | 1011.7 |
| 20260905085703 | 81 | 197 | 1.7 | 7.8 | 0.00 | 0.00 | 0.00 | 44 | 1011.7 |
| 20260905085603 | 81 | 195 | 1.7 | 7.8 | 0.00 | 0.00 | 0.00 | 44 | 1011.8 |
| 20260905085503 | 81 | 201 | 1.7 | 7.8 | 0.00 | 0.00 | 0.00 | 45 | 1011.8 |
| 20260905085403 | 81 | 206 | 0.9 | 6.1 | 0.00 | 0.00 | 0.00 | 44 | 1011.7 |
| 20260905085305 | 81 | 203 | 0.9 | 3.5 | 0.00 | 0.00 | 0.00 | 47 | 1011.4 |
| 20260905085203 | 81 | 210 | 0.9 | 3.5 | 0.00 | 0.00 | 0.00 | 46 | 1011.8 |
| 20260905085103 | 81 | 207 | 0.9 | 3.5 | 0.00 | 0.00 | 0.00 | 46 | 1011.7 |
| 20260905085024 | 81 | 201 | 0.9 | 3.5 | 0.00 | 0.00 | 0.00 | 45 | 1011.7 |
| 20260905084903 | 80 | 180 | 0.9 | 3.5 | 0.00 | 0.00 | 0.00 | 46 | 1011.6 |
| 20260905084803 | 80 | 181 | 0.9 | 3.5 | 0.00 | 0.00 | 0.00 | 47 | 1011.7 |
| 20260905084703 | 80 | 183 | 0.9 | 3.5 | 0.00 | 0.00 | 0.00 | 46 | 1011.6 |
| 20260905084603 | 80 | 182 | 0.9 | 5.2 | 0.00 | 0.00 | 0.00 | 47 | 1011.4 |
| 20260905084503 | 79 | 178 | 0.9 | 5.2 | 0.00 | 0.00 | 0.00 | 47 | 1011.4 |
| 20260905084403 | 79 | 182 | 0.9 | 5.2 | 0.00 | 0.00 | 0.00 | 47 | 1011.4 |
| 20260905084303 | 79 | 185 | 1.7 | 6.1 | 0.00 | 0.00 | 0.00 | 47 | 1011.4 |
| 20260905084224 | 79 | 183 | 1.7 | 6.1 | 0.00 | 0.00 | 0.00 | 47 | 1011.4 |
| 20260905084103 | 79 | 189 | 1.7 | 6.1 | 0.00 | 0.00 | 0.00 | 47 | 1011.5 |
| 20260905084003 | 79 | 191 | 1.7 | 6.1 | 0.00 | 0.00 | 0.00 | 47 | 1011.4 |
| 20260905083924 | 79 | 197 | 1.7 | 6.1 | 0.00 | 0.00 | 0.00 | 47 | 1011.4 |
| 20260905083803 | 79 | 195 | 1.7 | 6.1 | 0.00 | 0.00 | 0.00 | 47 | 1011.5 |
| 20260905083703 | 79 | 195 | 1.7 | 6.1 | 0.00 | 0.00 | 0.00 | 47 | 1011.7 |
| 20260905083603 | 79 | 202 | 1.7 | 6.1 | 0.00 | 0.00 | 0.00 | 47 | 1011.6 |
| 20260905083503 | 80 | 201 | 1.7 | 6.1 | 0.00 | 0.00 | 0.00 | 47 | 1011.7 |
| 20260905083403 | 80 | 204 | 1.7 | 6.1 | 0.00 | 0.00 | 0.00 | 46 | 1011.6 |
| 20260905083303 | 80 | 207 | 0.9 | 5.2 | 0.00 | 0.00 | 0.00 | 46 | 1011.3 |
| 20260905083203 | 80 | 204 | 0.9 | 5.2 | 0.00 | 0.00 | 0.00 | 46 | 1011.4 |
| 20260905083103 | 80 | 208 | 0.9 | 5.2 | 0.00 | 0.00 | 0.00 | 46 | 1011.4 |
| 20260905083003 | 80 | 209 | 0.9 | 7.8 | 0.00 | 0.00 | 0.00 | 45 | 1011.6 |
| 20260905082903 | 80 | 198 | 0.9 | 7.8 | 0.00 | 0.00 | 0.00 | 46 | 1011.7 |
| 20260905082824 | 80 | 196 | 0.9 | 7.8 | 0.00 | 0.00 | 0.00 | 46 | 1011.7 |
| 20260905082724 | 80 | 198 | 0.9 | 7.8 | 0.00 | 0.00 | 0.00 | 46 | 1011.4 |
| 20260905082603 | 80 | 188 | 0.9 | 7.8 | 0.00 | 0.00 | 0.00 | 45 | 1011.5 |
| 20260905082503 | 80 | 190 | 0.9 | 7.8 | 0.00 | 0.00 | 0.00 | 45 | 1011.7 |
| 20260905082403 | 80 | 186 | 0.9 | 7.8 | 0.00 | 0.00 | 0.00 | 46 | 1011.6 |
| 20260905082307 | 80 | 186 | 0.9 | 7.8 | 0.00 | 0.00 | 0.00 | 46 | 1011.7 |
| 20260905082203 | 80 | 189 | 0.9 | 7.8 | 0.00 | 0.00 | 0.00 | 46 | 1011.6 |
| 20260905082124 | 80 | 181 | 1.7 | 7.8 | 0.00 | 0.00 | 0.00 | 46 | 1011.6 |
| 20260905082003 | 80 | 182 | 1.7 | 6.1 | 0.00 | 0.00 | 0.00 | 46 | 1011.6 |
| 20260905081903 | 80 | 187 | 1.7 | 6.1 | 0.00 | 0.00 | 0.00 | 46 | 1011.7 |
| 20260905081804 | 80 | 188 | 1.7 | 6.1 | 0.00 | 0.00 | 0.00 | 46 | 1011.6 |
| 20260905081703 | 80 | 184 | 1.7 | 6.1 | 0.00 | 0.00 | 0.00 | 46 | 1011.6 |
| 20260905081603 | 80 | 185 | 1.7 | 6.1 | 0.00 | 0.00 | 0.00 | 47 | 1011.8 |
| 20260905081504 | 80 | 191 | 1.7 | 6.1 | 0.00 | 0.00 | 0.00 | 46 | 1012.0 |
| 20260905081403 | 80 | 189 | 1.7 | 6.1 | 0.00 | 0.00 | 0.00 | 46 | 1011.6 |
| 20260905081303 | 79 | 192 | 1.7 | 6.1 | 0.00 | 0.00 | 0.00 | 46 | 1011.6 |
| 20260905081203 | 79 | 189 | 1.7 | 6.1 | 0.00 | 0.00 | 0.00 | 46 | 1011.8 |
| 20260905081103 | 80 | 195 | 1.7 | 6.1 | 0.00 | 0.00 | 0.00 | 47 | 1012.0 |
| 20260905081003 | 80 | 191 | 1.7 | 6.1 | 0.00 | 0.00 | 0.00 | 46 | 1011.8 |
| 20260905080903 | 79 | 189 | 1.7 | 5.2 | 0.00 | 0.00 | 0.00 | 47 | 1011.6 |
| 20260905080803 | 79 | 184 | 1.7 | 5.2 | 0.00 | 0.00 | 0.00 | 47 | 1012.0 |
| 20260905080724 | 79 | 184 | 1.7 | 5.2 | 0.00 | 0.00 | 0.00 | 47 | 1012.0 |
| 20260905080603 | 79 | 187 | 1.7 | 6.1 | 0.00 | 0.00 | 0.00 | 47 | 1011.8 |
| 20260905080503 | 79 | 191 | 1.7 | 6.1 | 0.00 | 0.00 | 0.00 | 48 | 1011.9 |
| 20260905080403 | 79 | 188 | 1.7 | 6.1 | 0.00 | 0.00 | 0.00 | 47 | 1012.0 |
| 20260905080303 | 79 | 181 | 1.7 | 6.1 | 0.00 | 0.00 | 0.00 | 47 | 1012.0 |
| 20260905080203 | 79 | 175 | 0.9 | 6.1 | 0.00 | 0.00 | 0.00 | 47 | 1012.0 |
| 20260905080004 | 79 | 177 | 0.9 | 6.1 | 0.00 | 0.00 | 0.00 | 47 | 1012.2 |
| 20260905075903 | 79 | 172 | 0.9 | 6.1 | 0.00 | 0.00 | 0.00 | 48 | 1011.9 |
| 20260905075803 | 79 | 180 | 0.9 | 6.1 | 0.00 | 0.00 | 0.00 | 48 | 1011.8 |
| 20260905075703 | 79 | 181 | 0.9 | 6.1 | 0.00 | 0.00 | 0.00 | 48 | 1012.1 |
| 20260905075603 | 79 | 182 | 0.9 | 5.2 | 0.00 | 0.00 | 0.00 | 47 | 1011.8 |
| 20260905075503 | 79 | 174 | 0.9 | 5.2 | 0.00 | 0.00 | 0.00 | 48 | 1012.0 |
| 20260905075403 | 78 | 178 | 0.9 | 5.2 | 0.00 | 0.00 | 0.00 | 49 | 1011.9 |
| 20260905075306 | 78 | 189 | 0.9 | 5.2 | 0.00 | 0.00 | 0.00 | 50 | 1011.9 |
| 20260905075203 | 78 | 192 | 0.9 | 5.2 | 0.00 | 0.00 | 0.00 | 49 | 1012.1 |
| 20260905075103 | 78 | 193 | 0.9 | 5.2 | 0.00 | 0.00 | 0.00 | 49 | 1011.9 |